Time,TemperatureF,DewpointF,PressureIn,WindDirection,WindDirectionDegrees,WindSpeedMPH,WindSpeedGustMPH,Humidity,HourlyPrecipIn,Conditions,Clouds,dailyrainin,SoftwareType,DateUTC
2013-02-28 00:00:00,45.4,31.5,29.83,North,360,16.0,24.0,58,0.01,,SKC,0.06,VWS V14.00,2013-02-28 05:00:00,
2013-02-28 00:01:00,45.4,32.3,29.83,North,360,20.0,26.0,60,0.00,,SKC,0.00,VWS V14.00,2013-02-28 05:01:00,
2013-02-28 00:02:00,45.4,32.3,29.83,North,360,11.0,26.0,60,0.00,,SKC,0.00,VWS V14.00,2013-02-28 05:02:00,
2013-02-28 00:03:00,45.4,32.3,29.83,North,360,20.0,26.0,60,0.00,,SKC,0.00,VWS V14.00,2013-02-28 05:03:00,
2013-02-28 00:04:00,45.4,32.3,29.83,North,360,17.0,26.0,60,0.00,,SKC,0.00,VWS V14.00,2013-02-28 05:04:00,
2013-02-28 00:05:00,45.4,31.9,29.83,North,360,9.0,26.0,59,0.00,,SKC,0.00,VWS V14.00,2013-02-28 05:05:00,
2013-02-28 00:06:00,45.4,31.9,29.83,North,360,8.0,26.0,59,0.00,,SKC,0.00,VWS V14.00,2013-02-28 05:06:00,
2013-02-28 00:07:00,45.2,32.2,29.83,North,360,10.0,26.0,60,0.00,,SKC,0.00,VWS V14.00,2013-02-28 05:07:00,
2013-02-28 00:08:00,45.2,31.7,29.83,North,360,22.0,26.0,59,0.00,,SKC,0.00,VWS V14.00,2013-02-28 05:08:00,
2013-02-28 00:09:00,45.2,31.7,29.83,North,360,11.0,26.0,59,0.00,,SKC,0.00,VWS V14.00,2013-02-28 05:09:00,
2013-02-28 00:10:00,45.2,31.7,29.83,North,360,15.0,26.0,59,0.00,,SKC,0.00,VWS V14.00,2013-02-28 05:10:00,
2013-02-28 00:11:00,45.2,31.7,29.83,North,360,15.0,15.0,59,0.00,,SKC,0.00,VWS V14.00,2013-02-28 05:11:00,
2013-02-28 00:12:00,45.2,31.7,29.83,North,360,12.0,19.0,59,0.00,,SKC,0.00,VWS V14.00,2013-02-28 05:12:00,
2013-02-28 00:13:00,45.2,31.7,29.83,North,360,12.0,19.0,59,0.00,,SKC,0.00,VWS V14.00,2013-02-28 05:13:00,
2013-02-28 00:14:00,45.2,31.7,29.83,North,360,10.0,19.0,59,0.00,,SKC,0.00,VWS V14.00,2013-02-28 05:14:00,
2013-02-28 00:15:00,45.1,31.6,29.83,North,360,11.0,19.0,59,0.00,,SKC,0.00,VWS V14.00,2013-02-28 05:15:00,
2013-02-28 00:16:00,45.1,31.6,29.83,North,360,14.0,19.0,59,0.00,,SKC,0.00,VWS V14.00,2013-02-28 05:16:00,
2013-02-28 00:17:00,45.1,31.6,29.83,North,360,9.0,19.0,59,0.00,,SKC,0.00,VWS V14.00,2013-02-28 05:17:00,
2013-02-28 00:18:00,45.1,31.6,29.83,North,360,13.0,19.0,59,0.00,,SKC,0.00,VWS V14.00,2013-02-28 05:18:00,
2013-02-28 00:19:00,45.1,31.6,29.83,North,360,10.0,19.0,59,0.00,,SKC,0.00,VWS V14.00,2013-02-28 05:19:00,
2013-02-28 00:20:00,45.1,31.6,29.83,North,360,12.0,19.0,59,0.00,,SKC,0.00,VWS V14.00,2013-02-28 05:20:00,
2013-02-28 00:21:00,45.1,31.6,29.83,North,360,14.0,14.0,59,0.00,,SKC,0.00,VWS V14.00,2013-02-28 05:21:00,
2013-02-28 00:22:00,45.1,31.6,29.83,North,360,20.0,25.0,59,0.00,,SKC,0.00,VWS V14.00,2013-02-28 05:22:00,
2013-02-28 00:23:00,44.9,31.0,29.83,North,360,13.0,25.0,58,0.00,,SKC,0.00,VWS V14.00,2013-02-28 05:23:00,
2013-02-28 00:24:00,44.9,31.0,29.83,North,360,11.0,25.0,58,0.00,,SKC,0.00,VWS V14.00,2013-02-28 05:24:00,
2013-02-28 00:25:00,44.9,30.6,29.83,North,360,18.0,25.0,57,0.00,,SKC,0.00,VWS V14.00,2013-02-28 05:25:00,
2013-02-28 00:26:00,44.9,29.7,29.83,North,360,19.0,25.0,55,0.00,,SKC,0.00,VWS V14.00,2013-02-28 05:26:00,
2013-02-28 00:27:00,44.9,29.7,29.83,North,360,14.0,25.0,55,0.00,,SKC,0.00,VWS V14.00,2013-02-28 05:27:00,
2013-02-28 00:28:00,44.8,29.6,29.83,North,360,21.0,25.0,55,0.00,,SKC,0.00,VWS V14.00,2013-02-28 05:28:00,
2013-02-28 00:29:00,44.8,29.6,29.83,North,360,11.0,25.0,55,0.00,,SKC,0.00,VWS V14.00,2013-02-28 05:29:00,
2013-02-28 00:30:00,44.8,29.6,29.83,North,360,7.0,25.0,55,0.00,,SKC,0.00,VWS V14.00,2013-02-28 05:30:00,
2013-02-28 00:31:00,44.8,29.6,29.83,North,360,6.0,17.0,55,0.00,,SKC,0.00,VWS V14.00,2013-02-28 05:31:00,
2013-02-28 00:32:00,44.6,29.5,29.83,North,360,19.0,21.0,55,0.00,,SKC,0.00,VWS V14.00,2013-02-28 05:32:00,
2013-02-28 00:33:00,44.6,29.0,29.83,North,360,14.0,21.0,54,0.00,,SKC,0.00,VWS V14.00,2013-02-28 05:33:00,
2013-02-28 00:34:00,44.6,29.5,29.83,North,360,15.0,21.0,55,0.00,,SKC,0.00,VWS V14.00,2013-02-28 05:34:00,
2013-02-28 00:35:00,44.6,29.5,29.83,North,360,10.0,21.0,55,0.00,,SKC,0.00,VWS V14.00,2013-02-28 05:35:00,
2013-02-28 00:36:00,44.5,28.9,29.83,North,360,18.0,21.0,54,0.00,,SKC,0.00,VWS V14.00,2013-02-28 05:36:00,
2013-02-28 00:37:00,44.5,28.9,29.83,North,360,10.0,21.0,54,0.00,,SKC,0.00,VWS V14.00,2013-02-28 05:37:00,
2013-02-28 00:38:00,44.5,29.4,29.83,North,360,8.0,21.0,55,0.00,,SKC,0.00,VWS V14.00,2013-02-28 05:38:00,
2013-02-28 00:39:00,44.3,28.7,29.83,North,360,10.0,21.0,54,0.00,,SKC,0.00,VWS V14.00,2013-02-28 05:39:00,
2013-02-28 00:40:00,44.3,29.2,29.83,North,360,16.0,21.0,55,0.00,,SKC,0.00,VWS V14.00,2013-02-28 05:40:00,
2013-02-28 00:41:00,44.2,29.1,29.83,North,360,15.0,21.0,55,0.00,,SKC,0.00,VWS V14.00,2013-02-28 05:41:00,
2013-02-28 00:42:00,44.2,30.4,29.83,North,360,14.0,21.0,58,0.00,,SKC,0.00,VWS V14.00,2013-02-28 05:42:00,
2013-02-28 00:43:00,44.2,30.4,29.83,North,360,14.0,21.0,58,0.00,,SKC,0.00,VWS V14.00,2013-02-28 05:43:00,
2013-02-28 00:44:00,44.1,30.3,29.83,North,360,16.0,21.0,58,0.00,,SKC,0.00,VWS V14.00,2013-02-28 05:44:00,
2013-02-28 00:45:00,44.1,29.0,29.83,North,360,11.0,21.0,55,0.00,,SKC,0.00,VWS V14.00,2013-02-28 05:45:00,
2013-02-28 00:46:00,44.1,29.4,29.83,North,360,5.0,21.0,56,0.00,,SKC,0.00,VWS V14.00,2013-02-28 05:46:00,
2013-02-28 00:47:00,43.9,29.2,29.83,North,360,18.0,21.0,56,0.00,,SKC,0.00,VWS V14.00,2013-02-28 05:47:00,
2013-02-28 00:48:00,43.9,29.2,29.83,North,360,7.0,21.0,56,0.00,,SKC,0.00,VWS V14.00,2013-02-28 05:48:00,
2013-02-28 00:49:00,43.8,29.6,29.83,North,360,15.0,21.0,57,0.00,,SKC,0.00,VWS V14.00,2013-02-28 05:49:00,
2013-02-28 00:50:00,43.8,29.6,29.83,North,360,7.0,21.0,57,0.00,,SKC,0.00,VWS V14.00,2013-02-28 05:50:00,
2013-02-28 00:51:00,43.6,29.4,29.83,North,360,11.0,18.0,57,0.00,,SKC,0.00,VWS V14.00,2013-02-28 05:51:00,
2013-02-28 00:52:00,43.6,29.4,29.83,North,360,9.0,18.0,57,0.00,,SKC,0.00,VWS V14.00,2013-02-28 05:52:00,
2013-02-28 00:53:00,43.5,29.7,29.83,North,360,8.0,18.0,58,0.00,,SKC,0.00,VWS V14.00,2013-02-28 05:53:00,
2013-02-28 00:54:00,43.5,29.7,29.83,North,360,6.0,18.0,58,0.00,,SKC,0.00,VWS V14.00,2013-02-28 05:54:00,
2013-02-28 00:55:00,43.5,29.7,29.83,North,360,10.0,18.0,58,0.00,,SKC,0.00,VWS V14.00,2013-02-28 05:55:00,
2013-02-28 00:56:00,43.3,29.5,29.83,North,360,15.0,18.0,58,0.00,,SKC,0.00,VWS V14.00,2013-02-28 05:56:00,
2013-02-28 00:57:00,43.3,29.5,29.83,North,360,10.0,18.0,58,0.00,,SKC,0.00,VWS V14.00,2013-02-28 05:57:00,
2013-02-28 00:58:00,43.2,29.9,29.83,North,360,11.0,18.0,59,0.00,,SKC,0.00,VWS V14.00,2013-02-28 05:58:00,
2013-02-28 00:59:00,43.2,29.9,29.83,North,360,13.0,18.0,59,0.00,,SKC,0.00,VWS V14.00,2013-02-28 05:59:00,
2013-02-28 01:00:00,43.1,29.8,29.84,North,360,10.0,18.0,59,0.00,,SKC,0.00,VWS V14.00,2013-02-28 06:00:00,
2013-02-28 01:01:00,42.9,29.6,29.84,North,360,9.0,13.0,59,0.00,,SKC,0.00,VWS V14.00,2013-02-28 06:01:00,
2013-02-28 01:02:00,42.9,30.0,29.84,North,360,10.0,13.0,60,0.00,,SKC,0.00,VWS V14.00,2013-02-28 06:02:00,
2013-02-28 01:03:00,42.8,29.9,29.84,North,360,16.0,19.0,60,0.00,,SKC,0.00,VWS V14.00,2013-02-28 06:03:00,
2013-02-28 01:04:00,42.8,29.9,29.84,North,360,14.0,19.0,60,0.00,,SKC,0.00,VWS V14.00,2013-02-28 06:04:00,
2013-02-28 01:05:00,42.8,29.9,29.84,North,360,13.0,19.0,60,0.00,,SKC,0.00,VWS V14.00,2013-02-28 06:05:00,
2013-02-28 01:06:00,42.6,29.7,29.84,North,360,12.0,19.0,60,0.00,,SKC,0.00,VWS V14.00,2013-02-28 06:06:00,
2013-02-28 01:07:00,42.6,29.7,29.84,North,360,11.0,19.0,60,0.00,,SKC,0.00,VWS V14.00,2013-02-28 06:07:00,
2013-02-28 01:08:00,42.5,29.6,29.84,North,360,9.0,19.0,60,0.00,,SKC,0.00,VWS V14.00,2013-02-28 06:08:00,
2013-02-28 01:09:00,42.5,29.6,29.84,North,360,9.0,19.0,60,0.00,,SKC,0.00,VWS V14.00,2013-02-28 06:09:00,
2013-02-28 01:10:00,42.5,29.6,29.84,North,360,16.0,20.0,60,0.00,,SKC,0.00,VWS V14.00,2013-02-28 06:10:00,
2013-02-28 01:11:00,42.3,29.4,29.84,North,360,13.0,16.0,60,0.00,,SKC,0.00,VWS V14.00,2013-02-28 06:11:00,
2013-02-28 01:12:00,42.3,29.4,29.84,North,360,10.0,17.0,60,0.00,,SKC,0.00,VWS V14.00,2013-02-28 06:12:00,
2013-02-28 01:13:00,42.3,29.4,29.84,North,360,9.0,17.0,60,0.00,,SKC,0.00,VWS V14.00,2013-02-28 06:13:00,
2013-02-28 01:14:00,42.2,29.3,29.84,North,360,10.0,17.0,60,0.00,,SKC,0.00,VWS V14.00,2013-02-28 06:14:00,
2013-02-28 01:15:00,42.2,29.3,29.83,North,360,12.0,17.0,60,0.00,,SKC,0.00,VWS V14.00,2013-02-28 06:15:00,
2013-02-28 01:16:00,42.2,29.3,29.83,North,360,7.0,17.0,60,0.00,,SKC,0.00,VWS V14.00,2013-02-28 06:16:00,
2013-02-28 01:17:00,42.2,29.7,29.83,North,360,7.0,17.0,61,0.00,,SKC,0.00,VWS V14.00,2013-02-28 06:17:00,
2013-02-28 01:18:00,42.1,29.6,29.83,North,360,9.0,17.0,61,0.00,,SKC,0.00,VWS V14.00,2013-02-28 06:18:00,
2013-02-28 01:19:00,42.1,29.6,29.83,North,360,11.0,17.0,61,0.00,,SKC,0.00,VWS V14.00,2013-02-28 06:19:00,
2013-02-28 01:20:00,42.1,29.6,29.83,North,360,10.0,17.0,61,0.00,,SKC,0.00,VWS V14.00,2013-02-28 06:20:00,
2013-02-28 01:21:00,42.1,29.6,29.83,North,360,6.0,11.0,61,0.00,,SKC,0.00,VWS V14.00,2013-02-28 06:21:00,
2013-02-28 01:22:00,41.9,29.5,29.83,North,360,12.0,13.0,61,0.00,,SKC,0.00,VWS V14.00,2013-02-28 06:22:00,
2013-02-28 01:23:00,41.9,29.5,29.83,North,360,11.0,15.0,61,0.00,,SKC,0.00,VWS V14.00,2013-02-28 06:23:00,
2013-02-28 01:24:00,41.9,29.5,29.83,North,360,16.0,17.0,61,0.00,,SKC,0.00,VWS V14.00,2013-02-28 06:24:00,
2013-02-28 01:25:00,41.9,29.5,29.83,North,360,6.0,17.0,61,0.00,,SKC,0.00,VWS V14.00,2013-02-28 06:25:00,
2013-02-28 01:26:00,41.8,29.4,29.83,North,360,6.0,17.0,61,0.00,,SKC,0.00,VWS V14.00,2013-02-28 06:26:00,
2013-02-28 01:27:00,41.8,29.4,29.83,North,360,6.0,17.0,61,0.00,,SKC,0.00,VWS V14.00,2013-02-28 06:27:00,
2013-02-28 01:28:00,41.8,29.4,29.83,North,360,9.0,17.0,61,0.00,,SKC,0.00,VWS V14.00,2013-02-28 06:28:00,
2013-02-28 01:29:00,41.8,29.4,29.83,North,360,5.0,17.0,61,0.00,,SKC,0.00,VWS V14.00,2013-02-28 06:29:00,
2013-02-28 01:30:00,41.8,29.4,29.83,North,360,7.0,17.0,61,0.00,,SKC,0.00,VWS V14.00,2013-02-28 06:30:00,
2013-02-28 01:31:00,41.6,29.2,29.83,North,360,9.0,12.0,61,0.00,,SKC,0.00,VWS V14.00,2013-02-28 06:31:00,
2013-02-28 01:32:00,41.6,29.6,29.83,North,360,12.0,13.0,62,0.00,,SKC,0.00,VWS V14.00,2013-02-28 06:32:00,
2013-02-28 01:33:00,41.6,29.6,29.83,North,360,10.0,13.0,62,0.00,,SKC,0.00,VWS V14.00,2013-02-28 06:33:00,
2013-02-28 01:34:00,41.6,29.6,29.83,North,360,10.0,13.0,62,0.00,,SKC,0.00,VWS V14.00,2013-02-28 06:34:00,
2013-02-28 01:35:00,41.6,29.6,29.83,North,360,10.0,13.0,62,0.00,,SKC,0.00,VWS V14.00,2013-02-28 06:35:00,
2013-02-28 01:36:00,41.6,29.6,29.83,North,360,10.0,13.0,62,0.00,,SKC,0.00,VWS V14.00,2013-02-28 06:36:00,
2013-02-28 01:37:00,41.6,29.6,29.83,North,360,12.0,17.0,62,0.00,,SKC,0.00,VWS V14.00,2013-02-28 06:37:00,
2013-02-28 01:38:00,41.6,29.6,29.83,North,360,6.0,17.0,62,0.00,,SKC,0.00,VWS V14.00,2013-02-28 06:38:00,
2013-02-28 01:39:00,41.6,29.6,29.83,North,360,11.0,17.0,62,0.00,,SKC,0.00,VWS V14.00,2013-02-28 06:39:00,
2013-02-28 01:40:00,41.6,29.6,29.83,North,360,6.0,17.0,62,0.00,,SKC,0.00,VWS V14.00,2013-02-28 06:40:00,
2013-02-28 01:41:00,41.6,29.6,29.83,North,360,8.0,13.0,62,0.00,,SKC,0.00,VWS V14.00,2013-02-28 06:41:00,
2013-02-28 01:42:00,41.6,29.6,29.83,North,360,8.0,13.0,62,0.00,,SKC,0.00,VWS V14.00,2013-02-28 06:42:00,
2013-02-28 01:43:00,41.5,29.5,29.83,North,360,12.0,15.0,62,0.00,,SKC,0.00,VWS V14.00,2013-02-28 06:43:00,
2013-02-28 01:44:00,41.5,29.5,29.83,North,360,10.0,15.0,62,0.00,,SKC,0.00,VWS V14.00,2013-02-28 06:44:00,
2013-02-28 01:45:00,41.5,29.5,29.83,North,360,10.0,16.0,62,0.00,,SKC,0.00,VWS V14.00,2013-02-28 06:45:00,
2013-02-28 01:46:00,41.5,29.5,29.83,North,360,11.0,16.0,62,0.00,,SKC,0.00,VWS V14.00,2013-02-28 06:46:00,
2013-02-28 01:47:00,41.5,29.5,29.83,North,360,6.0,16.0,62,0.00,,SKC,0.00,VWS V14.00,2013-02-28 06:47:00,
2013-02-28 01:48:00,41.5,29.5,29.83,North,360,9.0,16.0,62,0.00,,SKC,0.00,VWS V14.00,2013-02-28 06:48:00,
2013-02-28 01:49:00,41.5,29.5,29.83,North,360,6.0,16.0,62,0.00,,SKC,0.00,VWS V14.00,2013-02-28 06:49:00,
2013-02-28 01:50:00,41.5,29.5,29.83,North,360,6.0,16.0,62,0.00,,SKC,0.00,VWS V14.00,2013-02-28 06:50:00,
2013-02-28 01:51:00,41.5,29.5,29.83,North,360,6.0,6.0,62,0.00,,SKC,0.00,VWS V14.00,2013-02-28 06:51:00,
2013-02-28 01:52:00,41.3,29.3,29.83,North,360,6.0,10.0,62,0.00,,SKC,0.00,VWS V14.00,2013-02-28 06:52:00,
2013-02-28 01:53:00,41.3,29.3,29.83,North,360,17.0,17.0,62,0.00,,SKC,0.00,VWS V14.00,2013-02-28 06:53:00,
2013-02-28 01:54:00,41.3,29.3,29.83,North,360,6.0,17.0,62,0.00,,SKC,0.00,VWS V14.00,2013-02-28 06:54:00,
2013-02-28 01:55:00,41.3,29.3,29.83,North,360,6.0,17.0,62,0.00,,SKC,0.00,VWS V14.00,2013-02-28 06:55:00,
2013-02-28 01:56:00,41.3,29.3,29.83,North,360,9.0,17.0,62,0.00,,SKC,0.00,VWS V14.00,2013-02-28 06:56:00,
2013-02-28 01:57:00,41.3,29.3,29.83,North,360,12.0,17.0,62,0.00,,SKC,0.00,VWS V14.00,2013-02-28 06:57:00,
2013-02-28 01:58:00,41.3,29.3,29.83,North,360,13.0,17.0,62,0.00,,SKC,0.00,VWS V14.00,2013-02-28 06:58:00,
2013-02-28 01:59:00,41.3,29.3,29.83,North,360,14.0,17.0,62,0.00,,SKC,0.00,VWS V14.00,2013-02-28 06:59:00,
2013-02-28 02:00:00,41.3,29.3,29.83,North,360,14.0,17.0,62,0.00,,SKC,0.00,VWS V14.00,2013-02-28 07:00:00,
2013-02-28 02:01:00,41.2,29.2,29.83,North,360,6.0,13.0,62,0.00,,SKC,0.00,VWS V14.00,2013-02-28 07:01:00,
2013-02-28 02:02:00,41.2,29.2,29.83,North,360,7.0,14.0,62,0.00,,SKC,0.00,VWS V14.00,2013-02-28 07:02:00,
2013-02-28 02:03:00,41.2,29.2,29.83,North,360,9.0,14.0,62,0.00,,SKC,0.00,VWS V14.00,2013-02-28 07:03:00,
2013-02-28 02:04:00,41.2,29.2,29.83,North,360,6.0,14.0,62,0.00,,SKC,0.00,VWS V14.00,2013-02-28 07:04:00,
2013-02-28 02:05:00,41.2,29.6,29.83,North,360,12.0,14.0,63,0.00,,SKC,0.00,VWS V14.00,2013-02-28 07:05:00,
2013-02-28 02:06:00,41.2,29.2,29.83,North,360,11.0,14.0,62,0.00,,SKC,0.00,VWS V14.00,2013-02-28 07:06:00,
2013-02-28 02:07:00,41.2,29.2,29.83,North,360,8.0,14.0,62,0.00,,SKC,0.00,VWS V14.00,2013-02-28 07:07:00,
2013-02-28 02:08:00,41.2,29.2,29.83,North,360,14.0,16.0,62,0.00,,SKC,0.00,VWS V14.00,2013-02-28 07:08:00,
2013-02-28 02:09:00,41.2,29.2,29.83,North,360,9.0,16.0,62,0.00,,SKC,0.00,VWS V14.00,2013-02-28 07:09:00,
2013-02-28 02:10:00,41.2,29.2,29.83,North,360,9.0,16.0,62,0.00,,SKC,0.00,VWS V14.00,2013-02-28 07:10:00,
2013-02-28 02:11:00,41.1,29.1,29.83,North,360,4.0,10.0,62,0.00,,SKC,0.00,VWS V14.00,2013-02-28 07:11:00,
2013-02-28 02:12:00,41.1,29.5,29.83,North,360,7.0,10.0,63,0.00,,SKC,0.00,VWS V14.00,2013-02-28 07:12:00,
2013-02-28 02:13:00,41.1,29.5,29.83,North,360,7.0,15.0,63,0.00,,SKC,0.00,VWS V14.00,2013-02-28 07:13:00,
2013-02-28 02:14:00,41.1,29.5,29.83,North,360,11.0,15.0,63,0.00,,SKC,0.00,VWS V14.00,2013-02-28 07:14:00,
2013-02-28 02:15:00,41.1,29.5,29.83,North,360,10.0,15.0,63,0.00,,SKC,0.00,VWS V14.00,2013-02-28 07:15:00,
2013-02-28 02:16:00,41.1,29.5,29.83,North,360,7.0,15.0,63,0.00,,SKC,0.00,VWS V14.00,2013-02-28 07:16:00,
2013-02-28 02:17:00,40.9,29.3,29.83,North,360,9.0,15.0,63,0.00,,SKC,0.00,VWS V14.00,2013-02-28 07:17:00,
2013-02-28 02:18:00,40.9,29.3,29.83,North,360,6.0,15.0,63,0.00,,SKC,0.00,VWS V14.00,2013-02-28 07:18:00,
2013-02-28 02:19:00,40.9,29.3,29.83,North,360,11.0,15.0,63,0.00,,SKC,0.00,VWS V14.00,2013-02-28 07:19:00,
2013-02-28 02:20:00,40.9,29.3,29.83,North,360,7.0,15.0,63,0.00,,SKC,0.00,VWS V14.00,2013-02-28 07:20:00,
2013-02-28 02:21:00,40.9,29.3,29.83,North,360,7.0,12.0,63,0.00,,SKC,0.00,VWS V14.00,2013-02-28 07:21:00,
2013-02-28 02:22:00,40.8,29.2,29.83,North,360,11.0,16.0,63,0.00,,SKC,0.00,VWS V14.00,2013-02-28 07:22:00,
2013-02-28 02:23:00,40.8,29.2,29.83,North,360,13.0,16.0,63,0.00,,SKC,0.00,VWS V14.00,2013-02-28 07:23:00,
2013-02-28 02:24:00,40.8,29.2,29.83,North,360,12.0,16.0,63,0.00,,SKC,0.00,VWS V14.00,2013-02-28 07:24:00,
2013-02-28 02:25:00,40.8,29.2,29.83,North,360,9.0,16.0,63,0.00,,SKC,0.00,VWS V14.00,2013-02-28 07:25:00,
2013-02-28 02:26:00,40.8,29.2,29.83,North,360,8.0,16.0,63,0.00,,SKC,0.00,VWS V14.00,2013-02-28 07:26:00,
2013-02-28 02:27:00,40.6,29.0,29.83,North,360,10.0,17.0,63,0.00,,SKC,0.00,VWS V14.00,2013-02-28 07:27:00,
2013-02-28 02:28:00,40.6,28.6,29.83,North,360,11.0,17.0,62,0.00,,SKC,0.00,VWS V14.00,2013-02-28 07:28:00,
2013-02-28 02:29:00,40.6,28.6,29.83,North,360,11.0,17.0,62,0.00,,SKC,0.00,VWS V14.00,2013-02-28 07:29:00,
2013-02-28 02:30:00,40.6,29.0,29.83,North,360,14.0,17.0,63,0.00,,SKC,0.00,VWS V14.00,2013-02-28 07:30:00,
2013-02-28 02:31:00,40.6,28.6,29.83,North,360,11.0,16.0,62,0.00,,SKC,0.00,VWS V14.00,2013-02-28 07:31:00,
2013-02-28 02:32:00,40.6,28.6,29.83,North,360,11.0,18.0,62,0.00,,SKC,0.00,VWS V14.00,2013-02-28 07:32:00,
2013-02-28 02:33:00,40.5,28.5,29.83,North,360,11.0,18.0,62,0.00,,SKC,0.00,VWS V14.00,2013-02-28 07:33:00,
2013-02-28 02:34:00,40.5,28.5,29.83,North,360,10.0,18.0,62,0.00,,SKC,0.00,VWS V14.00,2013-02-28 07:34:00,
2013-02-28 02:35:00,40.5,28.5,29.83,North,360,15.0,18.0,62,0.00,,SKC,0.00,VWS V14.00,2013-02-28 07:35:00,
2013-02-28 02:36:00,40.5,28.5,29.83,North,360,6.0,19.0,62,0.00,,SKC,0.00,VWS V14.00,2013-02-28 07:36:00,
2013-02-28 02:37:00,40.5,28.9,29.83,North,360,13.0,19.0,63,0.00,,SKC,0.00,VWS V14.00,2013-02-28 07:37:00,
2013-02-28 02:38:00,40.3,28.7,29.83,North,360,5.0,19.0,63,0.00,,SKC,0.00,VWS V14.00,2013-02-28 07:38:00,
2013-02-28 02:39:00,40.3,28.7,29.83,North,360,12.0,19.0,63,0.00,,SKC,0.00,VWS V14.00,2013-02-28 07:39:00,
2013-02-28 02:40:00,40.3,28.7,29.83,North,360,7.0,19.0,63,0.00,,SKC,0.00,VWS V14.00,2013-02-28 07:40:00,
2013-02-28 02:41:00,40.3,28.7,29.83,North,360,7.0,13.0,63,0.00,,SKC,0.00,VWS V14.00,2013-02-28 07:41:00,
2013-02-28 02:42:00,40.3,28.7,29.83,North,360,12.0,13.0,63,0.00,,SKC,0.00,VWS V14.00,2013-02-28 07:42:00,
2013-02-28 02:43:00,40.3,28.7,29.83,North,360,9.0,13.0,63,0.00,,SKC,0.00,VWS V14.00,2013-02-28 07:43:00,
2013-02-28 02:44:00,40.2,28.6,29.83,North,360,12.0,13.0,63,0.00,,SKC,0.00,VWS V14.00,2013-02-28 07:44:00,
2013-02-28 02:45:00,40.2,28.6,29.83,North,360,10.0,15.0,63,0.00,,SKC,0.00,VWS V14.00,2013-02-28 07:45:00,
2013-02-28 02:46:00,40.2,28.6,29.83,North,360,11.0,15.0,63,0.00,,SKC,0.00,VWS V14.00,2013-02-28 07:46:00,
2013-02-28 02:47:00,40.2,28.6,29.83,North,360,13.0,15.0,63,0.00,,SKC,0.00,VWS V14.00,2013-02-28 07:47:00,
2013-02-28 02:48:00,40.2,28.6,29.83,North,360,10.0,15.0,63,0.00,,SKC,0.00,VWS V14.00,2013-02-28 07:48:00,
2013-02-28 02:49:00,40.2,28.6,29.83,North,360,9.0,15.0,63,0.00,,SKC,0.00,VWS V14.00,2013-02-28 07:49:00,
2013-02-28 02:50:00,40.2,28.6,29.83,North,360,11.0,11.0,63,0.00,,SKC,0.00,VWS V14.00,2013-02-28 07:50:00,
2013-02-28 02:51:00,40.2,28.6,29.83,North,360,13.0,15.0,63,0.00,,SKC,0.00,VWS V14.00,2013-02-28 07:51:00,
2013-02-28 02:52:00,40.2,28.6,29.83,North,360,11.0,15.0,63,0.00,,SKC,0.00,VWS V14.00,2013-02-28 07:52:00,
2013-02-28 02:53:00,40.2,28.6,29.83,North,360,9.0,15.0,63,0.00,,SKC,0.00,VWS V14.00,2013-02-28 07:53:00,
2013-02-28 02:54:00,40.2,28.6,29.83,North,360,7.0,15.0,63,0.00,,SKC,0.00,VWS V14.00,2013-02-28 07:54:00,
2013-02-28 02:55:00,40.2,28.6,29.83,North,360,10.0,15.0,63,0.00,,SKC,0.00,VWS V14.00,2013-02-28 07:55:00,
2013-02-28 02:56:00,40.2,28.6,29.83,North,360,13.0,15.0,63,0.00,,SKC,0.00,VWS V14.00,2013-02-28 07:56:00,
2013-02-28 02:57:00,40.2,28.6,29.83,North,360,7.0,15.0,63,0.00,,SKC,0.00,VWS V14.00,2013-02-28 07:57:00,
2013-02-28 02:58:00,40.2,28.6,29.83,North,360,5.0,15.0,63,0.00,,SKC,0.00,VWS V14.00,2013-02-28 07:58:00,
2013-02-28 02:59:00,40.2,28.6,29.83,North,360,13.0,15.0,63,0.00,,SKC,0.00,VWS V14.00,2013-02-28 07:59:00,
2013-02-28 03:00:00,40.2,28.6,29.83,North,360,13.0,15.0,63,0.00,,SKC,0.00,VWS V14.00,2013-02-28 08:00:00,
2013-02-28 03:01:00,40.2,28.6,29.83,North,360,6.0,10.0,63,0.00,,SKC,0.00,VWS V14.00,2013-02-28 08:01:00,
2013-02-28 03:02:00,40.2,28.6,29.83,North,360,5.0,10.0,63,0.00,,SKC,0.00,VWS V14.00,2013-02-28 08:02:00,
2013-02-28 03:03:00,40.2,28.6,29.83,North,360,6.0,10.0,63,0.00,,SKC,0.00,VWS V14.00,2013-02-28 08:03:00,
2013-02-28 03:04:00,40.2,28.6,29.83,North,360,10.0,12.0,63,0.00,,SKC,0.00,VWS V14.00,2013-02-28 08:04:00,
2013-02-28 03:05:00,40.2,28.6,29.83,North,360,14.0,14.0,63,0.00,,SKC,0.00,VWS V14.00,2013-02-28 08:05:00,
2013-02-28 03:06:00,40.1,28.5,29.83,North,360,15.0,18.0,63,0.00,,SKC,0.00,VWS V14.00,2013-02-28 08:06:00,
2013-02-28 03:07:00,40.1,28.5,29.83,North,360,9.0,18.0,63,0.00,,SKC,0.00,VWS V14.00,2013-02-28 08:07:00,
2013-02-28 03:08:00,40.1,28.5,29.83,North,360,13.0,18.0,63,0.00,,SKC,0.00,VWS V14.00,2013-02-28 08:08:00,
2013-02-28 03:09:00,40.1,28.5,29.83,North,360,8.0,18.0,63,0.00,,SKC,0.00,VWS V14.00,2013-02-28 08:09:00,
2013-02-28 03:10:00,40.1,28.5,29.83,North,360,9.0,18.0,63,0.00,,SKC,0.00,VWS V14.00,2013-02-28 08:10:00,
2013-02-28 03:11:00,40.1,28.5,29.83,North,360,8.0,9.0,63,0.00,,SKC,0.00,VWS V14.00,2013-02-28 08:11:00,
2013-02-28 03:12:00,40.1,28.5,29.83,North,360,12.0,20.0,63,0.00,,SKC,0.00,VWS V14.00,2013-02-28 08:12:00,
2013-02-28 03:13:00,40.1,28.5,29.83,North,360,13.0,20.0,63,0.00,,SKC,0.00,VWS V14.00,2013-02-28 08:13:00,
2013-02-28 03:14:00,40.1,28.5,29.83,North,360,12.0,20.0,63,0.00,,SKC,0.00,VWS V14.00,2013-02-28 08:14:00,
2013-02-28 03:15:00,40.1,28.5,29.82,North,360,11.0,20.0,63,0.00,,SKC,0.00,VWS V14.00,2013-02-28 08:15:00,
2013-02-28 03:16:00,40.1,28.5,29.82,North,360,10.0,20.0,63,0.00,,SKC,0.00,VWS V14.00,2013-02-28 08:16:00,
2013-02-28 03:17:00,40.1,28.5,29.82,North,360,9.0,20.0,63,0.00,,SKC,0.00,VWS V14.00,2013-02-28 08:17:00,
2013-02-28 03:18:00,40.1,28.5,29.82,North,360,9.0,20.0,63,0.00,,SKC,0.00,VWS V14.00,2013-02-28 08:18:00,
2013-02-28 03:19:00,40.1,28.5,29.82,North,360,7.0,20.0,63,0.00,,SKC,0.00,VWS V14.00,2013-02-28 08:19:00,
2013-02-28 03:20:00,40.1,28.9,29.82,North,360,7.0,20.0,64,0.00,,SKC,0.00,VWS V14.00,2013-02-28 08:20:00,
2013-02-28 03:21:00,40.1,28.9,29.82,North,360,7.0,13.0,64,0.00,,SKC,0.00,VWS V14.00,2013-02-28 08:21:00,
2013-02-28 03:22:00,40.1,28.5,29.82,North,360,5.0,13.0,63,0.00,,SKC,0.00,VWS V14.00,2013-02-28 08:22:00,
2013-02-28 03:23:00,39.9,28.7,29.82,North,360,11.0,14.0,64,0.00,,SKC,0.00,VWS V14.00,2013-02-28 08:23:00,
2013-02-28 03:24:00,39.9,28.7,29.82,North,360,9.0,14.0,64,0.00,,SKC,0.00,VWS V14.00,2013-02-28 08:24:00,
2013-02-28 03:25:00,39.9,28.7,29.82,North,360,18.0,18.0,64,0.00,,SKC,0.00,VWS V14.00,2013-02-28 08:25:00,
2013-02-28 03:26:00,39.9,28.7,29.82,North,360,18.0,18.0,64,0.00,,SKC,0.00,VWS V14.00,2013-02-28 08:26:00,
2013-02-28 03:27:00,39.9,28.7,29.82,North,360,6.0,18.0,64,0.00,,SKC,0.00,VWS V14.00,2013-02-28 08:27:00,
2013-02-28 03:28:00,39.9,28.7,29.82,North,360,12.0,18.0,64,0.00,,SKC,0.00,VWS V14.00,2013-02-28 08:28:00,
2013-02-28 03:29:00,39.8,28.6,29.82,North,360,9.0,18.0,64,0.00,,SKC,0.00,VWS V14.00,2013-02-28 08:29:00,
2013-02-28 03:30:00,39.8,28.6,29.82,North,360,7.0,18.0,64,0.00,,SKC,0.00,VWS V14.00,2013-02-28 08:30:00,
2013-02-28 03:31:00,39.8,28.6,29.82,North,360,5.0,11.0,64,0.00,,SKC,0.00,VWS V14.00,2013-02-28 08:31:00,
2013-02-28 03:32:00,39.8,28.6,29.82,North,360,5.0,11.0,64,0.00,,SKC,0.00,VWS V14.00,2013-02-28 08:32:00,
2013-02-28 03:33:00,39.8,28.6,29.82,North,360,5.0,11.0,64,0.00,,SKC,0.00,VWS V14.00,2013-02-28 08:33:00,
2013-02-28 03:34:00,39.6,28.4,29.82,North,360,4.0,11.0,64,0.00,,SKC,0.00,VWS V14.00,2013-02-28 08:34:00,
2013-02-28 03:35:00,39.6,28.4,29.82,North,360,8.0,11.0,64,0.00,,SKC,0.00,VWS V14.00,2013-02-28 08:35:00,
2013-02-28 03:36:00,39.6,28.4,29.82,North,360,6.0,11.0,64,0.00,,SKC,0.00,VWS V14.00,2013-02-28 08:36:00,
2013-02-28 03:37:00,39.6,28.4,29.82,North,360,6.0,11.0,64,0.00,,SKC,0.00,VWS V14.00,2013-02-28 08:37:00,
2013-02-28 03:38:00,39.5,28.4,29.82,North,360,11.0,15.0,64,0.00,,SKC,0.00,VWS V14.00,2013-02-28 08:38:00,
2013-02-28 03:39:00,39.5,27.6,29.82,North,360,13.0,16.0,62,0.00,,SKC,0.00,VWS V14.00,2013-02-28 08:39:00,
2013-02-28 03:40:00,39.5,27.6,29.82,North,360,14.0,19.0,62,0.00,,SKC,0.00,VWS V14.00,2013-02-28 08:40:00,
2013-02-28 03:41:00,39.3,27.0,29.82,North,360,13.0,16.0,61,0.00,,SKC,0.00,VWS V14.00,2013-02-28 08:41:00,
2013-02-28 03:42:00,39.3,26.6,29.82,North,360,6.0,16.0,60,0.00,,SKC,0.00,VWS V14.00,2013-02-28 08:42:00,
2013-02-28 03:43:00,39.3,26.6,29.82,North,360,13.0,16.0,60,0.00,,SKC,0.00,VWS V14.00,2013-02-28 08:43:00,
2013-02-28 03:44:00,39.3,26.6,29.82,North,360,7.0,19.0,60,0.00,,SKC,0.00,VWS V14.00,2013-02-28 08:44:00,
2013-02-28 03:45:00,39.2,26.5,29.83,North,360,11.0,19.0,60,0.00,,SKC,0.00,VWS V14.00,2013-02-28 08:45:00,
2013-02-28 03:46:00,39.2,26.1,29.83,North,360,14.0,19.0,59,0.00,,SKC,0.00,VWS V14.00,2013-02-28 08:46:00,
2013-02-28 03:47:00,39.2,25.7,29.83,North,360,9.0,19.0,58,0.00,,SKC,0.00,VWS V14.00,2013-02-28 08:47:00,
2013-02-28 03:48:00,39.1,25.6,29.83,North,360,9.0,19.0,58,0.00,,SKC,0.00,VWS V14.00,2013-02-28 08:48:00,
2013-02-28 03:49:00,39.1,25.6,29.83,North,360,9.0,19.0,58,0.00,,SKC,0.00,VWS V14.00,2013-02-28 08:49:00,
2013-02-28 03:50:00,39.1,25.6,29.83,North,360,10.0,19.0,58,0.00,,SKC,0.00,VWS V14.00,2013-02-28 08:50:00,
2013-02-28 03:51:00,39.1,25.6,29.83,North,360,12.0,13.0,58,0.00,,SKC,0.00,VWS V14.00,2013-02-28 08:51:00,
2013-02-28 03:52:00,38.9,25.4,29.83,North,360,18.0,18.0,58,0.00,,SKC,0.00,VWS V14.00,2013-02-28 08:52:00,
2013-02-28 03:53:00,38.9,25.4,29.83,North,10,9.0,18.0,58,0.00,,SKC,0.00,VWS V14.00,2013-02-28 08:53:00,
2013-02-28 03:54:00,38.9,25.4,29.83,North,360,12.0,18.0,58,0.00,,SKC,0.00,VWS V14.00,2013-02-28 08:54:00,
2013-02-28 03:55:00,38.9,25.4,29.83,North,360,7.0,18.0,58,0.00,,SKC,0.00,VWS V14.00,2013-02-28 08:55:00,
2013-02-28 03:56:00,38.8,25.3,29.83,North,360,11.0,18.0,58,0.00,,SKC,0.00,VWS V14.00,2013-02-28 08:56:00,
2013-02-28 03:57:00,38.8,24.9,29.83,North,360,14.0,18.0,57,0.00,,SKC,0.00,VWS V14.00,2013-02-28 08:57:00,
2013-02-28 03:58:00,38.8,24.9,29.83,North,360,18.0,19.0,57,0.00,,SKC,0.00,VWS V14.00,2013-02-28 08:58:00,
2013-02-28 03:59:00,38.8,24.5,29.83,North,360,9.0,22.0,56,0.00,,SKC,0.00,VWS V14.00,2013-02-28 08:59:00,
2013-02-28 04:00:00,38.8,24.5,29.83,North,360,12.0,22.0,56,0.00,,SKC,0.00,VWS V14.00,2013-02-28 09:00:00,
2013-02-28 04:01:00,38.8,24.5,29.83,North,360,16.0,16.0,56,0.00,,SKC,0.00,VWS V14.00,2013-02-28 09:01:00,
2013-02-28 04:02:00,38.8,24.5,29.83,North,360,12.0,16.0,56,0.00,,SKC,0.00,VWS V14.00,2013-02-28 09:02:00,
2013-02-28 04:03:00,38.8,24.5,29.83,North,360,10.0,16.0,56,0.00,,SKC,0.00,VWS V14.00,2013-02-28 09:03:00,
2013-02-28 04:04:00,38.8,24.5,29.83,North,360,7.0,16.0,56,0.00,,SKC,0.00,VWS V14.00,2013-02-28 09:04:00,
2013-02-28 04:05:00,38.6,24.7,29.83,North,360,10.0,16.0,57,0.00,,SKC,0.00,VWS V14.00,2013-02-28 09:05:00,
2013-02-28 04:06:00,38.6,24.7,29.83,North,360,7.0,16.0,57,0.00,,SKC,0.00,VWS V14.00,2013-02-28 09:06:00,
2013-02-28 04:07:00,38.6,24.7,29.83,North,360,8.0,16.0,57,0.00,,SKC,0.00,VWS V14.00,2013-02-28 09:07:00,
2013-02-28 04:08:00,38.6,24.7,29.83,North,360,15.0,16.0,57,0.00,,SKC,0.00,VWS V14.00,2013-02-28 09:08:00,
2013-02-28 04:09:00,38.6,24.7,29.83,North,360,7.0,16.0,57,0.00,,SKC,0.00,VWS V14.00,2013-02-28 09:09:00,
2013-02-28 04:10:00,38.5,24.6,29.83,North,360,6.0,16.0,57,0.00,,SKC,0.00,VWS V14.00,2013-02-28 09:10:00,
2013-02-28 04:11:00,38.5,24.6,29.83,North,360,11.0,12.0,57,0.00,,SKC,0.00,VWS V14.00,2013-02-28 09:11:00,
2013-02-28 04:12:00,38.5,24.6,29.83,North,360,7.0,12.0,57,0.00,,SKC,0.00,VWS V14.00,2013-02-28 09:12:00,
2013-02-28 04:13:00,38.5,24.6,29.83,North,360,10.0,13.0,57,0.00,,SKC,0.00,VWS V14.00,2013-02-28 09:13:00,
2013-02-28 04:14:00,38.5,24.6,29.83,North,360,11.0,13.0,57,0.00,,SKC,0.00,VWS V14.00,2013-02-28 09:14:00,
2013-02-28 04:15:00,38.5,24.6,29.83,North,360,10.0,13.0,57,0.00,,SKC,0.00,VWS V14.00,2013-02-28 09:15:00,
2013-02-28 04:16:00,38.3,24.8,29.83,North,360,6.0,13.0,58,0.00,,SKC,0.00,VWS V14.00,2013-02-28 09:16:00,
2013-02-28 04:17:00,38.3,24.8,29.83,North,360,9.0,13.0,58,0.00,,SKC,0.00,VWS V14.00,2013-02-28 09:17:00,
2013-02-28 04:18:00,38.3,24.4,29.83,North,360,11.0,14.0,57,0.00,,SKC,0.00,VWS V14.00,2013-02-28 09:18:00,
2013-02-28 04:19:00,38.3,24.4,29.83,North,360,11.0,14.0,57,0.00,,SKC,0.00,VWS V14.00,2013-02-28 09:19:00,
2013-02-28 04:20:00,38.3,24.4,29.83,North,360,2.0,14.0,57,0.00,,SKC,0.00,VWS V14.00,2013-02-28 09:20:00,
2013-02-28 04:21:00,38.3,24.8,29.83,North,360,12.0,14.0,58,0.00,,SKC,0.00,VWS V14.00,2013-02-28 09:21:00,
2013-02-28 04:22:00,38.2,24.7,29.83,North,360,8.0,14.0,58,0.00,,SKC,0.00,VWS V14.00,2013-02-28 09:22:00,
2013-02-28 04:23:00,38.2,24.7,29.83,North,360,9.0,14.0,58,0.00,,SKC,0.00,VWS V14.00,2013-02-28 09:23:00,
2013-02-28 04:24:00,38.2,24.7,29.83,North,360,7.0,14.0,58,0.00,,SKC,0.00,VWS V14.00,2013-02-28 09:24:00,
2013-02-28 04:25:00,38.2,24.7,29.83,North,360,10.0,14.0,58,0.00,,SKC,0.00,VWS V14.00,2013-02-28 09:25:00,
2013-02-28 04:26:00,38.0,24.5,29.83,North,360,6.0,14.0,58,0.00,,SKC,0.00,VWS V14.00,2013-02-28 09:26:00,
2013-02-28 04:27:00,38.0,24.5,29.83,North,360,6.0,14.0,58,0.00,,SKC,0.00,VWS V14.00,2013-02-28 09:27:00,
2013-02-28 04:28:00,38.0,24.5,29.83,North,360,9.0,14.0,58,0.00,,SKC,0.00,VWS V14.00,2013-02-28 09:28:00,
2013-02-28 04:29:00,38.0,24.5,29.83,North,360,5.0,14.0,58,0.00,,SKC,0.00,VWS V14.00,2013-02-28 09:29:00,
2013-02-28 04:30:00,37.9,24.5,29.83,North,360,12.0,14.0,58,0.00,,SKC,0.00,VWS V14.00,2013-02-28 09:30:00,
2013-02-28 04:40:00,36.2,24.5,29.84,North,360,4.0,5.0,62,0.00,,SKC,0.00,VWS V14.00,2013-02-28 09:40:00,
2013-02-28 04:50:00,36.2,24.8,29.83,North,360,2.0,6.0,63,0.00,,SKC,0.00,VWS V14.00,2013-02-28 09:50:00,
2013-02-28 04:55:00,37.9,24.5,29.83,North,360,12.0,14.0,58,0.00,,SKC,0.00,VWS V14.00,2013-02-28 09:55:00,
2013-02-28 04:56:00,37.2,24.2,29.83,North,360,10.0,12.0,59,0.00,,SKC,0.00,VWS V14.00,2013-02-28 09:56:00,
2013-02-28 04:57:00,37.2,24.2,29.83,North,360,5.0,12.0,59,0.00,,SKC,0.00,VWS V14.00,2013-02-28 09:57:00,
2013-02-28 04:58:00,37.2,24.2,29.83,North,360,5.0,12.0,59,0.00,,SKC,0.00,VWS V14.00,2013-02-28 09:58:00,
2013-02-28 04:59:00,37.9,24.5,29.83,North,360,12.0,14.0,58,0.00,,SKC,0.00,VWS V14.00,2013-02-28 09:59:00,
2013-02-28 05:00:00,37.2,24.2,29.83,North,360,9.0,12.0,59,0.00,,SKC,0.00,VWS V14.00,2013-02-28 10:00:00,
2013-02-28 05:01:00,37.2,24.2,29.83,North,360,4.0,9.0,59,0.00,,SKC,0.00,VWS V14.00,2013-02-28 10:01:00,
2013-02-28 05:02:00,37.0,24.4,29.83,North,360,4.0,9.0,60,0.00,,SKC,0.00,VWS V14.00,2013-02-28 10:02:00,
2013-02-28 05:03:00,37.0,24.4,29.83,North,360,6.0,9.0,60,0.00,,SKC,0.00,VWS V14.00,2013-02-28 10:03:00,
2013-02-28 05:04:00,37.9,24.5,29.83,North,360,12.0,14.0,58,0.00,,SKC,0.00,VWS V14.00,2013-02-28 10:04:00,
2013-02-28 05:05:00,37.0,24.4,29.83,North,360,3.0,9.0,60,0.00,,SKC,0.00,VWS V14.00,2013-02-28 10:05:00,
2013-02-28 05:06:00,37.0,24.4,29.83,North,360,5.0,9.0,60,0.00,,SKC,0.00,VWS V14.00,2013-02-28 10:06:00,
2013-02-28 05:07:00,37.0,24.4,29.83,North,360,5.0,9.0,60,0.00,,SKC,0.00,VWS V14.00,2013-02-28 10:07:00,
2013-02-28 05:08:00,36.9,24.3,29.83,North,360,3.0,9.0,60,0.00,,SKC,0.00,VWS V14.00,2013-02-28 10:08:00,
2013-02-28 05:09:00,36.9,24.3,29.83,North,360,0.0,9.0,60,0.00,,SKC,0.00,VWS V14.00,2013-02-28 10:09:00,
2013-02-28 05:10:00,36.9,24.3,29.83,North,360,0.0,9.0,60,0.00,,SKC,0.00,VWS V14.00,2013-02-28 10:10:00,
2013-02-28 05:11:00,37.9,24.5,29.83,North,360,12.0,14.0,58,0.00,,SKC,0.00,VWS V14.00,2013-02-28 10:11:00,
2013-02-28 05:12:00,36.9,24.3,29.83,North,360,0.0,0.0,60,0.00,,SKC,0.00,VWS V14.00,2013-02-28 10:12:00,
2013-02-28 05:13:00,36.9,24.3,29.83,North,360,0.0,0.0,60,0.00,,SKC,0.00,VWS V14.00,2013-02-28 10:13:00,
2013-02-28 05:14:00,36.8,24.2,29.83,North,360,0.0,1.0,60,0.00,,SKC,0.00,VWS V14.00,2013-02-28 10:14:00,
2013-02-28 05:15:00,36.8,24.2,29.83,North,360,2.0,2.0,60,0.00,,SKC,0.00,VWS V14.00,2013-02-28 10:15:00,
2013-02-28 05:16:00,37.9,24.5,29.83,North,360,12.0,14.0,58,0.00,,SKC,0.00,VWS V14.00,2013-02-28 10:16:00,
2013-02-28 05:17:00,36.8,24.2,29.83,North,360,0.0,3.0,60,0.00,,SKC,0.00,VWS V14.00,2013-02-28 10:17:00,
2013-02-28 05:18:00,36.6,24.0,29.83,North,360,0.0,3.0,60,0.00,,SKC,0.00,VWS V14.00,2013-02-28 10:18:00,
2013-02-28 05:19:00,36.6,24.4,29.83,North,360,0.0,4.0,61,0.00,,SKC,0.00,VWS V14.00,2013-02-28 10:19:00,
2013-02-28 05:20:00,36.6,24.4,29.83,North,360,0.0,4.0,61,0.00,,SKC,0.00,VWS V14.00,2013-02-28 10:20:00,
2013-02-28 05:21:00,36.6,24.4,29.83,North,360,4.0,6.0,61,0.00,,SKC,0.00,VWS V14.00,2013-02-28 10:21:00,
2013-02-28 05:22:00,36.5,24.3,29.83,North,360,2.0,6.0,61,0.00,,SKC,0.00,VWS V14.00,2013-02-28 10:22:00,
2013-02-28 05:23:00,36.5,24.3,29.83,North,360,1.0,6.0,61,0.00,,SKC,0.00,VWS V14.00,2013-02-28 10:23:00,
2013-02-28 05:24:00,36.5,24.3,29.83,North,360,4.0,6.0,61,0.00,,SKC,0.00,VWS V14.00,2013-02-28 10:24:00,
2013-02-28 05:25:00,36.5,24.3,29.83,North,360,0.0,6.0,61,0.00,,SKC,0.00,VWS V14.00,2013-02-28 10:25:00,
2013-02-28 05:26:00,36.5,24.3,29.83,North,360,2.0,6.0,61,0.00,,SKC,0.00,VWS V14.00,2013-02-28 10:26:00,
2013-02-28 05:27:00,36.5,24.7,29.83,North,360,0.0,6.0,62,0.00,,SKC,0.00,VWS V14.00,2013-02-28 10:27:00,
2013-02-28 05:28:00,36.3,24.5,29.83,North,360,0.0,6.0,62,0.00,,SKC,0.00,VWS V14.00,2013-02-28 10:28:00,
2013-02-28 05:29:00,36.3,24.5,29.83,North,360,4.0,6.0,62,0.00,,SKC,0.00,VWS V14.00,2013-02-28 10:29:00,
2013-02-28 05:30:00,36.3,24.5,29.84,North,360,0.0,6.0,62,0.00,,SKC,0.00,VWS V14.00,2013-02-28 10:30:00,
2013-02-28 05:31:00,36.3,24.5,29.84,North,360,3.0,5.0,62,0.00,,SKC,0.00,VWS V14.00,2013-02-28 10:31:00,
2013-02-28 05:32:00,36.3,24.5,29.84,North,360,3.0,5.0,62,0.00,,SKC,0.00,VWS V14.00,2013-02-28 10:32:00,
2013-02-28 05:33:00,36.3,24.5,29.84,North,360,3.0,5.0,62,0.00,,SKC,0.00,VWS V14.00,2013-02-28 10:33:00,
2013-02-28 05:34:00,36.3,24.5,29.84,North,360,3.0,5.0,62,0.00,,SKC,0.00,VWS V14.00,2013-02-28 10:34:00,
2013-02-28 05:35:00,36.3,24.5,29.84,North,360,2.0,5.0,62,0.00,,SKC,0.00,VWS V14.00,2013-02-28 10:35:00,
2013-02-28 05:36:00,36.3,24.5,29.84,North,360,1.0,5.0,62,0.00,,SKC,0.00,VWS V14.00,2013-02-28 10:36:00,
2013-02-28 05:37:00,36.3,24.5,29.84,North,360,0.0,5.0,62,0.00,,SKC,0.00,VWS V14.00,2013-02-28 10:37:00,
2013-02-28 05:38:00,36.3,24.5,29.84,North,360,5.0,5.0,62,0.00,,SKC,0.00,VWS V14.00,2013-02-28 10:38:00,
2013-02-28 05:39:00,36.2,24.5,29.84,North,360,4.0,5.0,62,0.00,,SKC,0.00,VWS V14.00,2013-02-28 10:39:00,
2013-02-28 05:40:00,36.2,24.5,29.84,North,360,4.0,5.0,62,0.00,,SKC,0.00,VWS V14.00,2013-02-28 10:40:00,
2013-02-28 05:41:00,36.2,24.5,29.84,North,360,0.0,4.0,62,0.00,,SKC,0.00,VWS V14.00,2013-02-28 10:41:00,
2013-02-28 05:42:00,36.2,24.5,29.84,North,360,0.0,4.0,62,0.00,,SKC,0.00,VWS V14.00,2013-02-28 10:42:00,
2013-02-28 05:43:00,36.2,24.5,29.84,North,360,0.0,4.0,62,0.00,,SKC,0.00,VWS V14.00,2013-02-28 10:43:00,
2013-02-28 05:44:00,36.2,24.5,29.84,North,360,2.0,4.0,62,0.00,,SKC,0.00,VWS V14.00,2013-02-28 10:44:00,
2013-02-28 05:45:00,36.2,24.5,29.83,North,360,3.0,6.0,62,0.00,,SKC,0.00,VWS V14.00,2013-02-28 10:45:00,
2013-02-28 05:46:00,36.2,24.8,29.83,North,360,0.0,6.0,63,0.00,,SKC,0.00,VWS V14.00,2013-02-28 10:46:00,
2013-02-28 05:47:00,36.2,24.8,29.83,North,360,0.0,6.0,63,0.00,,SKC,0.00,VWS V14.00,2013-02-28 10:47:00,
2013-02-28 05:48:00,36.2,24.8,29.83,North,360,0.0,6.0,63,0.00,,SKC,0.00,VWS V14.00,2013-02-28 10:48:00,
2013-02-28 05:49:00,36.2,24.8,29.83,North,360,0.0,6.0,63,0.00,,SKC,0.00,VWS V14.00,2013-02-28 10:49:00,
2013-02-28 05:50:00,36.2,24.8,29.83,North,360,2.0,6.0,63,0.00,,SKC,0.00,VWS V14.00,2013-02-28 10:50:00,
2013-02-28 05:51:00,36.2,24.8,29.83,North,360,0.0,2.0,63,0.00,,SKC,0.00,VWS V14.00,2013-02-28 10:51:00,
2013-02-28 05:52:00,36.2,24.8,29.83,North,360,4.0,4.0,63,0.00,,SKC,0.00,VWS V14.00,2013-02-28 10:52:00,
2013-02-28 05:53:00,36.2,24.8,29.83,North,360,2.0,4.0,63,0.00,,SKC,0.00,VWS V14.00,2013-02-28 10:53:00,
2013-02-28 05:54:00,36.2,24.8,29.83,North,360,4.0,5.0,63,0.00,,SKC,0.00,VWS V14.00,2013-02-28 10:54:00,
2013-02-28 05:55:00,36.2,25.2,29.83,North,360,3.0,5.0,64,0.00,,SKC,0.00,VWS V14.00,2013-02-28 10:55:00,
2013-02-28 05:56:00,36.2,24.8,29.83,North,360,2.0,5.0,63,0.00,,SKC,0.00,VWS V14.00,2013-02-28 10:56:00,
2013-02-28 05:57:00,36.2,24.8,29.83,North,360,3.0,5.0,63,0.00,,SKC,0.00,VWS V14.00,2013-02-28 10:57:00,
2013-02-28 05:58:00,36.2,25.2,29.83,North,360,3.0,5.0,64,0.00,,SKC,0.00,VWS V14.00,2013-02-28 10:58:00,
2013-02-28 06:00:00,36.3,25.3,29.83,North,360,0.0,5.0,64,0.00,,SKC,0.00,VWS V14.00,2013-02-28 11:00:00,
2013-02-28 06:01:00,36.3,25.3,29.83,North,360,0.0,0.0,64,0.00,,SKC,0.00,VWS V14.00,2013-02-28 11:01:00,
2013-02-28 06:02:00,36.3,25.3,29.83,North,360,0.0,1.0,64,0.00,,SKC,0.00,VWS V14.00,2013-02-28 11:02:00,
2013-02-28 06:03:00,36.3,25.3,29.83,North,360,0.0,1.0,64,0.00,,SKC,0.00,VWS V14.00,2013-02-28 11:03:00,
2013-02-28 06:04:00,36.3,25.3,29.83,North,360,0.0,1.0,64,0.00,,SKC,0.00,VWS V14.00,2013-02-28 11:04:00,
2013-02-28 06:05:00,36.3,25.3,29.83,North,360,0.0,2.0,64,0.00,,SKC,0.00,VWS V14.00,2013-02-28 11:05:00,
2013-02-28 06:06:00,36.3,25.3,29.83,North,360,3.0,5.0,64,0.00,,SKC,0.00,VWS V14.00,2013-02-28 11:06:00,
2013-02-28 06:07:00,36.3,25.3,29.83,North,360,0.0,5.0,64,0.00,,SKC,0.00,VWS V14.00,2013-02-28 11:07:00,
2013-02-28 06:08:00,36.3,25.7,29.83,North,360,0.0,5.0,65,0.00,,SKC,0.00,VWS V14.00,2013-02-28 11:08:00,
2013-02-28 06:09:00,36.3,25.3,29.83,North,360,0.0,5.0,64,0.00,,SKC,0.00,VWS V14.00,2013-02-28 11:09:00,
2013-02-28 06:10:00,36.3,25.3,29.83,North,360,4.0,5.0,64,0.00,,SKC,0.00,VWS V14.00,2013-02-28 11:10:00,
2013-02-28 06:11:00,36.3,25.3,29.83,North,360,0.0,5.0,64,0.00,,SKC,0.00,VWS V14.00,2013-02-28 11:11:00,
2013-02-28 06:12:00,36.3,25.3,29.83,North,360,2.0,5.0,64,0.00,,SKC,0.00,VWS V14.00,2013-02-28 11:12:00,
2013-02-28 06:13:00,36.3,25.3,29.83,North,360,1.0,5.0,64,0.00,,SKC,0.00,VWS V14.00,2013-02-28 11:13:00,
2013-02-28 06:14:00,36.3,25.3,29.83,North,360,1.0,5.0,64,0.00,,SKC,0.00,VWS V14.00,2013-02-28 11:14:00,
2013-02-28 06:15:00,36.5,25.5,29.84,North,360,2.0,5.0,64,0.00,,SKC,0.00,VWS V14.00,2013-02-28 11:15:00,
2013-02-28 06:16:00,36.5,25.9,29.84,North,360,0.0,5.0,65,0.00,,SKC,0.00,VWS V14.00,2013-02-28 11:16:00,
2013-02-28 06:17:00,36.5,25.5,29.84,North,360,0.0,5.0,64,0.00,,SKC,0.00,VWS V14.00,2013-02-28 11:17:00,
2013-02-28 06:18:00,36.5,25.5,29.84,North,360,0.0,5.0,64,0.00,,SKC,0.00,VWS V14.00,2013-02-28 11:18:00,
2013-02-28 06:19:00,36.5,25.9,29.84,North,360,0.0,5.0,65,0.00,,SKC,0.00,VWS V14.00,2013-02-28 11:19:00,
2013-02-28 06:20:00,36.5,25.5,29.84,North,360,4.0,5.0,64,0.00,,SKC,0.00,VWS V14.00,2013-02-28 11:20:00,
2013-02-28 06:21:00,36.5,25.5,29.84,North,360,2.0,5.0,64,0.00,,SKC,0.00,VWS V14.00,2013-02-28 11:21:00,
2013-02-28 06:22:00,36.5,25.9,29.84,North,360,1.0,5.0,65,0.00,,SKC,0.00,VWS V14.00,2013-02-28 11:22:00,
2013-02-28 06:23:00,36.5,25.9,29.84,North,360,4.0,5.0,65,0.00,,SKC,0.00,VWS V14.00,2013-02-28 11:23:00,
2013-02-28 06:24:00,36.5,25.9,29.84,North,360,4.0,5.0,65,0.00,,SKC,0.00,VWS V14.00,2013-02-28 11:24:00,
2013-02-28 06:25:00,36.5,25.9,29.84,North,360,1.0,5.0,65,0.00,,SKC,0.00,VWS V14.00,2013-02-28 11:25:00,
2013-02-28 06:26:00,36.5,25.9,29.84,North,360,2.0,5.0,65,0.00,,SKC,0.00,VWS V14.00,2013-02-28 11:26:00,
2013-02-28 06:27:00,36.5,25.9,29.84,North,360,2.0,5.0,65,0.00,,SKC,0.00,VWS V14.00,2013-02-28 11:27:00,
2013-02-28 06:28:00,36.6,26.0,29.84,North,360,7.0,7.0,65,0.00,,SKC,0.00,VWS V14.00,2013-02-28 11:28:00,
2013-02-28 06:29:00,36.6,26.0,29.84,North,360,4.0,7.0,65,0.00,,SKC,0.00,VWS V14.00,2013-02-28 11:29:00,
2013-02-28 06:30:00,36.6,26.0,29.84,North,360,3.0,7.0,65,0.00,,SKC,0.00,VWS V14.00,2013-02-28 11:30:00,
2013-02-28 06:31:00,36.6,26.0,29.84,North,360,7.0,7.0,65,0.00,,SKC,0.00,VWS V14.00,2013-02-28 11:31:00,
2013-02-28 06:32:00,36.6,26.0,29.84,North,360,4.0,7.0,65,0.00,,SKC,0.00,VWS V14.00,2013-02-28 11:32:00,
2013-02-28 06:33:00,36.6,26.0,29.84,North,360,5.0,7.0,65,0.00,,SKC,0.00,VWS V14.00,2013-02-28 11:33:00,
2013-02-28 06:34:00,36.6,26.0,29.84,North,360,4.0,7.0,65,0.00,,SKC,0.00,VWS V14.00,2013-02-28 11:34:00,
2013-02-28 06:35:00,36.6,26.0,29.84,North,360,4.0,7.0,65,0.00,,SKC,0.00,VWS V14.00,2013-02-28 11:35:00,
2013-02-28 06:36:00,36.6,26.0,29.84,North,360,5.0,7.0,65,0.00,,SKC,0.00,VWS V14.00,2013-02-28 11:36:00,
2013-02-28 06:37:00,36.6,26.0,29.84,North,360,3.0,7.0,65,0.00,,SKC,0.00,VWS V14.00,2013-02-28 11:37:00,
2013-02-28 06:38:00,36.6,26.0,29.84,North,360,0.0,7.0,65,0.00,,SKC,0.00,VWS V14.00,2013-02-28 11:38:00,
2013-02-28 06:39:00,36.6,26.0,29.84,North,360,0.0,7.0,65,0.00,,SKC,0.00,VWS V14.00,2013-02-28 11:39:00,
2013-02-28 06:40:00,36.6,26.0,29.84,North,360,0.0,7.0,65,0.00,,SKC,0.00,VWS V14.00,2013-02-28 11:40:00,
2013-02-28 06:41:00,36.8,26.1,29.84,North,360,3.0,3.0,65,0.00,,SKC,0.00,VWS V14.00,2013-02-28 11:41:00,
2013-02-28 06:42:00,36.8,26.1,29.84,North,360,3.0,4.0,65,0.00,,SKC,0.00,VWS V14.00,2013-02-28 11:42:00,
2013-02-28 06:43:00,36.8,26.1,29.84,North,360,2.0,4.0,65,0.00,,SKC,0.00,VWS V14.00,2013-02-28 11:43:00,
2013-02-28 06:44:00,36.8,26.1,29.84,North,360,4.0,4.0,65,0.00,,SKC,0.00,VWS V14.00,2013-02-28 11:44:00,
2013-02-28 06:45:00,36.8,26.1,29.84,North,360,3.0,4.0,65,0.00,,SKC,0.00,VWS V14.00,2013-02-28 11:45:00,
2013-02-28 06:46:00,36.8,26.1,29.84,North,360,3.0,5.0,65,0.00,,SKC,0.00,VWS V14.00,2013-02-28 11:46:00,
2013-02-28 06:47:00,36.8,26.1,29.84,North,360,3.0,5.0,65,0.00,,SKC,0.00,VWS V14.00,2013-02-28 11:47:00,
2013-02-28 06:48:00,36.8,26.1,29.84,North,360,3.0,9.0,65,0.01,,SKC,0.01,VWS V14.00,2013-02-28 11:48:00,
2013-02-28 06:49:00,36.9,26.2,29.84,North,360,2.0,9.0,65,0.01,,SKC,0.01,VWS V14.00,2013-02-28 11:49:00,
2013-02-28 06:50:00,36.9,26.2,29.84,North,360,3.0,9.0,65,0.01,,SKC,0.01,VWS V14.00,2013-02-28 11:50:00,
2013-02-28 06:51:00,36.9,26.2,29.84,North,360,2.0,4.0,65,0.01,,SKC,0.01,VWS V14.00,2013-02-28 11:51:00,
2013-02-28 06:52:00,36.9,26.6,29.84,North,360,2.0,5.0,66,0.01,,SKC,0.01,VWS V14.00,2013-02-28 11:52:00,
2013-02-28 06:53:00,36.9,26.6,29.84,North,360,2.0,5.0,66,0.01,,SKC,0.01,VWS V14.00,2013-02-28 11:53:00,
2013-02-28 06:54:00,36.9,26.6,29.84,North,360,2.0,5.0,66,0.01,,SKC,0.01,VWS V14.00,2013-02-28 11:54:00,
2013-02-28 06:55:00,36.9,26.6,29.84,North,360,3.0,5.0,66,0.01,,SKC,0.01,VWS V14.00,2013-02-28 11:55:00,
2013-02-28 06:56:00,36.9,26.6,29.84,North,360,6.0,8.0,66,0.01,,SKC,0.01,VWS V14.00,2013-02-28 11:56:00,
2013-02-28 06:57:00,36.9,26.6,29.84,North,360,3.0,8.0,66,0.01,,SKC,0.01,VWS V14.00,2013-02-28 11:57:00,
2013-02-28 06:58:00,36.9,26.6,29.84,North,360,2.0,8.0,66,0.01,,SKC,0.01,VWS V14.00,2013-02-28 11:58:00,
2013-02-28 06:59:00,36.9,26.6,29.84,North,360,4.0,8.0,66,0.01,,SKC,0.01,VWS V14.00,2013-02-28 11:59:00,
2013-02-28 07:00:00,36.9,26.6,29.84,North,360,2.0,8.0,66,0.01,,SKC,0.01,VWS V14.00,2013-02-28 12:00:00,
2013-02-28 07:01:00,37.0,26.7,29.84,North,360,4.0,4.0,66,0.01,,SKC,0.01,VWS V14.00,2013-02-28 12:01:00,
2013-02-28 07:02:00,37.0,26.7,29.84,North,360,4.0,9.0,66,0.01,,SKC,0.01,VWS V14.00,2013-02-28 12:02:00,
2013-02-28 07:03:00,37.0,26.7,29.84,North,360,3.0,9.0,66,0.01,,SKC,0.01,VWS V14.00,2013-02-28 12:03:00,
2013-02-28 07:04:00,37.0,26.7,29.84,North,360,3.0,9.0,66,0.01,,SKC,0.01,VWS V14.00,2013-02-28 12:04:00,
2013-02-28 07:05:00,37.0,26.7,29.84,North,360,2.0,9.0,66,0.01,,SKC,0.01,VWS V14.00,2013-02-28 12:05:00,
2013-02-28 07:06:00,37.0,26.7,29.84,North,360,5.0,9.0,66,0.01,,SKC,0.01,VWS V14.00,2013-02-28 12:06:00,
2013-02-28 07:07:00,37.0,26.7,29.84,North,360,4.0,10.0,66,0.01,,SKC,0.01,VWS V14.00,2013-02-28 12:07:00,
2013-02-28 07:08:00,37.0,26.7,29.84,North,360,6.0,10.0,66,0.01,,SKC,0.01,VWS V14.00,2013-02-28 12:08:00,
2013-02-28 07:09:00,37.0,26.7,29.84,North,360,4.0,10.0,66,0.01,,SKC,0.01,VWS V14.00,2013-02-28 12:09:00,
2013-02-28 07:10:00,37.0,26.7,29.84,North,360,4.0,10.0,66,0.01,,SKC,0.01,VWS V14.00,2013-02-28 12:10:00,
2013-02-28 07:11:00,37.0,26.7,29.84,North,360,6.0,6.0,66,0.01,,SKC,0.01,VWS V14.00,2013-02-28 12:11:00,
2013-02-28 07:12:00,37.0,26.7,29.84,North,360,4.0,10.0,66,0.01,,SKC,0.01,VWS V14.00,2013-02-28 12:12:00,
2013-02-28 07:13:00,37.0,26.7,29.84,North,360,5.0,10.0,66,0.01,,SKC,0.01,VWS V14.00,2013-02-28 12:13:00,
2013-02-28 07:14:00,37.0,27.1,29.84,North,360,3.0,10.0,67,0.01,,SKC,0.01,VWS V14.00,2013-02-28 12:14:00,
2013-02-28 07:15:00,37.0,27.1,29.85,North,360,7.0,10.0,67,0.01,,SKC,0.01,VWS V14.00,2013-02-28 12:15:00,
2013-02-28 07:16:00,37.0,27.1,29.85,North,360,4.0,10.0,67,0.01,,SKC,0.01,VWS V14.00,2013-02-28 12:16:00,
2013-02-28 07:17:00,37.0,27.1,29.85,North,360,6.0,10.0,67,0.01,,SKC,0.01,VWS V14.00,2013-02-28 12:17:00,
2013-02-28 07:18:00,37.0,27.1,29.85,North,360,9.0,10.0,67,0.01,,SKC,0.01,VWS V14.00,2013-02-28 12:18:00,
2013-02-28 07:19:00,37.0,26.7,29.85,North,360,7.0,10.0,66,0.01,,SKC,0.01,VWS V14.00,2013-02-28 12:19:00,
2013-02-28 07:20:00,37.0,26.7,29.85,North,360,4.0,10.0,66,0.01,,SKC,0.01,VWS V14.00,2013-02-28 12:20:00,
2013-02-28 07:21:00,37.0,26.7,29.85,North,360,7.0,10.0,66,0.01,,SKC,0.01,VWS V14.00,2013-02-28 12:21:00,
2013-02-28 07:22:00,37.2,26.9,29.85,North,360,4.0,10.0,66,0.01,,SKC,0.01,VWS V14.00,2013-02-28 12:22:00,
2013-02-28 07:23:00,37.2,27.3,29.85,North,360,4.0,10.0,67,0.01,,SKC,0.01,VWS V14.00,2013-02-28 12:23:00,
2013-02-28 07:24:00,37.2,27.3,29.85,North,360,4.0,10.0,67,0.01,,SKC,0.01,VWS V14.00,2013-02-28 12:24:00,
2013-02-28 07:25:00,37.2,27.3,29.85,North,360,2.0,10.0,67,0.01,,SKC,0.01,VWS V14.00,2013-02-28 12:25:00,
2013-02-28 07:26:00,37.2,27.3,29.85,North,360,4.0,10.0,67,0.01,,SKC,0.01,VWS V14.00,2013-02-28 12:26:00,
2013-02-28 07:27:00,37.2,27.3,29.85,North,360,4.0,10.0,67,0.01,,SKC,0.01,VWS V14.00,2013-02-28 12:27:00,
2013-02-28 07:28:00,37.3,27.4,29.85,North,360,7.0,10.0,67,0.01,,SKC,0.01,VWS V14.00,2013-02-28 12:28:00,
2013-02-28 07:29:00,37.3,27.4,29.85,North,360,5.0,10.0,67,0.01,,SKC,0.01,VWS V14.00,2013-02-28 12:29:00,
2013-02-28 07:30:00,37.3,27.4,29.86,North,360,3.0,10.0,67,0.01,,SKC,0.01,VWS V14.00,2013-02-28 12:30:00,
2013-02-28 07:31:00,37.3,27.4,29.86,North,360,3.0,4.0,67,0.01,,SKC,0.01,VWS V14.00,2013-02-28 12:31:00,
2013-02-28 07:32:00,37.3,27.4,29.86,North,360,2.0,7.0,67,0.01,,SKC,0.01,VWS V14.00,2013-02-28 12:32:00,
2013-02-28 07:33:00,37.3,27.4,29.86,North,360,4.0,7.0,67,0.01,,SKC,0.01,VWS V14.00,2013-02-28 12:33:00,
2013-02-28 07:34:00,37.3,27.4,29.86,North,360,3.0,7.0,67,0.01,,SKC,0.01,VWS V14.00,2013-02-28 12:34:00,
2013-02-28 07:35:00,37.3,27.4,29.86,North,360,4.0,7.0,67,0.01,,SKC,0.01,VWS V14.00,2013-02-28 12:35:00,
2013-02-28 07:36:00,37.3,27.4,29.86,North,360,5.0,7.0,67,0.01,,SKC,0.01,VWS V14.00,2013-02-28 12:36:00,
2013-02-28 07:37:00,37.3,27.4,29.86,North,360,5.0,7.0,67,0.01,,SKC,0.01,VWS V14.00,2013-02-28 12:37:00,
2013-02-28 07:38:00,37.3,27.4,29.86,North,360,5.0,9.0,67,0.01,,SKC,0.01,VWS V14.00,2013-02-28 12:38:00,
2013-02-28 07:39:00,37.3,27.4,29.86,North,360,3.0,9.0,67,0.01,,SKC,0.01,VWS V14.00,2013-02-28 12:39:00,
2013-02-28 07:40:00,37.3,27.4,29.86,North,360,3.0,9.0,67,0.01,,SKC,0.01,VWS V14.00,2013-02-28 12:40:00,
2013-02-28 07:41:00,37.3,27.4,29.86,North,360,4.0,6.0,67,0.01,,SKC,0.01,VWS V14.00,2013-02-28 12:41:00,
2013-02-28 07:42:00,37.3,27.4,29.86,North,360,6.0,7.0,67,0.01,,SKC,0.01,VWS V14.00,2013-02-28 12:42:00,
2013-02-28 07:43:00,37.3,27.4,29.86,North,360,6.0,7.0,67,0.01,,SKC,0.01,VWS V14.00,2013-02-28 12:43:00,
2013-02-28 07:44:00,37.5,27.5,29.86,North,360,3.0,7.0,67,0.01,,SKC,0.01,VWS V14.00,2013-02-28 12:44:00,
2013-02-28 07:45:00,37.5,27.5,29.87,North,360,4.0,7.0,67,0.01,,SKC,0.01,VWS V14.00,2013-02-28 12:45:00,
2013-02-28 07:46:00,37.5,27.5,29.87,North,360,4.0,7.0,67,0.01,,SKC,0.01,VWS V14.00,2013-02-28 12:46:00,
2013-02-28 07:47:00,37.5,27.5,29.87,North,360,5.0,7.0,67,0.01,,SKC,0.01,VWS V14.00,2013-02-28 12:47:00,
2013-02-28 07:48:00,37.5,27.5,29.87,North,360,3.0,7.0,67,0.01,,SKC,0.01,VWS V14.00,2013-02-28 12:48:00,
2013-02-28 07:49:00,37.5,27.5,29.87,North,360,5.0,7.0,67,0.01,,SKC,0.01,VWS V14.00,2013-02-28 12:49:00,
2013-02-28 07:50:00,37.5,27.5,29.87,North,360,5.0,7.0,67,0.01,,SKC,0.01,VWS V14.00,2013-02-28 12:50:00,
2013-02-28 07:51:00,37.5,27.5,29.87,North,360,5.0,7.0,67,0.00,,SKC,0.01,VWS V14.00,2013-02-28 12:51:00,
2013-02-28 07:52:00,37.5,27.5,29.87,North,360,3.0,7.0,67,0.00,,SKC,0.01,VWS V14.00,2013-02-28 12:52:00,
2013-02-28 07:53:00,37.5,27.5,29.87,North,360,3.0,7.0,67,0.00,,SKC,0.01,VWS V14.00,2013-02-28 12:53:00,
2013-02-28 07:54:00,37.5,27.5,29.87,North,360,5.0,7.0,67,0.00,,SKC,0.01,VWS V14.00,2013-02-28 12:54:00,
2013-02-28 07:55:00,37.5,27.5,29.87,North,360,5.0,7.0,67,0.00,,SKC,0.01,VWS V14.00,2013-02-28 12:55:00,
2013-02-28 07:56:00,37.5,27.5,29.87,North,360,4.0,7.0,67,0.00,,SKC,0.01,VWS V14.00,2013-02-28 12:56:00,
2013-02-28 07:57:00,37.5,27.5,29.87,North,360,3.0,7.0,67,0.00,,SKC,0.01,VWS V14.00,2013-02-28 12:57:00,
2013-02-28 07:58:00,37.5,27.5,29.87,North,360,6.0,8.0,67,0.00,,SKC,0.01,VWS V14.00,2013-02-28 12:58:00,
2013-02-28 07:59:00,37.5,27.5,29.87,North,360,5.0,9.0,67,0.00,,SKC,0.01,VWS V14.00,2013-02-28 12:59:00,
2013-02-28 08:00:00,37.5,27.5,29.87,North,360,5.0,9.0,67,0.00,,SKC,0.01,VWS V14.00,2013-02-28 13:00:00,
2013-02-28 08:01:00,37.5,27.5,29.87,North,360,4.0,7.0,67,0.00,,SKC,0.01,VWS V14.00,2013-02-28 13:01:00,
2013-02-28 08:02:00,37.5,27.9,29.87,North,360,6.0,7.0,68,0.00,,SKC,0.01,VWS V14.00,2013-02-28 13:02:00,
2013-02-28 08:03:00,37.5,27.9,29.87,North,360,4.0,7.0,68,0.00,,SKC,0.01,VWS V14.00,2013-02-28 13:03:00,
2013-02-28 08:04:00,37.5,27.9,29.87,North,360,3.0,7.0,68,0.00,,SKC,0.01,VWS V14.00,2013-02-28 13:04:00,
2013-02-28 08:05:00,37.6,28.0,29.87,North,360,3.0,7.0,68,0.00,,SKC,0.01,VWS V14.00,2013-02-28 13:05:00,
2013-02-28 08:06:00,37.5,27.9,29.87,North,360,2.0,7.0,68,0.00,,SKC,0.01,VWS V14.00,2013-02-28 13:06:00,
2013-02-28 08:07:00,37.6,28.0,29.87,North,360,7.0,9.0,68,0.00,,SKC,0.01,VWS V14.00,2013-02-28 13:07:00,
2013-02-28 08:08:00,37.6,28.0,29.87,North,360,5.0,9.0,68,0.00,,SKC,0.01,VWS V14.00,2013-02-28 13:08:00,
2013-02-28 08:09:00,37.6,28.0,29.87,North,360,6.0,9.0,68,0.00,,SKC,0.01,VWS V14.00,2013-02-28 13:09:00,
2013-02-28 08:10:00,37.6,28.0,29.87,North,360,3.0,9.0,68,0.00,,SKC,0.01,VWS V14.00,2013-02-28 13:10:00,
2013-02-28 08:11:00,37.6,28.0,29.87,North,360,4.0,7.0,68,0.00,,SKC,0.01,VWS V14.00,2013-02-28 13:11:00,
2013-02-28 08:12:00,37.6,28.0,29.87,North,360,7.0,7.0,68,0.00,,SKC,0.01,VWS V14.00,2013-02-28 13:12:00,
2013-02-28 08:13:00,37.6,28.0,29.87,North,360,7.0,8.0,68,0.00,,SKC,0.01,VWS V14.00,2013-02-28 13:13:00,
2013-02-28 08:14:00,37.6,28.0,29.87,North,360,7.0,8.0,68,0.00,,SKC,0.01,VWS V14.00,2013-02-28 13:14:00,
2013-02-28 08:15:00,37.6,28.0,29.87,North,360,4.0,10.0,68,0.00,,SKC,0.01,VWS V14.00,2013-02-28 13:15:00,
2013-02-28 08:16:00,37.6,28.0,29.87,North,360,4.0,10.0,68,0.00,,SKC,0.01,VWS V14.00,2013-02-28 13:16:00,
2013-02-28 08:17:00,37.6,28.0,29.87,North,360,7.0,10.0,68,0.00,,SKC,0.01,VWS V14.00,2013-02-28 13:17:00,
2013-02-28 08:18:00,37.8,28.2,29.87,North,360,6.0,10.0,68,0.00,,SKC,0.01,VWS V14.00,2013-02-28 13:18:00,
2013-02-28 08:19:00,37.8,28.2,29.87,North,360,6.0,10.0,68,0.00,,SKC,0.01,VWS V14.00,2013-02-28 13:19:00,
2013-02-28 08:20:00,37.8,28.2,29.87,North,360,6.0,12.0,68,0.00,,SKC,0.01,VWS V14.00,2013-02-28 13:20:00,
2013-02-28 08:21:00,37.8,27.8,29.87,North,360,5.0,9.0,67,0.00,,SKC,0.01,VWS V14.00,2013-02-28 13:21:00,
2013-02-28 08:22:00,37.9,28.3,29.87,North,360,6.0,9.0,68,0.00,,SKC,0.01,VWS V14.00,2013-02-28 13:22:00,
2013-02-28 08:23:00,37.9,28.3,29.87,North,360,7.0,12.0,68,0.00,,SKC,0.01,VWS V14.00,2013-02-28 13:23:00,
2013-02-28 08:24:00,37.9,28.3,29.87,North,360,7.0,12.0,68,0.00,,SKC,0.01,VWS V14.00,2013-02-28 13:24:00,
2013-02-28 08:25:00,38.0,28.0,29.87,North,360,6.0,12.0,67,0.00,,SKC,0.01,VWS V14.00,2013-02-28 13:25:00,
2013-02-28 08:26:00,38.0,28.0,29.87,North,360,5.0,12.0,67,0.00,,SKC,0.01,VWS V14.00,2013-02-28 13:26:00,
2013-02-28 08:27:00,38.0,28.0,29.87,North,360,6.0,12.0,67,0.00,,SKC,0.01,VWS V14.00,2013-02-28 13:27:00,
2013-02-28 08:28:00,38.2,28.2,29.87,North,360,9.0,12.0,67,0.00,,SKC,0.01,VWS V14.00,2013-02-28 13:28:00,
2013-02-28 08:29:00,38.2,28.2,29.87,North,360,9.0,12.0,67,0.00,,SKC,0.01,VWS V14.00,2013-02-28 13:29:00,
2013-02-28 08:30:00,38.2,28.6,29.86,North,360,6.0,12.0,68,0.00,,SKC,0.01,VWS V14.00,2013-02-28 13:30:00,
2013-02-28 08:40:00,40.1,28.1,29.86,North,360,18.0,25.0,62,0.00,,SKC,0.01,VWS V14.00,2013-02-28 13:40:00,
2013-02-28 08:50:00,39.2,29.9,29.87,North,360,18.0,18.0,69,0.00,,SKC,0.01,VWS V14.00,2013-02-28 13:50:00,
2013-02-28 08:51:00,39.2,29.5,29.87,North,360,15.0,18.0,68,0.00,,SKC,0.01,VWS V14.00,2013-02-28 13:51:00,
2013-02-28 08:52:00,39.2,29.5,29.87,North,360,10.0,18.0,68,0.00,,SKC,0.01,VWS V14.00,2013-02-28 13:52:00,
2013-02-28 08:53:00,39.2,29.5,29.87,North,360,10.0,18.0,68,0.00,,SKC,0.01,VWS V14.00,2013-02-28 13:53:00,
2013-02-28 08:54:00,39.2,29.5,29.87,North,360,6.0,18.0,68,0.00,,SKC,0.01,VWS V14.00,2013-02-28 13:54:00,
2013-02-28 08:55:00,39.2,29.5,29.87,North,360,11.0,18.0,68,0.00,,SKC,0.01,VWS V14.00,2013-02-28 13:55:00,
2013-02-28 08:56:00,39.2,29.5,29.87,North,360,10.0,18.0,68,0.00,,SKC,0.01,VWS V14.00,2013-02-28 13:56:00,
2013-02-28 08:57:00,39.2,29.5,29.87,North,360,11.0,18.0,68,0.00,,SKC,0.01,VWS V14.00,2013-02-28 13:57:00,
2013-02-28 08:58:00,38.2,28.6,29.86,North,360,6.0,12.0,68,0.00,,SKC,0.01,VWS V14.00,2013-02-28 13:58:00,
2013-02-28 08:59:00,39.2,29.9,29.87,North,360,9.0,18.0,69,0.00,,SKC,0.01,VWS V14.00,2013-02-28 13:59:00,
2013-02-28 09:00:00,39.2,29.9,29.87,North,360,9.0,18.0,69,0.00,,SKC,0.01,VWS V14.00,2013-02-28 14:00:00,
2013-02-28 09:01:00,39.3,30.0,29.86,North,360,10.0,12.0,69,0.00,,SKC,0.01,VWS V14.00,2013-02-28 14:01:00,
2013-02-28 09:02:00,39.3,29.3,29.86,North,360,5.0,12.0,67,0.00,,SKC,0.01,VWS V14.00,2013-02-28 14:02:00,
2013-02-28 09:03:00,38.2,28.6,29.86,North,360,6.0,12.0,68,0.00,,SKC,0.01,VWS V14.00,2013-02-28 14:03:00,
2013-02-28 09:04:00,39.3,29.3,29.86,North,360,7.0,12.0,67,0.00,,SKC,0.01,VWS V14.00,2013-02-28 14:04:00,
2013-02-28 09:05:00,39.5,29.5,29.86,North,360,12.0,12.0,67,0.00,,SKC,0.01,VWS V14.00,2013-02-28 14:05:00,
2013-02-28 09:06:00,39.5,29.5,29.86,North,360,13.0,17.0,67,0.00,,SKC,0.01,VWS V14.00,2013-02-28 14:06:00,
2013-02-28 09:07:00,39.6,29.6,29.86,North,360,14.0,17.0,67,0.00,,SKC,0.01,VWS V14.00,2013-02-28 14:07:00,
2013-02-28 09:08:00,38.2,28.6,29.86,North,360,6.0,12.0,68,0.00,,SKC,0.01,VWS V14.00,2013-02-28 14:08:00,
2013-02-28 09:09:00,39.6,28.8,29.86,North,360,9.0,20.0,65,0.00,,SKC,0.01,VWS V14.00,2013-02-28 14:09:00,
2013-02-28 09:10:00,39.6,28.8,29.86,North,360,11.0,20.0,65,0.00,,SKC,0.01,VWS V14.00,2013-02-28 14:10:00,
2013-02-28 09:11:00,39.6,28.8,29.86,North,360,10.0,14.0,65,0.00,,SKC,0.01,VWS V14.00,2013-02-28 14:11:00,
2013-02-28 09:12:00,39.6,28.8,29.86,North,360,15.0,16.0,65,0.00,,SKC,0.01,VWS V14.00,2013-02-28 14:12:00,
2013-02-28 09:13:00,38.2,28.6,29.86,North,360,6.0,12.0,68,0.00,,SKC,0.01,VWS V14.00,2013-02-28 14:13:00,
2013-02-28 09:14:00,39.6,28.8,29.86,North,360,9.0,18.0,65,0.00,,SKC,0.01,VWS V14.00,2013-02-28 14:14:00,
2013-02-28 09:15:00,39.8,29.0,29.86,North,360,10.0,18.0,65,0.00,,SKC,0.01,VWS V14.00,2013-02-28 14:15:00,
2013-02-28 09:16:00,39.8,28.6,29.86,North,360,13.0,18.0,64,0.00,,SKC,0.01,VWS V14.00,2013-02-28 14:16:00,
2013-02-28 09:17:00,39.8,28.6,29.86,North,360,4.0,18.0,64,0.00,,SKC,0.01,VWS V14.00,2013-02-28 14:17:00,
2013-02-28 09:18:00,39.8,28.6,29.86,North,360,10.0,18.0,64,0.00,,SKC,0.01,VWS V14.00,2013-02-28 14:18:00,
2013-02-28 09:19:00,39.8,29.0,29.86,North,360,14.0,18.0,65,0.00,,SKC,0.01,VWS V14.00,2013-02-28 14:19:00,
2013-02-28 09:20:00,39.6,28.4,29.86,North,360,14.0,20.0,64,0.00,,SKC,0.01,VWS V14.00,2013-02-28 14:20:00,
2013-02-28 09:21:00,39.6,28.4,29.86,North,360,12.0,20.0,64,0.00,,SKC,0.01,VWS V14.00,2013-02-28 14:21:00,
2013-02-28 09:22:00,39.6,28.4,29.86,North,360,11.0,20.0,64,0.00,,SKC,0.01,VWS V14.00,2013-02-28 14:22:00,
2013-02-28 09:23:00,39.6,28.4,29.86,North,360,20.0,20.0,64,0.00,,SKC,0.01,VWS V14.00,2013-02-28 14:23:00,
2013-02-28 09:24:00,39.6,28.4,29.86,North,360,15.0,20.0,64,0.00,,SKC,0.01,VWS V14.00,2013-02-28 14:24:00,
2013-02-28 09:25:00,39.5,28.0,29.86,North,360,15.0,20.0,63,0.00,,SKC,0.01,VWS V14.00,2013-02-28 14:25:00,
2013-02-28 09:26:00,39.5,28.0,29.86,North,360,14.0,22.0,63,0.00,,SKC,0.01,VWS V14.00,2013-02-28 14:26:00,
2013-02-28 09:27:00,39.5,28.0,29.86,North,360,15.0,22.0,63,0.00,,SKC,0.01,VWS V14.00,2013-02-28 14:27:00,
2013-02-28 09:28:00,39.5,28.4,29.86,North,360,12.0,22.0,64,0.00,,SKC,0.01,VWS V14.00,2013-02-28 14:28:00,
2013-02-28 09:29:00,39.5,28.4,29.86,North,360,11.0,22.0,64,0.00,,SKC,0.01,VWS V14.00,2013-02-28 14:29:00,
2013-02-28 09:30:00,39.5,28.4,29.86,North,360,8.0,22.0,64,0.00,,SKC,0.01,VWS V14.00,2013-02-28 14:30:00,
2013-02-28 09:31:00,39.6,28.4,29.86,North,360,14.0,14.0,64,0.00,,SKC,0.01,VWS V14.00,2013-02-28 14:31:00,
2013-02-28 09:32:00,39.6,28.8,29.86,North,360,11.0,14.0,65,0.00,,SKC,0.01,VWS V14.00,2013-02-28 14:32:00,
2013-02-28 09:33:00,39.6,28.4,29.86,North,360,12.0,20.0,64,0.00,,SKC,0.01,VWS V14.00,2013-02-28 14:33:00,
2013-02-28 09:34:00,39.6,28.4,29.86,North,360,15.0,20.0,64,0.00,,SKC,0.01,VWS V14.00,2013-02-28 14:34:00,
2013-02-28 09:35:00,39.8,28.6,29.86,North,360,10.0,20.0,64,0.00,,SKC,0.01,VWS V14.00,2013-02-28 14:35:00,
2013-02-28 09:36:00,39.8,28.6,29.86,North,360,13.0,20.0,64,0.00,,SKC,0.01,VWS V14.00,2013-02-28 14:36:00,
2013-02-28 09:37:00,39.8,29.0,29.86,North,360,7.0,20.0,65,0.00,,SKC,0.01,VWS V14.00,2013-02-28 14:37:00,
2013-02-28 09:38:00,39.9,28.7,29.86,North,360,10.0,20.0,64,0.00,,SKC,0.01,VWS V14.00,2013-02-28 14:38:00,
2013-02-28 09:39:00,40.1,28.1,29.86,North,360,10.0,22.0,62,0.00,,SKC,0.01,VWS V14.00,2013-02-28 14:39:00,
2013-02-28 09:40:00,40.1,28.1,29.86,North,360,18.0,25.0,62,0.00,,SKC,0.01,VWS V14.00,2013-02-28 14:40:00,
2013-02-28 09:41:00,40.1,28.1,29.86,North,360,16.0,18.0,62,0.00,,SKC,0.01,VWS V14.00,2013-02-28 14:41:00,
2013-02-28 09:42:00,40.1,27.8,29.86,North,360,13.0,18.0,61,0.00,,SKC,0.01,VWS V14.00,2013-02-28 14:42:00,
2013-02-28 09:43:00,40.1,28.1,29.86,North,360,13.0,19.0,62,0.00,,SKC,0.01,VWS V14.00,2013-02-28 14:43:00,
2013-02-28 09:44:00,40.1,28.1,29.86,North,360,7.0,19.0,62,0.00,,SKC,0.01,VWS V14.00,2013-02-28 14:44:00,
2013-02-28 09:45:00,40.1,28.1,29.86,North,360,17.0,19.0,62,0.00,,SKC,0.01,VWS V14.00,2013-02-28 14:45:00,
2013-02-28 09:46:00,40.1,28.1,29.86,North,360,17.0,19.0,62,0.00,,SKC,0.01,VWS V14.00,2013-02-28 14:46:00,
2013-02-28 09:47:00,40.1,28.1,29.86,North,360,11.0,19.0,62,0.00,,SKC,0.01,VWS V14.00,2013-02-28 14:47:00,
2013-02-28 09:48:00,40.1,28.1,29.86,North,360,15.0,19.0,62,0.00,,SKC,0.01,VWS V14.00,2013-02-28 14:48:00,
2013-02-28 09:49:00,40.1,28.1,29.86,North,360,11.0,21.0,62,0.00,,SKC,0.01,VWS V14.00,2013-02-28 14:49:00,
2013-02-28 09:50:00,40.1,28.1,29.86,North,360,17.0,21.0,62,0.00,,SKC,0.01,VWS V14.00,2013-02-28 14:50:00,
2013-02-28 09:51:00,40.1,28.1,29.86,North,360,4.0,17.0,62,0.00,,SKC,0.01,VWS V14.00,2013-02-28 14:51:00,
2013-02-28 09:52:00,40.1,28.1,29.86,North,360,10.0,17.0,62,0.00,,SKC,0.01,VWS V14.00,2013-02-28 14:52:00,
2013-02-28 09:53:00,40.1,28.1,29.86,North,360,10.0,17.0,62,0.00,,SKC,0.01,VWS V14.00,2013-02-28 14:53:00,
2013-02-28 09:54:00,40.1,28.1,29.86,North,360,13.0,18.0,62,0.00,,SKC,0.01,VWS V14.00,2013-02-28 14:54:00,
2013-02-28 09:55:00,40.1,27.8,29.86,North,360,14.0,18.0,61,0.00,,SKC,0.01,VWS V14.00,2013-02-28 14:55:00,
2013-02-28 09:56:00,40.1,27.8,29.86,North,360,7.0,18.0,61,0.00,,SKC,0.01,VWS V14.00,2013-02-28 14:56:00,
2013-02-28 09:57:00,40.1,27.8,29.86,North,360,12.0,18.0,61,0.00,,SKC,0.01,VWS V14.00,2013-02-28 14:57:00,
2013-02-28 09:58:00,40.2,27.8,29.86,North,360,10.0,18.0,61,0.00,,SKC,0.01,VWS V14.00,2013-02-28 14:58:00,
2013-02-28 09:59:00,40.2,27.8,29.86,North,360,13.0,18.0,61,0.00,,SKC,0.01,VWS V14.00,2013-02-28 14:59:00,
2013-02-28 10:00:00,40.2,27.8,29.86,North,360,13.0,18.0,61,0.00,,SKC,0.01,VWS V14.00,2013-02-28 15:00:00,
2013-02-28 10:01:00,40.2,27.4,29.87,North,360,13.0,15.0,60,0.00,,SKC,0.01,VWS V14.00,2013-02-28 15:01:00,
2013-02-28 10:02:00,40.2,27.4,29.87,North,360,16.0,17.0,60,0.00,,SKC,0.01,VWS V14.00,2013-02-28 15:02:00,
2013-02-28 10:03:00,40.2,27.4,29.87,North,360,8.0,17.0,60,0.00,,SKC,0.01,VWS V14.00,2013-02-28 15:03:00,
2013-02-28 10:04:00,40.2,27.4,29.87,North,360,14.0,17.0,60,0.00,,SKC,0.01,VWS V14.00,2013-02-28 15:04:00,
2013-02-28 10:05:00,40.2,27.4,29.87,North,360,11.0,18.0,60,0.00,,SKC,0.01,VWS V14.00,2013-02-28 15:05:00,
2013-02-28 10:06:00,40.2,27.4,29.87,North,360,16.0,18.0,60,0.00,,SKC,0.01,VWS V14.00,2013-02-28 15:06:00,
2013-02-28 10:07:00,40.2,27.4,29.87,North,360,9.0,18.0,60,0.00,,SKC,0.01,VWS V14.00,2013-02-28 15:07:00,
2013-02-28 10:08:00,40.2,27.4,29.87,North,360,9.0,18.0,60,0.00,,SKC,0.01,VWS V14.00,2013-02-28 15:08:00,
2013-02-28 10:09:00,40.2,27.4,29.87,North,360,9.0,18.0,60,0.00,,SKC,0.01,VWS V14.00,2013-02-28 15:09:00,
2013-02-28 10:10:00,40.3,27.5,29.87,North,360,6.0,18.0,60,0.00,,SKC,0.01,VWS V14.00,2013-02-28 15:10:00,
2013-02-28 10:11:00,40.3,27.5,29.87,North,360,12.0,13.0,60,0.00,,SKC,0.01,VWS V14.00,2013-02-28 15:11:00,
2013-02-28 10:12:00,40.3,27.5,29.87,North,360,11.0,17.0,60,0.00,,SKC,0.01,VWS V14.00,2013-02-28 15:12:00,
2013-02-28 10:13:00,40.3,27.5,29.87,North,360,6.0,17.0,60,0.00,,SKC,0.01,VWS V14.00,2013-02-28 15:13:00,
2013-02-28 10:14:00,40.5,28.1,29.87,North,360,3.0,17.0,61,0.00,,SKC,0.01,VWS V14.00,2013-02-28 15:14:00,
2013-02-28 10:15:00,40.5,28.1,29.87,North,360,10.0,17.0,61,0.00,,SKC,0.01,VWS V14.00,2013-02-28 15:15:00,
2013-02-28 10:16:00,40.5,27.7,29.87,North,360,9.0,17.0,60,0.00,,SKC,0.01,VWS V14.00,2013-02-28 15:16:00,
2013-02-28 10:17:00,40.6,27.8,29.87,North,360,10.0,20.0,60,0.00,,SKC,0.01,VWS V14.00,2013-02-28 15:17:00,
2013-02-28 10:18:00,40.6,27.8,29.87,North,360,0.0,20.0,60,0.00,,SKC,0.01,VWS V14.00,2013-02-28 15:18:00,
2013-02-28 10:19:00,40.6,27.8,29.87,North,360,12.0,20.0,60,0.00,,SKC,0.01,VWS V14.00,2013-02-28 15:19:00,
2013-02-28 10:20:00,40.6,27.8,29.87,North,360,16.0,21.0,60,0.00,,SKC,0.01,VWS V14.00,2013-02-28 15:20:00,
2013-02-28 10:21:00,40.6,27.8,29.87,North,360,14.0,19.0,60,0.00,,SKC,0.01,VWS V14.00,2013-02-28 15:21:00,
2013-02-28 10:22:00,40.6,27.8,29.87,North,360,14.0,19.0,60,0.00,,SKC,0.01,VWS V14.00,2013-02-28 15:22:00,
2013-02-28 10:23:00,40.5,27.7,29.87,North,360,13.0,19.0,60,0.00,,SKC,0.01,VWS V14.00,2013-02-28 15:23:00,
2013-02-28 10:24:00,40.3,27.5,29.87,North,360,9.0,19.0,60,0.00,,SKC,0.01,VWS V14.00,2013-02-28 15:24:00,
2013-02-28 10:25:00,40.3,27.5,29.87,North,360,7.0,19.0,60,0.00,,SKC,0.01,VWS V14.00,2013-02-28 15:25:00,
2013-02-28 10:26:00,40.3,27.9,29.87,North,360,6.0,19.0,61,0.00,,SKC,0.01,VWS V14.00,2013-02-28 15:26:00,
2013-02-28 10:27:00,40.3,27.9,29.87,North,360,12.0,19.0,61,0.00,,SKC,0.01,VWS V14.00,2013-02-28 15:27:00,
2013-02-28 10:28:00,40.2,27.8,29.87,North,360,11.0,19.0,61,0.00,,SKC,0.01,VWS V14.00,2013-02-28 15:28:00,
2013-02-28 10:29:00,40.2,27.8,29.87,North,360,15.0,19.0,61,0.00,,SKC,0.01,VWS V14.00,2013-02-28 15:29:00,
2013-02-28 10:30:00,40.1,27.8,29.88,North,360,12.0,19.0,61,0.00,,SKC,0.01,VWS V14.00,2013-02-28 15:30:00,
2013-02-28 10:31:00,40.1,27.8,29.88,North,360,13.0,18.0,61,0.00,,SKC,0.01,VWS V14.00,2013-02-28 15:31:00,
2013-02-28 10:32:00,39.9,27.6,29.88,North,360,14.0,18.0,61,0.00,,SKC,0.01,VWS V14.00,2013-02-28 15:32:00,
2013-02-28 10:33:00,39.9,27.6,29.88,North,360,12.0,18.0,61,0.00,,SKC,0.01,VWS V14.00,2013-02-28 15:33:00,
2013-02-28 10:34:00,39.9,27.6,29.88,North,360,9.0,18.0,61,0.00,,SKC,0.01,VWS V14.00,2013-02-28 15:34:00,
2013-02-28 10:35:00,39.8,27.9,29.88,North,360,16.0,19.0,62,0.00,,SKC,0.01,VWS V14.00,2013-02-28 15:35:00,
2013-02-28 10:36:00,39.8,27.5,29.88,North,360,16.0,21.0,61,0.00,,SKC,0.01,VWS V14.00,2013-02-28 15:36:00,
2013-02-28 10:37:00,39.8,27.5,29.88,North,360,17.0,21.0,61,0.00,,SKC,0.01,VWS V14.00,2013-02-28 15:37:00,
2013-02-28 10:38:00,39.6,27.3,29.88,North,360,12.0,21.0,61,0.00,,SKC,0.01,VWS V14.00,2013-02-28 15:38:00,
2013-02-28 10:39:00,39.6,27.3,29.88,North,360,13.0,21.0,61,0.00,,SKC,0.01,VWS V14.00,2013-02-28 15:39:00,
2013-02-28 10:40:00,39.6,27.7,29.88,North,360,11.0,21.0,62,0.00,,SKC,0.01,VWS V14.00,2013-02-28 15:40:00,
2013-02-28 10:41:00,39.6,27.7,29.88,North,360,15.0,19.0,62,0.00,,SKC,0.01,VWS V14.00,2013-02-28 15:41:00,
2013-02-28 10:42:00,39.6,27.7,29.88,North,360,11.0,19.0,62,0.00,,SKC,0.01,VWS V14.00,2013-02-28 15:42:00,
2013-02-28 10:43:00,39.6,27.7,29.88,North,360,15.0,19.0,62,0.00,,SKC,0.01,VWS V14.00,2013-02-28 15:43:00,
2013-02-28 10:44:00,39.6,27.7,29.88,North,360,18.0,19.0,62,0.00,,SKC,0.01,VWS V14.00,2013-02-28 15:44:00,
2013-02-28 10:45:00,39.6,27.7,29.89,North,360,14.0,19.0,62,0.00,,SKC,0.01,VWS V14.00,2013-02-28 15:45:00,
2013-02-28 10:46:00,39.6,27.3,29.89,North,360,16.0,19.0,61,0.00,,SKC,0.01,VWS V14.00,2013-02-28 15:46:00,
2013-02-28 10:47:00,39.6,27.3,29.89,North,360,10.0,20.0,61,0.00,,SKC,0.01,VWS V14.00,2013-02-28 15:47:00,
2013-02-28 10:48:00,39.6,27.3,29.89,North,360,19.0,20.0,61,0.00,,SKC,0.01,VWS V14.00,2013-02-28 15:48:00,
2013-02-28 10:49:00,39.6,27.3,29.89,North,360,12.0,20.0,61,0.00,,SKC,0.01,VWS V14.00,2013-02-28 15:49:00,
2013-02-28 10:50:00,39.6,27.3,29.89,North,360,11.0,22.0,61,0.00,,SKC,0.01,VWS V14.00,2013-02-28 15:50:00,
2013-02-28 10:51:00,39.6,27.3,29.89,North,360,14.0,19.0,61,0.00,,SKC,0.01,VWS V14.00,2013-02-28 15:51:00,
2013-02-28 10:52:00,39.6,27.3,29.89,North,360,16.0,19.0,61,0.00,,SKC,0.01,VWS V14.00,2013-02-28 15:52:00,
2013-02-28 10:53:00,39.8,27.1,29.89,North,360,11.0,19.0,60,0.00,,SKC,0.01,VWS V14.00,2013-02-28 15:53:00,
2013-02-28 10:54:00,39.8,27.1,29.89,North,360,11.0,19.0,60,0.00,,SKC,0.01,VWS V14.00,2013-02-28 15:54:00,
2013-02-28 10:55:00,39.8,27.1,29.89,North,360,15.0,21.0,60,0.00,,SKC,0.01,VWS V14.00,2013-02-28 15:55:00,
2013-02-28 10:56:00,39.8,27.1,29.89,North,360,10.0,21.0,60,0.00,,SKC,0.01,VWS V14.00,2013-02-28 15:56:00,
2013-02-28 10:57:00,39.8,27.1,29.89,North,360,15.0,21.0,60,0.00,,SKC,0.01,VWS V14.00,2013-02-28 15:57:00,
2013-02-28 10:58:00,39.8,27.1,29.89,North,360,13.0,21.0,60,0.00,,SKC,0.01,VWS V14.00,2013-02-28 15:58:00,
2013-02-28 11:00:00,40.1,27.4,29.89,North,360,10.0,21.0,60,0.00,,SKC,0.01,VWS V14.00,2013-02-28 16:00:00,
2013-02-28 11:01:00,40.1,27.4,29.89,North,360,9.0,11.0,60,0.00,,SKC,0.01,VWS V14.00,2013-02-28 16:01:00,
2013-02-28 11:02:00,40.3,27.9,29.89,North,360,9.0,14.0,61,0.00,,SKC,0.01,VWS V14.00,2013-02-28 16:02:00,
2013-02-28 11:03:00,40.5,27.3,29.89,North,360,13.0,16.0,59,0.00,,SKC,0.01,VWS V14.00,2013-02-28 16:03:00,
2013-02-28 11:04:00,40.6,26.6,29.89,North,360,9.0,18.0,57,0.00,,SKC,0.01,VWS V14.00,2013-02-28 16:04:00,
2013-02-28 11:05:00,40.8,26.8,29.89,North,360,10.0,18.0,57,0.00,,SKC,0.01,VWS V14.00,2013-02-28 16:05:00,
2013-02-28 11:06:00,40.8,26.8,29.89,North,360,10.0,18.0,57,0.00,,SKC,0.01,VWS V14.00,2013-02-28 16:06:00,
2013-02-28 11:07:00,41.1,27.0,29.89,North,360,14.0,18.0,57,0.00,,SKC,0.01,VWS V14.00,2013-02-28 16:07:00,
2013-02-28 11:08:00,41.2,26.7,29.89,North,360,13.0,18.0,56,0.00,,SKC,0.01,VWS V14.00,2013-02-28 16:08:00,
2013-02-28 11:09:00,41.5,27.4,29.89,North,360,15.0,18.0,57,0.00,,SKC,0.01,VWS V14.00,2013-02-28 16:09:00,
2013-02-28 11:10:00,41.6,27.1,29.89,North,360,14.0,18.0,56,0.00,,SKC,0.01,VWS V14.00,2013-02-28 16:10:00,
2013-02-28 11:11:00,41.6,26.6,29.89,North,360,10.0,16.0,55,0.00,,SKC,0.01,VWS V14.00,2013-02-28 16:11:00,
2013-02-28 11:12:00,41.6,26.6,29.89,North,360,14.0,16.0,55,0.00,,SKC,0.01,VWS V14.00,2013-02-28 16:12:00,
2013-02-28 11:13:00,41.8,26.4,29.89,North,360,16.0,18.0,54,0.00,,SKC,0.01,VWS V14.00,2013-02-28 16:13:00,
2013-02-28 11:14:00,41.8,26.4,29.89,North,360,9.0,18.0,54,0.00,,SKC,0.01,VWS V14.00,2013-02-28 16:14:00,
2013-02-28 11:15:00,41.9,26.9,29.89,North,360,13.0,18.0,55,0.00,,SKC,0.01,VWS V14.00,2013-02-28 16:15:00,
2013-02-28 11:16:00,41.9,26.9,29.89,North,360,25.0,26.0,55,0.00,,SKC,0.01,VWS V14.00,2013-02-28 16:16:00,
2013-02-28 11:17:00,41.9,26.0,29.89,North,360,21.0,26.0,53,0.00,,SKC,0.01,VWS V14.00,2013-02-28 16:17:00,
2013-02-28 11:18:00,41.9,26.5,29.89,North,360,12.0,26.0,54,0.00,,SKC,0.01,VWS V14.00,2013-02-28 16:18:00,
2013-02-28 11:19:00,41.9,26.5,29.89,North,360,7.0,26.0,54,0.00,,SKC,0.01,VWS V14.00,2013-02-28 16:19:00,
2013-02-28 11:20:00,41.9,26.5,29.89,North,360,14.0,26.0,54,0.00,,SKC,0.01,VWS V14.00,2013-02-28 16:20:00,
2013-02-28 11:21:00,41.9,26.5,29.89,North,360,16.0,20.0,54,0.00,,SKC,0.01,VWS V14.00,2013-02-28 16:21:00,
2013-02-28 11:22:00,41.9,26.5,29.89,North,360,12.0,20.0,54,0.00,,SKC,0.01,VWS V14.00,2013-02-28 16:22:00,
2013-02-28 11:23:00,41.8,26.4,29.89,North,360,13.0,20.0,54,0.00,,SKC,0.01,VWS V14.00,2013-02-28 16:23:00,
2013-02-28 11:24:00,41.6,26.6,29.89,North,360,18.0,20.0,55,0.00,,SKC,0.01,VWS V14.00,2013-02-28 16:24:00,
2013-02-28 11:25:00,41.6,26.6,29.89,North,360,12.0,20.0,55,0.00,,SKC,0.01,VWS V14.00,2013-02-28 16:25:00,
2013-02-28 11:26:00,41.6,26.6,29.89,North,360,15.0,20.0,55,0.00,,SKC,0.01,VWS V14.00,2013-02-28 16:26:00,
2013-02-28 11:27:00,41.5,26.5,29.89,North,360,10.0,20.0,55,0.00,,SKC,0.01,VWS V14.00,2013-02-28 16:27:00,
2013-02-28 11:28:00,41.5,26.5,29.89,North,360,14.0,20.0,55,0.00,,SKC,0.01,VWS V14.00,2013-02-28 16:28:00,
2013-02-28 11:29:00,41.5,26.5,29.89,North,360,16.0,20.0,55,0.00,,SKC,0.01,VWS V14.00,2013-02-28 16:29:00,
2013-02-28 11:30:00,41.3,26.4,29.90,North,360,15.0,20.0,55,0.00,,SKC,0.01,VWS V14.00,2013-02-28 16:30:00,
2013-02-28 11:31:00,41.3,26.4,29.90,North,360,14.0,19.0,55,0.00,,SKC,0.01,VWS V14.00,2013-02-28 16:31:00,
2013-02-28 11:32:00,41.3,26.8,29.90,North,360,10.0,19.0,56,0.00,,SKC,0.01,VWS V14.00,2013-02-28 16:32:00,
2013-02-28 11:33:00,41.2,26.7,29.90,North,360,11.0,19.0,56,0.00,,SKC,0.01,VWS V14.00,2013-02-28 16:33:00,
2013-02-28 11:34:00,41.2,26.7,29.90,North,360,6.0,19.0,56,0.00,,SKC,0.01,VWS V14.00,2013-02-28 16:34:00,
2013-02-28 11:35:00,41.3,27.2,29.90,North,360,14.0,19.0,57,0.00,,SKC,0.01,VWS V14.00,2013-02-28 16:35:00,
2013-02-28 11:36:00,41.2,27.1,29.90,North,360,18.0,20.0,57,0.00,,SKC,0.01,VWS V14.00,2013-02-28 16:36:00,
2013-02-28 11:37:00,41.2,27.1,29.90,North,360,18.0,20.0,57,0.00,,SKC,0.01,VWS V14.00,2013-02-28 16:37:00,
2013-02-28 11:38:00,41.2,27.1,29.90,North,360,13.0,20.0,57,0.00,,SKC,0.01,VWS V14.00,2013-02-28 16:38:00,
2013-02-28 11:39:00,41.1,27.0,29.90,North,360,9.0,20.0,57,0.00,,SKC,0.01,VWS V14.00,2013-02-28 16:39:00,
2013-02-28 11:40:00,41.1,27.5,29.90,North,360,12.0,20.0,58,0.00,,SKC,0.01,VWS V14.00,2013-02-28 16:40:00,
2013-02-28 11:41:00,41.1,27.0,29.90,North,360,11.0,16.0,57,0.00,,SKC,0.01,VWS V14.00,2013-02-28 16:41:00,
2013-02-28 11:42:00,41.1,27.5,29.90,North,360,17.0,20.0,58,0.00,,SKC,0.01,VWS V14.00,2013-02-28 16:42:00,
2013-02-28 11:43:00,41.1,27.5,29.90,North,360,11.0,20.0,58,0.00,,SKC,0.01,VWS V14.00,2013-02-28 16:43:00,
2013-02-28 11:44:00,41.1,27.5,29.90,North,360,11.0,20.0,58,0.00,,SKC,0.01,VWS V14.00,2013-02-28 16:44:00,
2013-02-28 11:45:00,41.1,27.5,29.89,North,360,13.0,20.0,58,0.00,,SKC,0.01,VWS V14.00,2013-02-28 16:45:00,
2013-02-28 11:46:00,41.2,27.6,29.89,North,360,8.0,20.0,58,0.00,,SKC,0.01,VWS V14.00,2013-02-28 16:46:00,
2013-02-28 11:47:00,41.2,27.1,29.89,North,360,13.0,20.0,57,0.00,,SKC,0.01,VWS V14.00,2013-02-28 16:47:00,
2013-02-28 11:48:00,41.3,27.2,29.89,North,360,10.0,20.0,57,0.00,,SKC,0.01,VWS V14.00,2013-02-28 16:48:00,
2013-02-28 11:49:00,41.5,27.4,29.89,North,360,11.0,20.0,57,0.00,,SKC,0.01,VWS V14.00,2013-02-28 16:49:00,
2013-02-28 11:50:00,41.5,27.4,29.89,North,360,9.0,20.0,57,0.00,,SKC,0.01,VWS V14.00,2013-02-28 16:50:00,
2013-02-28 11:51:00,41.5,27.8,29.89,North,360,6.0,11.0,58,0.00,,SKC,0.01,VWS V14.00,2013-02-28 16:51:00,
2013-02-28 11:52:00,41.5,27.8,29.89,North,360,6.0,11.0,58,0.00,,SKC,0.01,VWS V14.00,2013-02-28 16:52:00,
2013-02-28 11:53:00,41.6,27.5,29.89,North,360,10.0,12.0,57,0.00,,SKC,0.01,VWS V14.00,2013-02-28 16:53:00,
2013-02-28 11:54:00,41.8,27.3,29.89,North,360,20.0,22.0,56,0.00,,SKC,0.01,VWS V14.00,2013-02-28 16:54:00,
2013-02-28 11:55:00,41.6,26.6,29.89,North,360,13.0,22.0,55,0.00,,SKC,0.01,VWS V14.00,2013-02-28 16:55:00,
2013-02-28 11:56:00,41.6,26.6,29.89,North,360,12.0,22.0,55,0.00,,SKC,0.01,VWS V14.00,2013-02-28 16:56:00,
2013-02-28 11:57:00,41.6,27.1,29.89,North,360,18.0,22.0,56,0.00,,SKC,0.01,VWS V14.00,2013-02-28 16:57:00,
2013-02-28 11:58:00,41.5,26.5,29.89,North,360,17.0,22.0,55,0.00,,SKC,0.01,VWS V14.00,2013-02-28 16:58:00,
2013-02-28 11:59:00,41.5,26.5,29.89,North,360,18.0,22.0,55,0.00,,SKC,0.01,VWS V14.00,2013-02-28 16:59:00,
2013-02-28 12:00:00,41.5,26.5,29.89,North,360,18.0,22.0,55,0.00,,SKC,0.01,VWS V14.00,2013-02-28 17:00:00,
2013-02-28 12:01:00,41.5,27.0,29.89,North,360,11.0,19.0,56,0.00,,SKC,0.01,VWS V14.00,2013-02-28 17:01:00,
2013-02-28 12:02:00,41.5,27.4,29.89,North,360,12.0,19.0,57,0.00,,SKC,0.01,VWS V14.00,2013-02-28 17:02:00,
2013-02-28 12:03:00,41.5,27.0,29.89,North,360,13.0,19.0,56,0.00,,SKC,0.01,VWS V14.00,2013-02-28 17:03:00,
2013-02-28 12:04:00,41.6,27.1,29.89,North,360,14.0,19.0,56,0.00,,SKC,0.01,VWS V14.00,2013-02-28 17:04:00,
2013-02-28 12:05:00,41.6,26.6,29.89,North,360,14.0,22.0,55,0.00,,SKC,0.01,VWS V14.00,2013-02-28 17:05:00,
2013-02-28 12:06:00,41.8,26.8,29.89,North,360,17.0,24.0,55,0.00,,SKC,0.01,VWS V14.00,2013-02-28 17:06:00,
2013-02-28 12:07:00,41.8,27.3,29.89,North,360,13.0,24.0,56,0.00,,SKC,0.01,VWS V14.00,2013-02-28 17:07:00,
2013-02-28 12:08:00,41.9,27.4,29.89,North,360,14.0,24.0,56,0.00,,SKC,0.01,VWS V14.00,2013-02-28 17:08:00,
2013-02-28 12:09:00,41.9,27.4,29.89,North,360,10.0,24.0,56,0.00,,SKC,0.01,VWS V14.00,2013-02-28 17:09:00,
2013-02-28 12:10:00,41.9,26.9,29.89,North,360,7.0,24.0,55,0.00,,SKC,0.01,VWS V14.00,2013-02-28 17:10:00,
2013-02-28 12:11:00,41.9,26.9,29.89,North,360,14.0,14.0,55,0.00,,SKC,0.01,VWS V14.00,2013-02-28 17:11:00,
2013-02-28 12:12:00,42.1,27.1,29.89,North,360,14.0,16.0,55,0.00,,SKC,0.01,VWS V14.00,2013-02-28 17:12:00,
2013-02-28 12:13:00,41.9,26.5,29.89,North,360,10.0,16.0,54,0.00,,SKC,0.01,VWS V14.00,2013-02-28 17:13:00,
2013-02-28 12:14:00,41.9,26.9,29.89,North,360,6.0,17.0,55,0.00,,SKC,0.01,VWS V14.00,2013-02-28 17:14:00,
2013-02-28 12:15:00,41.9,26.9,29.90,North,360,6.0,17.0,55,0.00,,SKC,0.01,VWS V14.00,2013-02-28 17:15:00,
2013-02-28 12:16:00,41.9,26.9,29.90,North,360,6.0,17.0,55,0.00,,SKC,0.01,VWS V14.00,2013-02-28 17:16:00,
2013-02-28 12:17:00,41.9,26.9,29.90,North,360,6.0,17.0,55,0.00,,SKC,0.01,VWS V14.00,2013-02-28 17:17:00,
2013-02-28 12:18:00,41.9,26.9,29.90,North,360,6.0,17.0,55,0.00,,SKC,0.01,VWS V14.00,2013-02-28 17:18:00,
2013-02-28 12:19:00,41.9,26.5,29.90,North,360,20.0,21.0,54,0.00,,SKC,0.01,VWS V14.00,2013-02-28 17:19:00,
2013-02-28 12:20:00,41.8,26.4,29.90,North,360,16.0,21.0,54,0.00,,SKC,0.01,VWS V14.00,2013-02-28 17:20:00,
2013-02-28 12:21:00,41.8,26.4,29.90,North,360,15.0,16.0,54,0.00,,SKC,0.01,VWS V14.00,2013-02-28 17:21:00,
2013-02-28 12:22:00,41.6,26.2,29.90,North,360,15.0,18.0,54,0.00,,SKC,0.01,VWS V14.00,2013-02-28 17:22:00,
2013-02-28 12:23:00,41.6,26.6,29.90,North,360,9.0,18.0,55,0.00,,SKC,0.01,VWS V14.00,2013-02-28 17:23:00,
2013-02-28 12:24:00,41.6,26.6,29.90,North,360,9.0,18.0,55,0.00,,SKC,0.01,VWS V14.00,2013-02-28 17:24:00,
2013-02-28 12:25:00,41.5,26.5,29.90,North,360,12.0,18.0,55,0.00,,SKC,0.01,VWS V14.00,2013-02-28 17:25:00,
2013-02-28 12:26:00,41.5,26.5,29.90,North,360,13.0,18.0,55,0.00,,SKC,0.01,VWS V14.00,2013-02-28 17:26:00,
2013-02-28 12:27:00,41.5,26.5,29.90,North,360,9.0,19.0,55,0.00,,SKC,0.01,VWS V14.00,2013-02-28 17:27:00,
2013-02-28 12:28:00,41.5,27.0,29.90,North,360,7.0,19.0,56,0.00,,SKC,0.01,VWS V14.00,2013-02-28 17:28:00,
2013-02-28 12:29:00,41.5,27.4,29.90,North,360,10.0,19.0,57,0.00,,SKC,0.01,VWS V14.00,2013-02-28 17:29:00,
2013-02-28 12:30:00,41.6,27.1,29.90,North,360,7.0,19.0,56,0.00,,SKC,0.01,VWS V14.00,2013-02-28 17:30:00,
2013-02-28 12:40:00,41.9,26.0,29.89,North,360,22.0,22.0,53,0.01,,SKC,0.02,VWS V14.00,2013-02-28 17:40:00,
2013-02-28 12:50:00,41.8,25.9,29.90,North,360,14.0,25.0,53,0.00,,SKC,0.02,VWS V14.00,2013-02-28 17:50:00,
2013-02-28 12:55:00,41.5,26.5,29.90,North,360,9.0,9.0,55,0.00,,SKC,0.01,VWS V14.00,2013-02-28 17:55:00,
2013-02-28 12:56:00,41.5,26.5,29.90,North,360,14.0,15.0,55,0.00,,SKC,0.01,VWS V14.00,2013-02-28 17:56:00,
2013-02-28 12:57:00,41.5,26.5,29.90,North,360,14.0,16.0,55,0.00,,SKC,0.01,VWS V14.00,2013-02-28 17:57:00,
2013-02-28 12:58:00,41.5,26.1,29.90,North,360,13.0,18.0,54,0.01,,SKC,0.02,VWS V14.00,2013-02-28 17:58:00,
2013-02-28 12:59:00,41.5,26.1,29.90,North,360,15.0,18.0,54,0.01,,SKC,0.02,VWS V14.00,2013-02-28 17:59:00,
2013-02-28 13:00:00,41.6,27.1,29.90,North,360,7.0,19.0,56,0.00,,SKC,0.01,VWS V14.00,2013-02-28 18:00:00,
2013-02-28 13:01:00,41.5,26.1,29.90,North,360,8.0,15.0,54,0.01,,SKC,0.02,VWS V14.00,2013-02-28 18:01:00,
2013-02-28 13:02:00,41.6,26.6,29.90,North,360,5.0,15.0,55,0.01,,SKC,0.02,VWS V14.00,2013-02-28 18:02:00,
2013-02-28 13:03:00,41.8,26.8,29.90,North,360,12.0,15.0,55,0.01,,SKC,0.02,VWS V14.00,2013-02-28 18:03:00,
2013-02-28 13:04:00,41.9,26.9,29.90,North,360,9.0,16.0,55,0.01,,SKC,0.02,VWS V14.00,2013-02-28 18:04:00,
2013-02-28 13:05:00,42.1,26.2,29.90,North,360,6.0,16.0,53,0.01,,SKC,0.02,VWS V14.00,2013-02-28 18:05:00,
2013-02-28 13:06:00,42.2,27.2,29.90,North,360,7.0,16.0,55,0.01,,SKC,0.02,VWS V14.00,2013-02-28 18:06:00,
2013-02-28 13:07:00,42.3,26.9,29.90,North,360,12.0,16.0,54,0.01,,SKC,0.02,VWS V14.00,2013-02-28 18:07:00,
2013-02-28 13:08:00,41.6,27.1,29.90,North,360,7.0,19.0,56,0.00,,SKC,0.01,VWS V14.00,2013-02-28 18:08:00,
2013-02-28 13:09:00,42.6,26.2,29.90,North,360,13.0,20.0,52,0.01,,SKC,0.02,VWS V14.00,2013-02-28 18:09:00,
2013-02-28 13:10:00,42.6,26.2,29.90,North,360,12.0,20.0,52,0.01,,SKC,0.02,VWS V14.00,2013-02-28 18:10:00,
2013-02-28 13:11:00,42.6,26.2,29.90,North,360,14.0,15.0,52,0.01,,SKC,0.02,VWS V14.00,2013-02-28 18:11:00,
2013-02-28 13:12:00,42.6,26.2,29.90,North,360,9.0,15.0,52,0.01,,SKC,0.02,VWS V14.00,2013-02-28 18:12:00,
2013-02-28 13:13:00,42.6,26.7,29.90,North,360,17.0,18.0,53,0.01,,SKC,0.02,VWS V14.00,2013-02-28 18:13:00,
2013-02-28 13:14:00,42.6,26.7,29.90,North,360,17.0,18.0,53,0.01,,SKC,0.02,VWS V14.00,2013-02-28 18:14:00,
2013-02-28 13:15:00,42.3,25.9,29.90,North,360,17.0,20.0,52,0.01,,SKC,0.02,VWS V14.00,2013-02-28 18:15:00,
2013-02-28 13:16:00,42.2,25.9,29.90,North,360,11.0,20.0,52,0.01,,SKC,0.02,VWS V14.00,2013-02-28 18:16:00,
2013-02-28 13:17:00,42.1,25.8,29.90,North,360,9.0,20.0,52,0.01,,SKC,0.02,VWS V14.00,2013-02-28 18:17:00,
2013-02-28 13:18:00,41.6,27.1,29.90,North,360,7.0,19.0,56,0.00,,SKC,0.01,VWS V14.00,2013-02-28 18:18:00,
2013-02-28 13:19:00,41.9,26.0,29.90,North,360,12.0,21.0,53,0.01,,SKC,0.02,VWS V14.00,2013-02-28 18:19:00,
2013-02-28 13:20:00,41.9,26.0,29.90,North,360,13.0,23.0,53,0.01,,SKC,0.02,VWS V14.00,2013-02-28 18:20:00,
2013-02-28 13:21:00,41.8,25.9,29.90,North,360,22.0,22.0,53,0.01,,SKC,0.02,VWS V14.00,2013-02-28 18:21:00,
2013-02-28 13:22:00,41.8,25.5,29.90,North,360,10.0,22.0,52,0.01,,SKC,0.02,VWS V14.00,2013-02-28 18:22:00,
2013-02-28 13:23:00,41.8,25.9,29.90,North,360,12.0,22.0,53,0.01,,SKC,0.02,VWS V14.00,2013-02-28 18:23:00,
2013-02-28 13:24:00,41.8,25.9,29.90,North,360,17.0,22.0,53,0.01,,SKC,0.02,VWS V14.00,2013-02-28 18:24:00,
2013-02-28 13:25:00,41.8,25.9,29.90,North,360,19.0,22.0,53,0.01,,SKC,0.02,VWS V14.00,2013-02-28 18:25:00,
2013-02-28 13:26:00,41.9,26.0,29.90,North,360,15.0,22.0,53,0.01,,SKC,0.02,VWS V14.00,2013-02-28 18:26:00,
2013-02-28 13:27:00,41.9,26.0,29.90,North,360,14.0,22.0,53,0.01,,SKC,0.02,VWS V14.00,2013-02-28 18:27:00,
2013-02-28 13:28:00,41.9,26.0,29.90,North,360,17.0,22.0,53,0.01,,SKC,0.02,VWS V14.00,2013-02-28 18:28:00,
2013-02-28 13:29:00,41.9,26.0,29.90,North,360,11.0,22.0,53,0.01,,SKC,0.02,VWS V14.00,2013-02-28 18:29:00,
2013-02-28 13:30:00,41.9,26.0,29.89,North,360,11.0,22.0,53,0.01,,SKC,0.02,VWS V14.00,2013-02-28 18:30:00,
2013-02-28 13:31:00,41.9,26.0,29.89,North,360,13.0,18.0,53,0.01,,SKC,0.02,VWS V14.00,2013-02-28 18:31:00,
2013-02-28 13:32:00,41.9,26.0,29.89,North,360,17.0,19.0,53,0.01,,SKC,0.02,VWS V14.00,2013-02-28 18:32:00,
2013-02-28 13:33:00,41.8,25.9,29.89,North,360,18.0,22.0,53,0.01,,SKC,0.02,VWS V14.00,2013-02-28 18:33:00,
2013-02-28 13:34:00,41.8,25.9,29.89,North,360,10.0,22.0,53,0.01,,SKC,0.02,VWS V14.00,2013-02-28 18:34:00,
2013-02-28 13:35:00,41.8,26.4,29.89,North,360,10.0,22.0,54,0.01,,SKC,0.02,VWS V14.00,2013-02-28 18:35:00,
2013-02-28 13:36:00,41.8,26.4,29.89,North,360,3.0,22.0,54,0.01,,SKC,0.02,VWS V14.00,2013-02-28 18:36:00,
2013-02-28 13:37:00,41.8,26.8,29.89,North,360,11.0,22.0,55,0.01,,SKC,0.02,VWS V14.00,2013-02-28 18:37:00,
2013-02-28 13:38:00,41.9,26.0,29.89,North,360,17.0,22.0,53,0.01,,SKC,0.02,VWS V14.00,2013-02-28 18:38:00,
2013-02-28 13:39:00,41.9,26.0,29.89,North,360,13.0,22.0,53,0.01,,SKC,0.02,VWS V14.00,2013-02-28 18:39:00,
2013-02-28 13:40:00,41.9,26.0,29.89,North,360,22.0,22.0,53,0.00,,SKC,0.02,VWS V14.00,2013-02-28 18:40:00,
2013-02-28 13:41:00,41.8,25.9,29.89,North,360,20.0,22.0,53,0.00,,SKC,0.02,VWS V14.00,2013-02-28 18:41:00,
2013-02-28 13:42:00,41.8,25.9,29.89,North,360,10.0,25.0,53,0.00,,SKC,0.02,VWS V14.00,2013-02-28 18:42:00,
2013-02-28 13:43:00,41.8,25.9,29.89,North,360,18.0,25.0,53,0.00,,SKC,0.02,VWS V14.00,2013-02-28 18:43:00,
2013-02-28 13:44:00,41.8,25.5,29.89,North,360,19.0,25.0,52,0.00,,SKC,0.02,VWS V14.00,2013-02-28 18:44:00,
2013-02-28 13:45:00,41.8,25.5,29.90,North,360,18.0,25.0,52,0.00,,SKC,0.02,VWS V14.00,2013-02-28 18:45:00,
2013-02-28 13:46:00,41.8,25.5,29.90,North,360,13.0,25.0,52,0.00,,SKC,0.02,VWS V14.00,2013-02-28 18:46:00,
2013-02-28 13:47:00,41.8,25.9,29.90,North,360,11.0,25.0,53,0.00,,SKC,0.02,VWS V14.00,2013-02-28 18:47:00,
2013-02-28 13:48:00,41.8,25.9,29.90,North,360,15.0,25.0,53,0.00,,SKC,0.02,VWS V14.00,2013-02-28 18:48:00,
2013-02-28 13:49:00,41.8,25.9,29.90,North,360,12.0,25.0,53,0.00,,SKC,0.02,VWS V14.00,2013-02-28 18:49:00,
2013-02-28 13:50:00,41.8,25.9,29.90,North,360,14.0,25.0,53,0.00,,SKC,0.02,VWS V14.00,2013-02-28 18:50:00,
2013-02-28 13:51:00,41.8,25.9,29.90,North,360,11.0,17.0,53,0.00,,SKC,0.02,VWS V14.00,2013-02-28 18:51:00,
2013-02-28 13:52:00,41.8,25.9,29.90,North,360,11.0,17.0,53,0.00,,SKC,0.02,VWS V14.00,2013-02-28 18:52:00,
2013-02-28 13:53:00,41.8,25.5,29.90,North,360,15.0,20.0,52,0.00,,SKC,0.02,VWS V14.00,2013-02-28 18:53:00,
2013-02-28 13:54:00,41.6,25.3,29.90,North,360,18.0,20.0,52,0.00,,SKC,0.02,VWS V14.00,2013-02-28 18:54:00,
2013-02-28 13:55:00,41.6,25.3,29.90,North,360,10.0,20.0,52,0.00,,SKC,0.02,VWS V14.00,2013-02-28 18:55:00,
2013-02-28 13:56:00,41.6,25.8,29.90,North,360,14.0,20.0,53,0.00,,SKC,0.02,VWS V14.00,2013-02-28 18:56:00,
2013-02-28 13:57:00,41.6,25.3,29.90,North,360,6.0,20.0,52,0.00,,SKC,0.02,VWS V14.00,2013-02-28 18:57:00,
2013-02-28 13:58:00,41.6,25.3,29.90,North,360,9.0,20.0,52,0.00,,SKC,0.02,VWS V14.00,2013-02-28 18:58:00,
2013-02-28 13:59:00,41.8,25.9,29.90,North,360,9.0,20.0,53,0.00,,SKC,0.02,VWS V14.00,2013-02-28 18:59:00,
2013-02-28 14:00:00,41.8,25.9,29.90,North,360,9.0,20.0,53,0.00,,SKC,0.02,VWS V14.00,2013-02-28 19:00:00,
2013-02-28 14:01:00,41.8,25.5,29.90,North,360,14.0,21.0,52,0.00,,SKC,0.02,VWS V14.00,2013-02-28 19:01:00,
2013-02-28 14:02:00,41.9,25.6,29.90,North,360,15.0,21.0,52,0.00,,SKC,0.02,VWS V14.00,2013-02-28 19:02:00,
2013-02-28 14:03:00,41.9,25.1,29.90,North,360,28.0,28.0,51,0.00,,SKC,0.02,VWS V14.00,2013-02-28 19:03:00,
2013-02-28 14:04:00,41.8,25.0,29.90,North,360,22.0,28.0,51,0.00,,SKC,0.02,VWS V14.00,2013-02-28 19:04:00,
2013-02-28 14:05:00,41.8,25.0,29.90,North,360,11.0,28.0,51,0.00,,SKC,0.02,VWS V14.00,2013-02-28 19:05:00,
2013-02-28 14:06:00,41.8,25.0,29.90,North,360,12.0,28.0,51,0.00,,SKC,0.02,VWS V14.00,2013-02-28 19:06:00,
2013-02-28 14:07:00,41.8,25.5,29.90,North,360,15.0,28.0,52,0.00,,SKC,0.02,VWS V14.00,2013-02-28 19:07:00,
2013-02-28 14:08:00,41.8,25.0,29.90,North,360,11.0,28.0,51,0.00,,SKC,0.02,VWS V14.00,2013-02-28 19:08:00,
2013-02-28 14:09:00,41.8,25.5,29.90,North,360,11.0,28.0,52,0.00,,SKC,0.02,VWS V14.00,2013-02-28 19:09:00,
2013-02-28 14:10:00,41.8,25.5,29.90,North,360,14.0,28.0,52,0.00,,SKC,0.02,VWS V14.00,2013-02-28 19:10:00,
2013-02-28 14:11:00,41.8,25.5,29.90,North,360,13.0,20.0,52,0.00,,SKC,0.02,VWS V14.00,2013-02-28 19:11:00,
2013-02-28 14:12:00,41.8,25.0,29.90,North,360,16.0,20.0,51,0.00,,SKC,0.02,VWS V14.00,2013-02-28 19:12:00,
2013-02-28 14:13:00,41.8,25.0,29.90,North,360,7.0,20.0,51,0.00,,SKC,0.02,VWS V14.00,2013-02-28 19:13:00,
2013-02-28 14:14:00,41.8,25.0,29.90,North,360,7.0,20.0,51,0.00,,SKC,0.02,VWS V14.00,2013-02-28 19:14:00,
2013-02-28 14:15:00,41.8,25.0,29.90,North,360,7.0,20.0,51,0.00,,SKC,0.02,VWS V14.00,2013-02-28 19:15:00,
2013-02-28 14:16:00,41.8,25.0,29.90,North,360,7.0,20.0,51,0.00,,SKC,0.02,VWS V14.00,2013-02-28 19:16:00,
2013-02-28 14:17:00,41.8,25.0,29.90,North,360,7.0,20.0,51,0.00,,SKC,0.02,VWS V14.00,2013-02-28 19:17:00,
2013-02-28 14:18:00,41.8,25.0,29.90,North,360,7.0,20.0,51,0.00,,SKC,0.02,VWS V14.00,2013-02-28 19:18:00,
2013-02-28 14:19:00,41.8,25.0,29.90,North,360,7.0,20.0,51,0.00,,SKC,0.02,VWS V14.00,2013-02-28 19:19:00,
2013-02-28 14:20:00,42.1,25.3,29.90,North,360,12.0,20.0,51,0.00,,SKC,0.02,VWS V14.00,2013-02-28 19:20:00,
2013-02-28 14:21:00,41.9,25.1,29.90,North,360,5.0,19.0,51,0.00,,SKC,0.02,VWS V14.00,2013-02-28 19:21:00,
2013-02-28 14:22:00,41.9,25.6,29.90,North,360,10.0,20.0,52,0.00,,SKC,0.02,VWS V14.00,2013-02-28 19:22:00,
2013-02-28 14:23:00,41.9,25.1,29.90,North,360,16.0,20.0,51,0.00,,SKC,0.02,VWS V14.00,2013-02-28 19:23:00,
2013-02-28 14:24:00,41.8,25.9,29.90,North,360,12.0,20.0,53,0.00,,SKC,0.02,VWS V14.00,2013-02-28 19:24:00,
2013-02-28 14:25:00,41.8,25.5,29.90,North,360,9.0,20.0,52,0.00,,SKC,0.02,VWS V14.00,2013-02-28 19:25:00,
2013-02-28 14:26:00,41.8,25.9,29.90,North,360,11.0,20.0,53,0.00,,SKC,0.02,VWS V14.00,2013-02-28 19:26:00,
2013-02-28 14:27:00,41.6,25.3,29.90,North,360,11.0,20.0,52,0.00,,SKC,0.02,VWS V14.00,2013-02-28 19:27:00,
2013-02-28 14:28:00,41.6,25.3,29.90,North,360,9.0,20.0,52,0.00,,SKC,0.02,VWS V14.00,2013-02-28 19:28:00,
2013-02-28 14:29:00,41.6,25.8,29.90,North,360,14.0,20.0,53,0.00,,SKC,0.02,VWS V14.00,2013-02-28 19:29:00,
2013-02-28 14:30:00,41.6,25.3,29.91,North,360,6.0,20.0,52,0.00,,SKC,0.02,VWS V14.00,2013-02-28 19:30:00,
2013-02-28 14:31:00,41.6,25.8,29.91,North,360,7.0,13.0,53,0.00,,SKC,0.02,VWS V14.00,2013-02-28 19:31:00,
2013-02-28 14:32:00,41.6,25.8,29.91,North,360,12.0,18.0,53,0.00,,SKC,0.02,VWS V14.00,2013-02-28 19:32:00,
2013-02-28 14:33:00,41.6,25.8,29.91,North,360,15.0,18.0,53,0.00,,SKC,0.02,VWS V14.00,2013-02-28 19:33:00,
2013-02-28 14:34:00,41.6,25.3,29.91,North,360,7.0,18.0,52,0.00,,SKC,0.02,VWS V14.00,2013-02-28 19:34:00,
2013-02-28 14:35:00,41.5,25.7,29.91,North,360,13.0,18.0,53,0.00,,SKC,0.02,VWS V14.00,2013-02-28 19:35:00,
2013-02-28 14:36:00,41.5,25.7,29.91,North,360,10.0,18.0,53,0.00,,SKC,0.02,VWS V14.00,2013-02-28 19:36:00,
2013-02-28 14:37:00,41.5,25.7,29.91,North,360,10.0,18.0,53,0.00,,SKC,0.02,VWS V14.00,2013-02-28 19:37:00,
2013-02-28 14:38:00,41.5,25.7,29.91,North,360,7.0,18.0,53,0.00,,SKC,0.02,VWS V14.00,2013-02-28 19:38:00,
2013-02-28 14:39:00,41.5,26.1,29.91,North,360,10.0,19.0,54,0.00,,SKC,0.02,VWS V14.00,2013-02-28 19:39:00,
2013-02-28 14:40:00,41.3,25.5,29.91,North,360,10.0,19.0,53,0.00,,SKC,0.02,VWS V14.00,2013-02-28 19:40:00,
2013-02-28 14:41:00,41.3,25.9,29.91,North,360,18.0,18.0,54,0.00,,SKC,0.02,VWS V14.00,2013-02-28 19:41:00,
2013-02-28 14:42:00,41.3,25.9,29.91,North,360,10.0,18.0,54,0.00,,SKC,0.02,VWS V14.00,2013-02-28 19:42:00,
2013-02-28 14:43:00,41.3,25.9,29.91,North,360,6.0,18.0,54,0.00,,SKC,0.02,VWS V14.00,2013-02-28 19:43:00,
2013-02-28 14:44:00,41.2,25.8,29.91,North,360,13.0,19.0,54,0.00,,SKC,0.02,VWS V14.00,2013-02-28 19:44:00,
2013-02-28 14:45:00,41.2,25.4,29.92,North,360,12.0,20.0,53,0.00,,SKC,0.02,VWS V14.00,2013-02-28 19:45:00,
2013-02-28 14:46:00,41.2,25.8,29.92,North,5,7.0,20.0,54,0.00,,SKC,0.02,VWS V14.00,2013-02-28 19:46:00,
2013-02-28 14:47:00,41.2,26.3,29.92,North,360,13.0,20.0,55,0.00,,SKC,0.02,VWS V14.00,2013-02-28 19:47:00,
2013-02-28 14:48:00,41.1,25.3,29.92,North,360,11.0,20.0,53,0.00,,SKC,0.02,VWS V14.00,2013-02-28 19:48:00,
2013-02-28 14:49:00,41.1,25.7,29.92,North,360,18.0,20.0,54,0.00,,SKC,0.02,VWS V14.00,2013-02-28 19:49:00,
2013-02-28 14:50:00,41.1,25.7,29.92,North,360,21.0,21.0,54,0.00,,SKC,0.02,VWS V14.00,2013-02-28 19:50:00,
2013-02-28 14:51:00,40.9,25.5,29.92,North,360,14.0,21.0,54,0.00,,SKC,0.02,VWS V14.00,2013-02-28 19:51:00,
2013-02-28 14:52:00,40.9,25.5,29.92,North,360,4.0,21.0,54,0.00,,SKC,0.02,VWS V14.00,2013-02-28 19:52:00,
2013-02-28 14:53:00,40.8,25.5,29.92,North,360,12.0,21.0,54,0.00,,SKC,0.02,VWS V14.00,2013-02-28 19:53:00,
2013-02-28 14:54:00,40.8,25.9,29.92,North,360,10.0,21.0,55,0.00,,SKC,0.02,VWS V14.00,2013-02-28 19:54:00,
2013-02-28 14:55:00,40.8,25.9,29.92,North,360,12.0,21.0,55,0.00,,SKC,0.02,VWS V14.00,2013-02-28 19:55:00,
2013-02-28 14:56:00,40.8,25.9,29.92,North,360,10.0,21.0,55,0.00,,SKC,0.02,VWS V14.00,2013-02-28 19:56:00,
2013-02-28 14:57:00,40.8,25.9,29.92,North,360,15.0,21.0,55,0.00,,SKC,0.02,VWS V14.00,2013-02-28 19:57:00,
2013-02-28 14:58:00,40.8,25.9,29.92,North,360,12.0,21.0,55,0.00,,SKC,0.02,VWS V14.00,2013-02-28 19:58:00,
2013-02-28 15:00:00,40.8,25.9,29.92,North,360,12.0,21.0,55,0.00,,SKC,0.02,VWS V14.00,2013-02-28 20:00:00,
2013-02-28 15:01:00,40.8,25.9,29.92,North,360,7.0,14.0,55,0.00,,SKC,0.02,VWS V14.00,2013-02-28 20:01:00,
2013-02-28 15:02:00,40.8,26.3,29.92,North,360,9.0,14.0,56,0.00,,SKC,0.02,VWS V14.00,2013-02-28 20:02:00,
2013-02-28 15:03:00,40.8,26.3,29.92,North,360,9.0,14.0,56,0.00,,SKC,0.02,VWS V14.00,2013-02-28 20:03:00,
2013-02-28 15:04:00,40.8,26.3,29.92,North,360,7.0,14.0,56,0.00,,SKC,0.02,VWS V14.00,2013-02-28 20:04:00,
2013-02-28 15:05:00,40.8,26.3,29.92,North,360,6.0,14.0,56,0.00,,SKC,0.02,VWS V14.00,2013-02-28 20:05:00,
2013-02-28 15:06:00,40.8,26.3,29.92,North,360,6.0,14.0,56,0.00,,SKC,0.02,VWS V14.00,2013-02-28 20:06:00,
2013-02-28 15:07:00,40.8,26.3,29.92,North,360,6.0,14.0,56,0.00,,SKC,0.02,VWS V14.00,2013-02-28 20:07:00,
2013-02-28 15:08:00,40.8,25.9,29.92,North,360,11.0,20.0,55,0.00,,SKC,0.02,VWS V14.00,2013-02-28 20:08:00,
2013-02-28 15:09:00,40.8,26.3,29.92,North,360,13.0,21.0,56,0.00,,SKC,0.02,VWS V14.00,2013-02-28 20:09:00,
2013-02-28 15:10:00,40.8,25.9,29.92,North,360,12.0,21.0,55,0.00,,SKC,0.02,VWS V14.00,2013-02-28 20:10:00,
2013-02-28 15:11:00,40.8,25.9,29.92,North,360,11.0,17.0,55,0.00,,SKC,0.02,VWS V14.00,2013-02-28 20:11:00,
2013-02-28 15:12:00,40.6,25.7,29.92,North,360,11.0,20.0,55,0.00,,SKC,0.02,VWS V14.00,2013-02-28 20:12:00,
2013-02-28 15:13:00,40.6,25.7,29.92,NNE,13,14.0,21.0,55,0.00,,SKC,0.02,VWS V14.00,2013-02-28 20:13:00,
2013-02-28 15:14:00,40.5,26.0,29.92,North,360,12.0,21.0,56,0.00,,SKC,0.02,VWS V14.00,2013-02-28 20:14:00,
2013-02-28 15:15:00,40.5,26.0,29.93,North,360,9.0,21.0,56,0.00,,SKC,0.02,VWS V14.00,2013-02-28 20:15:00,
2013-02-28 15:16:00,40.5,26.0,29.93,North,360,16.0,21.0,56,0.00,,SKC,0.02,VWS V14.00,2013-02-28 20:16:00,
2013-02-28 15:17:00,40.3,25.9,29.93,North,360,14.0,21.0,56,0.00,,SKC,0.02,VWS V14.00,2013-02-28 20:17:00,
2013-02-28 15:18:00,40.3,25.9,29.93,North,360,10.0,21.0,56,0.00,,SKC,0.02,VWS V14.00,2013-02-28 20:18:00,
2013-02-28 15:19:00,40.2,25.8,29.93,North,360,10.0,21.0,56,0.00,,SKC,0.02,VWS V14.00,2013-02-28 20:19:00,
2013-02-28 15:20:00,40.2,26.2,29.93,North,360,16.0,21.0,57,0.00,,SKC,0.02,VWS V14.00,2013-02-28 20:20:00,
2013-02-28 15:21:00,40.2,25.8,29.93,North,360,7.0,16.0,56,0.00,,SKC,0.02,VWS V14.00,2013-02-28 20:21:00,
2013-02-28 15:22:00,40.1,25.7,29.93,North,360,15.0,16.0,56,0.00,,SKC,0.02,VWS V14.00,2013-02-28 20:22:00,
2013-02-28 15:23:00,40.1,26.1,29.93,North,360,11.0,16.0,57,0.00,,SKC,0.02,VWS V14.00,2013-02-28 20:23:00,
2013-02-28 15:24:00,40.1,26.1,29.93,North,360,5.0,16.0,57,0.00,,SKC,0.02,VWS V14.00,2013-02-28 20:24:00,
2013-02-28 15:25:00,40.1,26.1,29.93,North,360,12.0,16.0,57,0.00,,SKC,0.02,VWS V14.00,2013-02-28 20:25:00,
2013-02-28 15:26:00,39.9,25.9,29.93,North,360,11.0,20.0,57,0.00,,SKC,0.02,VWS V14.00,2013-02-28 20:26:00,
2013-02-28 15:27:00,39.9,25.9,29.93,North,360,11.0,20.0,57,0.00,,SKC,0.02,VWS V14.00,2013-02-28 20:27:00,
2013-02-28 15:28:00,39.9,25.9,29.93,North,360,8.0,20.0,57,0.00,,SKC,0.02,VWS V14.00,2013-02-28 20:28:00,
2013-02-28 15:29:00,39.9,25.9,29.93,North,360,6.0,20.0,57,0.00,,SKC,0.02,VWS V14.00,2013-02-28 20:29:00,
2013-02-28 15:30:00,39.9,25.9,29.93,North,360,17.0,20.0,57,0.00,,SKC,0.02,VWS V14.00,2013-02-28 20:30:00,
2013-02-28 15:31:00,39.8,25.8,29.93,North,360,10.0,19.0,57,0.00,,SKC,0.02,VWS V14.00,2013-02-28 20:31:00,
2013-02-28 15:32:00,39.8,25.8,29.93,North,360,10.0,19.0,57,0.00,,SKC,0.02,VWS V14.00,2013-02-28 20:32:00,
2013-02-28 15:33:00,39.8,25.8,29.93,North,360,8.0,19.0,57,0.00,,SKC,0.02,VWS V14.00,2013-02-28 20:33:00,
2013-02-28 15:34:00,39.8,25.8,29.93,North,360,7.0,19.0,57,0.00,,SKC,0.02,VWS V14.00,2013-02-28 20:34:00,
2013-02-28 15:35:00,39.8,26.2,29.93,North,360,14.0,19.0,58,0.00,,SKC,0.02,VWS V14.00,2013-02-28 20:35:00,
2013-02-28 15:36:00,39.8,26.2,29.93,North,360,8.0,19.0,58,0.00,,SKC,0.02,VWS V14.00,2013-02-28 20:36:00,
2013-02-28 15:37:00,39.8,26.2,29.93,North,360,10.0,19.0,58,0.00,,SKC,0.02,VWS V14.00,2013-02-28 20:37:00,
2013-02-28 15:38:00,39.8,26.2,29.93,North,360,7.0,19.0,58,0.00,,SKC,0.02,VWS V14.00,2013-02-28 20:38:00,
2013-02-28 15:39:00,39.8,26.2,29.93,North,360,9.0,19.0,58,0.00,,SKC,0.02,VWS V14.00,2013-02-28 20:39:00,
2013-02-28 15:40:00,39.8,26.2,29.93,North,360,15.0,20.0,58,0.00,,SKC,0.02,VWS V14.00,2013-02-28 20:40:00,
2013-02-28 15:41:00,39.8,26.2,29.93,North,360,12.0,16.0,58,0.00,,SKC,0.02,VWS V14.00,2013-02-28 20:41:00,
2013-02-28 15:42:00,39.8,26.2,29.93,North,360,16.0,23.0,58,0.00,,SKC,0.02,VWS V14.00,2013-02-28 20:42:00,
2013-02-28 15:43:00,39.8,26.2,29.93,North,360,12.0,23.0,58,0.00,,SKC,0.02,VWS V14.00,2013-02-28 20:43:00,
2013-02-28 15:44:00,39.8,26.2,29.94,North,360,7.0,23.0,58,0.00,,SKC,0.02,VWS V14.00,2013-02-28 20:44:00,
2013-02-28 15:45:00,39.8,26.2,29.94,North,360,14.0,23.0,58,0.00,,SKC,0.02,VWS V14.00,2013-02-28 20:45:00,
2013-02-28 15:46:00,39.8,26.2,29.94,North,360,11.0,23.0,58,0.00,,SKC,0.02,VWS V14.00,2013-02-28 20:46:00,
2013-02-28 15:47:00,39.8,26.2,29.94,North,360,19.0,23.0,58,0.00,,SKC,0.02,VWS V14.00,2013-02-28 20:47:00,
2013-02-28 15:48:00,39.8,26.2,29.94,North,360,17.0,23.0,58,0.00,,SKC,0.02,VWS V14.00,2013-02-28 20:48:00,
2013-02-28 15:49:00,39.8,26.2,29.94,North,360,15.0,23.0,58,0.00,,SKC,0.02,VWS V14.00,2013-02-28 20:49:00,
2013-02-28 15:50:00,39.8,26.2,29.94,North,360,24.0,24.0,58,0.00,,SKC,0.02,VWS V14.00,2013-02-28 20:50:00,
2013-02-28 15:51:00,39.8,26.2,29.94,North,360,14.0,24.0,58,0.00,,SKC,0.02,VWS V14.00,2013-02-28 20:51:00,
2013-02-28 15:52:00,39.6,25.6,29.94,North,360,16.0,24.0,57,0.00,,SKC,0.02,VWS V14.00,2013-02-28 20:52:00,
2013-02-28 15:53:00,39.6,26.1,29.94,North,360,12.0,24.0,58,0.00,,SKC,0.02,VWS V14.00,2013-02-28 20:53:00,
2013-02-28 15:54:00,39.6,26.1,29.94,North,360,10.0,24.0,58,0.00,,SKC,0.02,VWS V14.00,2013-02-28 20:54:00,
2013-02-28 15:55:00,39.6,26.1,29.94,North,360,13.0,24.0,58,0.00,,SKC,0.02,VWS V14.00,2013-02-28 20:55:00,
2013-02-28 15:56:00,39.6,26.1,29.94,North,360,19.0,24.0,58,0.00,,SKC,0.02,VWS V14.00,2013-02-28 20:56:00,
2013-02-28 15:57:00,39.6,26.1,29.94,North,360,19.0,24.0,58,0.00,,SKC,0.02,VWS V14.00,2013-02-28 20:57:00,
2013-02-28 15:58:00,39.6,26.1,29.94,North,360,8.0,24.0,58,0.00,,SKC,0.02,VWS V14.00,2013-02-28 20:58:00,
2013-02-28 15:59:00,39.6,26.1,29.94,North,360,9.0,24.0,58,0.00,,SKC,0.02,VWS V14.00,2013-02-28 20:59:00,
2013-02-28 16:00:00,39.6,26.5,29.94,North,360,18.0,24.0,59,0.00,,SKC,0.02,VWS V14.00,2013-02-28 21:00:00,
2013-02-28 16:01:00,39.5,26.0,29.94,North,360,14.0,19.0,58,0.00,,SKC,0.02,VWS V14.00,2013-02-28 21:01:00,
2013-02-28 16:02:00,39.5,26.0,29.94,North,360,15.0,19.0,58,0.00,,SKC,0.02,VWS V14.00,2013-02-28 21:02:00,
2013-02-28 16:03:00,39.5,26.0,29.94,North,360,14.0,19.0,58,0.00,,SKC,0.02,VWS V14.00,2013-02-28 21:03:00,
2013-02-28 16:04:00,39.5,26.0,29.94,North,360,11.0,19.0,58,0.00,,SKC,0.02,VWS V14.00,2013-02-28 21:04:00,
2013-02-28 16:05:00,39.3,25.8,29.94,North,360,6.0,19.0,58,0.00,,SKC,0.02,VWS V14.00,2013-02-28 21:05:00,
2013-02-28 16:06:00,39.3,25.8,29.94,North,360,9.0,19.0,58,0.00,,SKC,0.02,VWS V14.00,2013-02-28 21:06:00,
2013-02-28 16:07:00,39.3,25.8,29.94,North,360,12.0,19.0,58,0.00,,SKC,0.02,VWS V14.00,2013-02-28 21:07:00,
2013-02-28 16:08:00,39.3,25.8,29.94,North,360,11.0,19.0,58,0.00,,SKC,0.02,VWS V14.00,2013-02-28 21:08:00,
2013-02-28 16:09:00,39.3,25.8,29.94,North,360,14.0,19.0,58,0.00,,SKC,0.02,VWS V14.00,2013-02-28 21:09:00,
2013-02-28 16:10:00,39.3,25.8,29.94,North,360,7.0,19.0,58,0.00,,SKC,0.02,VWS V14.00,2013-02-28 21:10:00,
2013-02-28 16:11:00,39.3,25.8,29.94,North,360,11.0,17.0,58,0.00,,SKC,0.02,VWS V14.00,2013-02-28 21:11:00,
2013-02-28 16:12:00,39.3,25.8,29.94,North,360,11.0,17.0,58,0.00,,SKC,0.02,VWS V14.00,2013-02-28 21:12:00,
2013-02-28 16:13:00,39.3,25.8,29.94,North,360,15.0,23.0,58,0.00,,SKC,0.02,VWS V14.00,2013-02-28 21:13:00,
2013-02-28 16:14:00,39.3,24.1,29.94,North,360,15.0,23.0,54,0.00,,SKC,0.02,VWS V14.00,2013-02-28 21:14:00,
2013-02-28 16:15:00,39.2,25.7,29.94,North,360,11.0,23.0,58,0.00,,SKC,0.02,VWS V14.00,2013-02-28 21:15:00,
2013-02-28 16:16:00,39.2,25.7,29.94,North,360,14.0,23.0,58,0.00,,SKC,0.02,VWS V14.00,2013-02-28 21:16:00,
2013-02-28 16:17:00,39.1,25.6,29.94,North,360,12.0,23.0,58,0.00,,SKC,0.02,VWS V14.00,2013-02-28 21:17:00,
2013-02-28 16:18:00,39.1,25.6,29.94,North,360,9.0,23.0,58,0.00,,SKC,0.02,VWS V14.00,2013-02-28 21:18:00,
2013-02-28 16:19:00,39.1,26.0,29.94,North,360,9.0,23.0,59,0.00,,SKC,0.02,VWS V14.00,2013-02-28 21:19:00,
2013-02-28 16:20:00,39.1,26.0,29.94,North,360,11.0,23.0,59,0.00,,SKC,0.02,VWS V14.00,2013-02-28 21:20:00,
2013-02-28 16:21:00,38.9,25.4,29.94,North,360,12.0,15.0,58,0.00,,SKC,0.02,VWS V14.00,2013-02-28 21:21:00,
2013-02-28 16:22:00,38.9,25.4,29.94,North,360,18.0,21.0,58,0.00,,SKC,0.02,VWS V14.00,2013-02-28 21:22:00,
2013-02-28 16:23:00,38.9,25.4,29.94,North,360,9.0,21.0,58,0.00,,SKC,0.02,VWS V14.00,2013-02-28 21:23:00,
2013-02-28 16:24:00,38.8,25.3,29.94,North,360,7.0,21.0,58,0.00,,SKC,0.02,VWS V14.00,2013-02-28 21:24:00,
2013-02-28 16:25:00,38.8,25.3,29.94,North,360,19.0,21.0,58,0.00,,SKC,0.02,VWS V14.00,2013-02-28 21:25:00,
2013-02-28 16:26:00,38.8,25.3,29.94,North,360,13.0,21.0,58,0.00,,SKC,0.02,VWS V14.00,2013-02-28 21:26:00,
2013-02-28 16:27:00,38.8,25.3,29.94,North,360,16.0,21.0,58,0.00,,SKC,0.02,VWS V14.00,2013-02-28 21:27:00,
2013-02-28 16:28:00,38.6,25.1,29.94,North,360,7.0,21.0,58,0.00,,SKC,0.02,VWS V14.00,2013-02-28 21:28:00,
2013-02-28 16:29:00,38.6,25.5,29.94,North,360,7.0,21.0,59,0.00,,SKC,0.02,VWS V14.00,2013-02-28 21:29:00,
2013-02-28 16:30:00,38.6,25.5,29.95,North,360,12.0,21.0,59,0.00,,SKC,0.02,VWS V14.00,2013-02-28 21:30:00,
2013-02-28 16:31:00,38.8,25.7,29.95,North,360,13.0,15.0,59,0.00,,SKC,0.02,VWS V14.00,2013-02-28 21:31:00,
2013-02-28 16:32:00,38.6,25.5,29.95,North,360,10.0,15.0,59,0.00,,SKC,0.02,VWS V14.00,2013-02-28 21:32:00,
2013-02-28 16:33:00,38.6,25.1,29.95,North,360,11.0,15.0,58,0.00,,SKC,0.02,VWS V14.00,2013-02-28 21:33:00,
2013-02-28 16:34:00,38.6,25.1,29.95,North,360,5.0,15.0,58,0.00,,SKC,0.02,VWS V14.00,2013-02-28 21:34:00,
2013-02-28 16:35:00,38.6,25.5,29.95,North,360,6.0,15.0,59,0.00,,SKC,0.02,VWS V14.00,2013-02-28 21:35:00,
2013-02-28 16:36:00,38.6,25.5,29.95,North,360,11.0,15.0,59,0.00,,SKC,0.02,VWS V14.00,2013-02-28 21:36:00,
2013-02-28 16:37:00,38.6,25.1,29.95,North,360,10.0,15.0,58,0.00,,SKC,0.02,VWS V14.00,2013-02-28 21:37:00,
2013-02-28 16:38:00,38.6,25.1,29.95,North,360,16.0,23.0,58,0.00,,SKC,0.02,VWS V14.00,2013-02-28 21:38:00,
2013-02-28 16:39:00,38.6,25.1,29.95,North,360,12.0,23.0,58,0.00,,SKC,0.02,VWS V14.00,2013-02-28 21:39:00,
2013-02-28 16:40:00,38.5,25.0,29.95,North,360,9.0,23.0,58,0.00,,SKC,0.02,VWS V14.00,2013-02-28 21:40:00,
2013-02-28 16:41:00,38.5,25.0,29.95,North,360,7.0,11.0,58,0.00,,SKC,0.02,VWS V14.00,2013-02-28 21:41:00,
2013-02-28 16:42:00,38.5,25.4,29.95,North,360,8.0,11.0,59,0.00,,SKC,0.02,VWS V14.00,2013-02-28 21:42:00,
2013-02-28 16:43:00,38.5,25.4,29.95,North,360,7.0,11.0,59,0.00,,SKC,0.02,VWS V14.00,2013-02-28 21:43:00,
2013-02-28 16:44:00,38.5,25.0,29.95,North,360,6.0,11.0,58,0.00,,SKC,0.02,VWS V14.00,2013-02-28 21:44:00,
2013-02-28 16:45:00,38.5,25.0,29.95,North,360,18.0,18.0,58,0.00,,SKC,0.02,VWS V14.00,2013-02-28 21:45:00,
2013-02-28 16:46:00,38.5,25.0,29.95,North,360,10.0,18.0,58,0.00,,SKC,0.02,VWS V14.00,2013-02-28 21:46:00,
2013-02-28 16:47:00,38.5,25.0,29.95,North,360,10.0,18.0,58,0.00,,SKC,0.02,VWS V14.00,2013-02-28 21:47:00,
2013-02-28 16:48:00,38.5,25.0,29.95,North,360,14.0,18.0,58,0.00,,SKC,0.02,VWS V14.00,2013-02-28 21:48:00,
2013-02-28 16:49:00,38.5,25.0,29.95,North,360,14.0,18.0,58,0.00,,SKC,0.02,VWS V14.00,2013-02-28 21:49:00,
2013-02-28 16:50:00,38.5,25.0,29.95,North,360,14.0,18.0,58,0.00,,SKC,0.02,VWS V14.00,2013-02-28 21:50:00,
2013-02-28 16:51:00,38.5,25.0,29.95,North,360,14.0,14.0,58,0.00,,SKC,0.02,VWS V14.00,2013-02-28 21:51:00,
2013-02-28 16:52:00,38.5,25.0,29.95,North,360,6.0,14.0,58,0.00,,SKC,0.02,VWS V14.00,2013-02-28 21:52:00,
2013-02-28 16:53:00,38.5,25.0,29.95,North,360,7.0,14.0,58,0.00,,SKC,0.02,VWS V14.00,2013-02-28 21:53:00,
2013-02-28 16:54:00,38.5,25.0,29.95,North,360,6.0,14.0,58,0.00,,SKC,0.02,VWS V14.00,2013-02-28 21:54:00,
2013-02-28 16:55:00,38.5,25.0,29.95,North,360,10.0,14.0,58,0.00,,SKC,0.02,VWS V14.00,2013-02-28 21:55:00,
2013-02-28 16:56:00,38.5,25.0,29.95,North,360,10.0,14.0,58,0.00,,SKC,0.02,VWS V14.00,2013-02-28 21:56:00,
2013-02-28 16:57:00,38.5,25.0,29.95,North,360,10.0,14.0,58,0.00,,SKC,0.02,VWS V14.00,2013-02-28 21:57:00,
2013-02-28 16:58:00,38.5,25.0,29.95,North,360,10.0,14.0,58,0.00,,SKC,0.02,VWS V14.00,2013-02-28 21:58:00,
2013-02-28 17:00:00,38.3,24.8,29.97,North,360,10.0,14.0,58,0.00,,SKC,0.02,VWS V14.00,2013-02-28 22:00:00,
2013-02-28 17:01:00,38.3,24.8,29.97,North,360,13.0,16.0,58,0.00,,SKC,0.02,VWS V14.00,2013-02-28 22:01:00,
2013-02-28 17:02:00,38.3,24.8,29.97,North,360,19.0,20.0,58,0.00,,SKC,0.02,VWS V14.00,2013-02-28 22:02:00,
2013-02-28 17:03:00,38.2,24.7,29.97,North,360,11.0,20.0,58,0.00,,SKC,0.02,VWS V14.00,2013-02-28 22:03:00,
2013-02-28 17:04:00,38.2,24.7,29.97,North,360,17.0,20.0,58,0.00,,SKC,0.02,VWS V14.00,2013-02-28 22:04:00,
2013-02-28 17:05:00,38.2,24.7,29.97,North,360,17.0,21.0,58,0.00,,SKC,0.02,VWS V14.00,2013-02-28 22:05:00,
2013-02-28 17:06:00,38.2,24.7,29.97,North,360,14.0,21.0,58,0.00,,SKC,0.02,VWS V14.00,2013-02-28 22:06:00,
2013-02-28 17:07:00,38.2,24.7,29.97,North,360,12.0,21.0,58,0.00,,SKC,0.02,VWS V14.00,2013-02-28 22:07:00,
2013-02-28 17:08:00,38.0,24.5,29.97,North,360,6.0,21.0,58,0.00,,SKC,0.02,VWS V14.00,2013-02-28 22:08:00,
2013-02-28 17:09:00,38.2,24.7,29.97,North,360,11.0,21.0,58,0.00,,SKC,0.02,VWS V14.00,2013-02-28 22:09:00,
2013-02-28 17:10:00,38.2,24.7,29.97,North,360,10.0,21.0,58,0.00,,SKC,0.02,VWS V14.00,2013-02-28 22:10:00,
2013-02-28 17:11:00,38.2,24.7,29.97,North,360,15.0,15.0,58,0.00,,SKC,0.02,VWS V14.00,2013-02-28 22:11:00,
2013-02-28 17:12:00,38.0,24.5,29.97,North,360,10.0,16.0,58,0.00,,SKC,0.02,VWS V14.00,2013-02-28 22:12:00,
2013-02-28 17:13:00,38.0,24.5,29.97,North,360,13.0,16.0,58,0.00,,SKC,0.02,VWS V14.00,2013-02-28 22:13:00,
2013-02-28 17:14:00,38.0,24.5,29.97,North,360,11.0,17.0,58,0.00,,SKC,0.02,VWS V14.00,2013-02-28 22:14:00,
2013-02-28 17:15:00,38.0,24.5,29.97,North,360,10.0,17.0,58,0.00,,SKC,0.02,VWS V14.00,2013-02-28 22:15:00,
2013-02-28 17:16:00,38.0,24.5,29.97,North,360,12.0,17.0,58,0.00,,SKC,0.02,VWS V14.00,2013-02-28 22:16:00,
2013-02-28 17:17:00,38.0,24.5,29.97,North,360,10.0,17.0,58,0.00,,SKC,0.02,VWS V14.00,2013-02-28 22:17:00,
2013-02-28 17:18:00,38.0,24.5,29.97,North,360,9.0,17.0,58,0.00,,SKC,0.02,VWS V14.00,2013-02-28 22:18:00,
2013-02-28 17:19:00,38.0,24.5,29.97,North,360,10.0,17.0,58,0.00,,SKC,0.02,VWS V14.00,2013-02-28 22:19:00,
2013-02-28 17:20:00,38.0,24.5,29.97,North,360,5.0,17.0,58,0.00,,SKC,0.02,VWS V14.00,2013-02-28 22:20:00,
2013-02-28 17:21:00,38.0,24.5,29.97,North,360,10.0,13.0,58,0.00,,SKC,0.02,VWS V14.00,2013-02-28 22:21:00,
2013-02-28 17:22:00,38.0,24.5,29.97,North,360,3.0,13.0,58,0.00,,SKC,0.02,VWS V14.00,2013-02-28 22:22:00,
2013-02-28 17:23:00,38.0,24.5,29.97,North,360,9.0,13.0,58,0.00,,SKC,0.02,VWS V14.00,2013-02-28 22:23:00,
2013-02-28 17:24:00,38.0,24.5,29.97,North,360,5.0,13.0,58,0.00,,SKC,0.02,VWS V14.00,2013-02-28 22:24:00,
2013-02-28 17:25:00,38.0,24.5,29.97,North,360,11.0,13.0,58,0.00,,SKC,0.02,VWS V14.00,2013-02-28 22:25:00,
2013-02-28 17:26:00,38.0,24.5,29.97,North,360,9.0,13.0,58,0.00,,SKC,0.02,VWS V14.00,2013-02-28 22:26:00,
2013-02-28 17:27:00,38.0,24.5,29.97,North,360,16.0,18.0,58,0.00,,SKC,0.02,VWS V14.00,2013-02-28 22:27:00,
2013-02-28 17:28:00,38.0,24.5,29.97,North,360,12.0,19.0,58,0.00,,SKC,0.02,VWS V14.00,2013-02-28 22:28:00,
2013-02-28 17:29:00,37.9,24.5,29.97,North,360,8.0,19.0,58,0.00,,SKC,0.02,VWS V14.00,2013-02-28 22:29:00,
2013-02-28 17:30:00,37.9,24.5,29.97,North,360,11.0,19.0,58,0.00,,SKC,0.02,VWS V14.00,2013-02-28 22:30:00,
2013-02-28 17:31:00,37.9,24.5,29.97,North,360,14.0,15.0,58,0.00,,SKC,0.02,VWS V14.00,2013-02-28 22:31:00,
2013-02-28 17:32:00,37.9,24.5,29.97,North,360,14.0,21.0,58,0.00,,SKC,0.02,VWS V14.00,2013-02-28 22:32:00,
2013-02-28 17:33:00,37.8,24.4,29.97,North,360,11.0,21.0,58,0.00,,SKC,0.02,VWS V14.00,2013-02-28 22:33:00,
2013-02-28 17:34:00,37.8,24.4,29.97,North,360,12.0,21.0,58,0.00,,SKC,0.02,VWS V14.00,2013-02-28 22:34:00,
2013-02-28 17:35:00,37.8,24.4,29.97,North,360,10.0,21.0,58,0.00,,SKC,0.02,VWS V14.00,2013-02-28 22:35:00,
2013-02-28 17:36:00,37.8,24.4,29.97,North,360,7.0,21.0,58,0.00,,SKC,0.02,VWS V14.00,2013-02-28 22:36:00,
2013-02-28 17:37:00,37.8,24.4,29.97,North,360,12.0,21.0,58,0.00,,SKC,0.02,VWS V14.00,2013-02-28 22:37:00,
2013-02-28 17:38:00,37.8,24.4,29.97,North,360,8.0,21.0,58,0.00,,SKC,0.02,VWS V14.00,2013-02-28 22:38:00,
2013-02-28 17:39:00,37.8,24.4,29.97,North,360,14.0,21.0,58,0.00,,SKC,0.02,VWS V14.00,2013-02-28 22:39:00,
2013-02-28 17:40:00,37.8,24.4,29.97,North,360,15.0,21.0,58,0.00,,SKC,0.02,VWS V14.00,2013-02-28 22:40:00,
2013-02-28 17:41:00,37.6,24.2,29.97,North,360,13.0,20.0,58,0.00,,SKC,0.02,VWS V14.00,2013-02-28 22:41:00,
2013-02-28 17:42:00,37.6,24.2,29.97,North,360,9.0,20.0,58,0.00,,SKC,0.02,VWS V14.00,2013-02-28 22:42:00,
2013-02-28 17:43:00,37.6,24.2,29.97,North,360,14.0,20.0,58,0.00,,SKC,0.02,VWS V14.00,2013-02-28 22:43:00,
2013-02-28 17:44:00,37.6,24.2,29.97,North,360,11.0,20.0,58,0.00,,SKC,0.02,VWS V14.00,2013-02-28 22:44:00,
2013-02-28 17:45:00,37.6,24.2,29.97,North,360,12.0,20.0,58,0.00,,SKC,0.02,VWS V14.00,2013-02-28 22:45:00,
2013-02-28 17:46:00,37.6,24.2,29.97,North,360,11.0,20.0,58,0.00,,SKC,0.02,VWS V14.00,2013-02-28 22:46:00,
2013-02-28 17:47:00,37.5,24.1,29.97,North,360,16.0,20.0,58,0.00,,SKC,0.02,VWS V14.00,2013-02-28 22:47:00,
2013-02-28 17:48:00,37.5,24.1,29.97,North,360,19.0,20.0,58,0.00,,SKC,0.02,VWS V14.00,2013-02-28 22:48:00,
2013-02-28 17:49:00,37.5,24.1,29.97,North,360,19.0,20.0,58,0.00,,SKC,0.02,VWS V14.00,2013-02-28 22:49:00,
2013-02-28 17:50:00,37.5,24.5,29.97,North,360,14.0,23.0,59,0.00,,SKC,0.02,VWS V14.00,2013-02-28 22:50:00,
2013-02-28 17:51:00,37.5,24.5,29.97,North,360,9.0,14.0,59,0.00,,SKC,0.02,VWS V14.00,2013-02-28 22:51:00,
2013-02-28 17:52:00,37.3,24.3,29.97,North,360,11.0,14.0,59,0.00,,SKC,0.02,VWS V14.00,2013-02-28 22:52:00,
2013-02-28 17:53:00,37.3,24.3,29.97,North,360,10.0,18.0,59,0.00,,SKC,0.02,VWS V14.00,2013-02-28 22:53:00,
2013-02-28 17:54:00,37.3,24.3,29.97,North,360,5.0,18.0,59,0.00,,SKC,0.02,VWS V14.00,2013-02-28 22:54:00,
2013-02-28 17:55:00,37.3,24.3,29.97,North,360,12.0,18.0,59,0.00,,SKC,0.02,VWS V14.00,2013-02-28 22:55:00,
2013-02-28 17:56:00,37.3,24.3,29.97,North,360,13.0,18.0,59,0.00,,SKC,0.02,VWS V14.00,2013-02-28 22:56:00,
2013-02-28 17:57:00,37.3,24.3,29.97,North,360,12.0,18.0,59,0.00,,SKC,0.02,VWS V14.00,2013-02-28 22:57:00,
2013-02-28 17:58:00,37.2,24.2,29.97,North,360,9.0,20.0,59,0.00,,SKC,0.02,VWS V14.00,2013-02-28 22:58:00,
2013-02-28 17:59:00,37.2,24.2,29.97,North,360,13.0,20.0,59,0.00,,SKC,0.02,VWS V14.00,2013-02-28 22:59:00,
2013-02-28 18:00:00,37.2,24.2,29.97,North,360,13.0,20.0,59,0.00,,SKC,0.02,VWS V14.00,2013-02-28 23:00:00,
2013-02-28 18:01:00,37.2,24.2,29.98,North,360,10.0,17.0,59,0.00,,SKC,0.02,VWS V14.00,2013-02-28 23:01:00,
2013-02-28 18:02:00,37.2,24.2,29.98,North,360,11.0,17.0,59,0.00,,SKC,0.02,VWS V14.00,2013-02-28 23:02:00,
2013-02-28 18:03:00,37.2,24.2,29.98,North,360,10.0,17.0,59,0.00,,SKC,0.02,VWS V14.00,2013-02-28 23:03:00,
2013-02-28 18:04:00,37.0,24.0,29.98,North,360,12.0,18.0,59,0.00,,SKC,0.02,VWS V14.00,2013-02-28 23:04:00,
2013-02-28 18:05:00,37.0,24.0,29.98,North,360,11.0,18.0,59,0.00,,SKC,0.02,VWS V14.00,2013-02-28 23:05:00,
2013-02-28 18:06:00,37.0,24.0,29.98,North,360,13.0,18.0,59,0.00,,SKC,0.02,VWS V14.00,2013-02-28 23:06:00,
2013-02-28 18:07:00,37.0,24.0,29.98,North,360,11.0,18.0,59,0.00,,SKC,0.02,VWS V14.00,2013-02-28 23:07:00,
2013-02-28 18:08:00,37.0,24.0,29.98,North,360,16.0,18.0,59,0.00,,SKC,0.02,VWS V14.00,2013-02-28 23:08:00,
2013-02-28 18:09:00,37.0,24.0,29.98,North,360,11.0,18.0,59,0.00,,SKC,0.02,VWS V14.00,2013-02-28 23:09:00,
2013-02-28 18:10:00,37.0,24.0,29.98,North,360,10.0,18.0,59,0.00,,SKC,0.02,VWS V14.00,2013-02-28 23:10:00,
2013-02-28 18:11:00,37.0,24.0,29.98,North,360,8.0,14.0,59,0.00,,SKC,0.02,VWS V14.00,2013-02-28 23:11:00,
2013-02-28 18:12:00,36.9,24.3,29.98,North,360,6.0,15.0,60,0.00,,SKC,0.02,VWS V14.00,2013-02-28 23:12:00,
2013-02-28 18:13:00,36.9,23.9,29.98,North,360,20.0,20.0,59,0.00,,SKC,0.02,VWS V14.00,2013-02-28 23:13:00,
2013-02-28 18:14:00,36.9,23.9,29.98,North,360,11.0,20.0,59,0.00,,SKC,0.02,VWS V14.00,2013-02-28 23:14:00,
2013-02-28 18:15:00,36.9,23.9,29.97,North,360,12.0,20.0,59,0.00,,SKC,0.02,VWS V14.00,2013-02-28 23:15:00,
2013-02-28 18:16:00,36.9,23.9,29.97,North,360,7.0,20.0,59,0.00,,SKC,0.02,VWS V14.00,2013-02-28 23:16:00,
2013-02-28 18:17:00,36.9,23.9,29.97,North,360,8.0,20.0,59,0.00,,SKC,0.02,VWS V14.00,2013-02-28 23:17:00,
2013-02-28 18:18:00,36.9,23.9,29.97,North,360,12.0,20.0,59,0.00,,SKC,0.02,VWS V14.00,2013-02-28 23:18:00,
2013-02-28 18:19:00,36.9,23.9,29.97,North,360,6.0,20.0,59,0.00,,SKC,0.02,VWS V14.00,2013-02-28 23:19:00,
2013-02-28 18:20:00,36.9,23.9,29.97,North,360,7.0,20.0,59,0.00,,SKC,0.02,VWS V14.00,2013-02-28 23:20:00,
2013-02-28 18:21:00,36.9,23.9,29.97,North,360,12.0,16.0,59,0.00,,SKC,0.02,VWS V14.00,2013-02-28 23:21:00,
2013-02-28 18:22:00,36.9,23.9,29.97,North,360,10.0,16.0,59,0.00,,SKC,0.02,VWS V14.00,2013-02-28 23:22:00,
2013-02-28 18:23:00,36.9,24.3,29.97,North,360,14.0,16.0,60,0.00,,SKC,0.02,VWS V14.00,2013-02-28 23:23:00,
2013-02-28 18:24:00,36.8,24.2,29.97,North,360,10.0,19.0,60,0.00,,SKC,0.02,VWS V14.00,2013-02-28 23:24:00,
2013-02-28 18:25:00,36.8,24.2,29.97,North,360,7.0,19.0,60,0.00,,SKC,0.02,VWS V14.00,2013-02-28 23:25:00,
2013-02-28 18:26:00,36.8,24.2,29.97,North,360,12.0,19.0,60,0.00,,SKC,0.02,VWS V14.00,2013-02-28 23:26:00,
2013-02-28 18:27:00,36.8,24.2,29.97,North,360,15.0,19.0,60,0.00,,SKC,0.02,VWS V14.00,2013-02-28 23:27:00,
2013-02-28 18:28:00,36.8,24.2,29.97,North,360,10.0,19.0,60,0.00,,SKC,0.02,VWS V14.00,2013-02-28 23:28:00,
2013-02-28 18:29:00,36.8,24.2,29.97,North,360,10.0,19.0,60,0.00,,SKC,0.02,VWS V14.00,2013-02-28 23:29:00,
2013-02-28 18:30:00,36.8,24.2,29.97,North,360,10.0,19.0,60,0.00,,SKC,0.02,VWS V14.00,2013-02-28 23:30:00,
2013-02-28 18:31:00,36.8,24.2,29.97,North,360,7.0,13.0,60,0.00,,SKC,0.02,VWS V14.00,2013-02-28 23:31:00,
2013-02-28 18:32:00,36.8,24.2,29.97,North,360,7.0,13.0,60,0.00,,SKC,0.02,VWS V14.00,2013-02-28 23:32:00,
2013-02-28 18:33:00,36.8,24.2,29.97,North,360,9.0,13.0,60,0.00,,SKC,0.02,VWS V14.00,2013-02-28 23:33:00,
2013-02-28 18:34:00,36.8,24.2,29.97,North,360,10.0,13.0,60,0.00,,SKC,0.02,VWS V14.00,2013-02-28 23:34:00,
2013-02-28 18:35:00,36.8,24.2,29.97,North,360,13.0,13.0,60,0.00,,SKC,0.02,VWS V14.00,2013-02-28 23:35:00,
2013-02-28 18:36:00,36.8,24.2,29.97,North,360,7.0,19.0,60,0.00,,SKC,0.02,VWS V14.00,2013-02-28 23:36:00,
2013-02-28 18:37:00,36.8,24.2,29.97,North,360,6.0,19.0,60,0.00,,SKC,0.02,VWS V14.00,2013-02-28 23:37:00,
2013-02-28 18:38:00,36.6,24.0,29.97,North,360,8.0,19.0,60,0.00,,SKC,0.02,VWS V14.00,2013-02-28 23:38:00,
2013-02-28 18:39:00,36.6,24.0,29.97,North,360,10.0,19.0,60,0.00,,SKC,0.02,VWS V14.00,2013-02-28 23:39:00,
2013-02-28 18:40:00,36.6,24.0,29.97,North,360,13.0,19.0,60,0.00,,SKC,0.02,VWS V14.00,2013-02-28 23:40:00,
2013-02-28 18:41:00,36.6,24.0,29.97,North,360,10.0,15.0,60,0.00,,SKC,0.02,VWS V14.00,2013-02-28 23:41:00,
2013-02-28 18:42:00,36.6,24.0,29.97,North,360,6.0,15.0,60,0.00,,SKC,0.02,VWS V14.00,2013-02-28 23:42:00,
2013-02-28 18:43:00,36.6,24.0,29.97,North,360,8.0,15.0,60,0.00,,SKC,0.02,VWS V14.00,2013-02-28 23:43:00,
2013-02-28 18:44:00,36.6,24.0,29.97,North,360,12.0,15.0,60,0.00,,SKC,0.02,VWS V14.00,2013-02-28 23:44:00,
2013-02-28 18:45:00,36.6,24.0,29.98,North,360,11.0,15.0,60,0.00,,SKC,0.02,VWS V14.00,2013-02-28 23:45:00,
2013-02-28 18:46:00,36.6,24.0,29.98,North,360,6.0,15.0,60,0.00,,SKC,0.02,VWS V14.00,2013-02-28 23:46:00,
2013-02-28 18:47:00,36.6,24.0,29.98,North,360,10.0,16.0,60,0.00,,SKC,0.02,VWS V14.00,2013-02-28 23:47:00,
2013-02-28 18:48:00,36.6,24.0,29.98,North,360,11.0,16.0,60,0.00,,SKC,0.02,VWS V14.00,2013-02-28 23:48:00,
2013-02-28 18:49:00,36.5,24.0,29.98,North,360,11.0,21.0,60,0.00,,SKC,0.02,VWS V14.00,2013-02-28 23:49:00,
2013-02-28 18:50:00,36.5,24.0,29.98,North,360,6.0,21.0,60,0.00,,SKC,0.02,VWS V14.00,2013-02-28 23:50:00,
2013-02-28 18:51:00,36.5,24.0,29.98,North,360,6.0,13.0,60,0.00,,SKC,0.02,VWS V14.00,2013-02-28 23:51:00,
2013-02-28 18:52:00,36.5,24.0,29.98,North,360,9.0,13.0,60,0.00,,SKC,0.02,VWS V14.00,2013-02-28 23:52:00,
2013-02-28 18:53:00,36.5,24.0,29.98,North,360,8.0,13.0,60,0.00,,SKC,0.02,VWS V14.00,2013-02-28 23:53:00,
2013-02-28 18:54:00,36.5,24.0,29.98,North,360,14.0,16.0,60,0.00,,SKC,0.02,VWS V14.00,2013-02-28 23:54:00,
2013-02-28 18:55:00,36.5,24.0,29.98,North,360,14.0,18.0,60,0.00,,SKC,0.02,VWS V14.00,2013-02-28 23:55:00,
2013-02-28 18:56:00,36.5,24.0,29.98,NNE,15,10.0,18.0,60,0.00,,SKC,0.02,VWS V14.00,2013-02-28 23:56:00,
2013-02-28 18:57:00,36.5,24.0,29.98,North,360,10.0,18.0,60,0.00,,SKC,0.02,VWS V14.00,2013-02-28 23:57:00,
2013-02-28 18:58:00,36.5,24.0,29.98,North,360,11.0,18.0,60,0.00,,SKC,0.02,VWS V14.00,2013-02-28 23:58:00,
2013-02-28 19:00:00,36.5,24.0,29.98,North,360,9.0,18.0,60,0.00,,SKC,0.02,VWS V14.00,2013-03-01 00:00:00,
2013-02-28 19:01:00,36.5,23.5,29.98,North,360,14.0,22.0,59,0.00,,SKC,0.02,VWS V14.00,2013-03-01 00:01:00,
2013-02-28 19:02:00,36.5,23.5,29.98,NNE,17,10.0,22.0,59,0.00,,SKC,0.02,VWS V14.00,2013-03-01 00:02:00,
2013-02-28 19:03:00,36.5,23.5,29.98,North,360,13.0,22.0,59,0.00,,SKC,0.02,VWS V14.00,2013-03-01 00:03:00,
2013-02-28 19:04:00,36.5,23.5,29.98,North,360,12.0,22.0,59,0.01,,SKC,0.03,VWS V14.00,2013-03-01 00:04:00,
2013-02-28 19:05:00,36.5,23.5,29.98,North,360,15.0,22.0,59,0.01,,SKC,0.03,VWS V14.00,2013-03-01 00:05:00,
2013-02-28 19:06:00,36.5,23.5,29.98,North,360,12.0,22.0,59,0.01,,SKC,0.03,VWS V14.00,2013-03-01 00:06:00,
2013-02-28 19:07:00,36.5,23.5,29.98,North,360,11.0,22.0,59,0.01,,SKC,0.03,VWS V14.00,2013-03-01 00:07:00,
2013-02-28 19:08:00,36.5,24.0,29.98,North,360,9.0,22.0,60,0.01,,SKC,0.03,VWS V14.00,2013-03-01 00:08:00,
2013-02-28 19:09:00,36.5,24.0,29.98,North,360,11.0,22.0,60,0.01,,SKC,0.03,VWS V14.00,2013-03-01 00:09:00,
2013-02-28 19:10:00,36.5,24.0,29.98,North,360,7.0,22.0,60,0.01,,SKC,0.03,VWS V14.00,2013-03-01 00:10:00,
2013-02-28 19:11:00,36.5,24.0,29.98,North,360,9.0,11.0,60,0.01,,SKC,0.03,VWS V14.00,2013-03-01 00:11:00,
2013-02-28 19:12:00,36.5,23.5,29.98,North,360,10.0,15.0,59,0.01,,SKC,0.03,VWS V14.00,2013-03-01 00:12:00,
2013-02-28 19:13:00,36.5,23.5,29.98,North,360,10.0,21.0,59,0.01,,SKC,0.03,VWS V14.00,2013-03-01 00:13:00,
2013-02-28 19:14:00,36.5,23.5,29.98,North,360,9.0,21.0,59,0.01,,SKC,0.03,VWS V14.00,2013-03-01 00:14:00,
2013-02-28 19:15:00,36.5,24.0,29.98,North,360,13.0,21.0,60,0.01,,SKC,0.03,VWS V14.00,2013-03-01 00:15:00,
2013-02-28 19:16:00,36.5,24.0,29.98,North,360,14.0,21.0,60,0.01,,SKC,0.03,VWS V14.00,2013-03-01 00:16:00,
2013-02-28 19:17:00,36.5,24.0,29.98,North,360,16.0,21.0,60,0.01,,SKC,0.03,VWS V14.00,2013-03-01 00:17:00,
2013-02-28 19:18:00,36.5,24.0,29.98,North,360,20.0,21.0,60,0.01,,SKC,0.03,VWS V14.00,2013-03-01 00:18:00,
2013-02-28 19:19:00,36.5,24.0,29.98,North,360,11.0,21.0,60,0.01,,SKC,0.03,VWS V14.00,2013-03-01 00:19:00,
2013-02-28 19:20:00,36.5,24.0,29.98,North,360,18.0,21.0,60,0.01,,SKC,0.03,VWS V14.00,2013-03-01 00:20:00,
2013-02-28 19:21:00,36.5,24.0,29.98,North,360,15.0,21.0,60,0.01,,SKC,0.03,VWS V14.00,2013-03-01 00:21:00,
2013-02-28 19:22:00,36.5,24.0,29.98,North,360,13.0,21.0,60,0.01,,SKC,0.03,VWS V14.00,2013-03-01 00:22:00,
2013-02-28 19:23:00,36.5,24.0,29.98,North,360,9.0,21.0,60,0.01,,SKC,0.03,VWS V14.00,2013-03-01 00:23:00,
2013-02-28 19:24:00,36.5,24.0,29.98,North,360,9.0,21.0,60,0.01,,SKC,0.03,VWS V14.00,2013-03-01 00:24:00,
2013-02-28 19:25:00,36.5,24.0,29.98,North,360,9.0,21.0,60,0.01,,SKC,0.03,VWS V14.00,2013-03-01 00:25:00,
2013-02-28 19:26:00,36.5,24.0,29.98,North,360,9.0,21.0,60,0.01,,SKC,0.03,VWS V14.00,2013-03-01 00:26:00,
2013-02-28 19:27:00,36.5,24.0,29.98,North,360,9.0,21.0,60,0.01,,SKC,0.03,VWS V14.00,2013-03-01 00:27:00,
2013-02-28 19:28:00,36.5,24.0,29.98,North,360,9.0,21.0,60,0.01,,SKC,0.03,VWS V14.00,2013-03-01 00:28:00,
2013-02-28 19:29:00,36.5,24.0,29.98,North,360,9.0,21.0,60,0.01,,SKC,0.03,VWS V14.00,2013-03-01 00:29:00,
2013-02-28 19:30:00,36.5,24.0,29.98,North,360,9.0,21.0,60,0.01,,SKC,0.03,VWS V14.00,2013-03-01 00:30:00,
2013-02-28 19:31:00,36.5,24.0,29.98,North,360,9.0,9.0,60,0.01,,SKC,0.03,VWS V14.00,2013-03-01 00:31:00,
2013-02-28 19:32:00,36.5,24.0,29.98,North,360,9.0,9.0,60,0.01,,SKC,0.03,VWS V14.00,2013-03-01 00:32:00,
2013-02-28 19:33:00,36.5,24.0,29.98,North,360,9.0,9.0,60,0.01,,SKC,0.03,VWS V14.00,2013-03-01 00:33:00,
2013-02-28 19:34:00,36.5,24.0,29.98,North,360,9.0,9.0,60,0.01,,SKC,0.03,VWS V14.00,2013-03-01 00:34:00,
2013-02-28 19:35:00,36.5,24.0,29.98,North,360,9.0,9.0,60,0.01,,SKC,0.03,VWS V14.00,2013-03-01 00:35:00,
2013-02-28 19:36:00,36.5,24.0,29.98,North,360,9.0,9.0,60,0.01,,SKC,0.03,VWS V14.00,2013-03-01 00:36:00,
2013-02-28 19:37:00,36.5,24.0,29.98,North,360,9.0,9.0,60,0.01,,SKC,0.03,VWS V14.00,2013-03-01 00:37:00,
2013-02-28 19:38:00,36.5,24.0,29.98,North,360,9.0,9.0,60,0.01,,SKC,0.03,VWS V14.00,2013-03-01 00:38:00,
2013-02-28 19:39:00,36.5,24.0,29.98,North,360,9.0,9.0,60,0.01,,SKC,0.03,VWS V14.00,2013-03-01 00:39:00,
2013-02-28 19:40:00,36.5,24.0,29.98,North,360,9.0,9.0,60,0.01,,SKC,0.03,VWS V14.00,2013-03-01 00:40:00,
2013-02-28 19:41:00,36.5,24.0,29.98,North,360,9.0,9.0,60,0.01,,SKC,0.03,VWS V14.00,2013-03-01 00:41:00,
2013-02-28 19:42:00,36.5,24.0,29.98,North,360,9.0,9.0,60,0.01,,SKC,0.03,VWS V14.00,2013-03-01 00:42:00,
2013-02-28 19:43:00,36.5,24.0,29.98,North,360,9.0,9.0,60,0.01,,SKC,0.03,VWS V14.00,2013-03-01 00:43:00,
2013-02-28 19:44:00,36.5,24.0,29.98,North,360,9.0,9.0,60,0.01,,SKC,0.03,VWS V14.00,2013-03-01 00:44:00,
2013-02-28 19:45:00,36.5,24.0,29.97,North,360,9.0,9.0,60,0.01,,SKC,0.03,VWS V14.00,2013-03-01 00:45:00,
2013-02-28 19:46:00,36.5,24.0,29.97,North,360,9.0,9.0,60,0.01,,SKC,0.03,VWS V14.00,2013-03-01 00:46:00,
2013-02-28 19:47:00,36.5,24.0,29.97,North,360,9.0,9.0,60,0.01,,SKC,0.03,VWS V14.00,2013-03-01 00:47:00,
2013-02-28 19:48:00,36.5,24.0,29.97,North,360,9.0,9.0,60,0.01,,SKC,0.03,VWS V14.00,2013-03-01 00:48:00,
2013-02-28 19:49:00,36.5,24.0,29.97,North,360,9.0,9.0,60,0.01,,SKC,0.03,VWS V14.00,2013-03-01 00:49:00,
2013-02-28 19:50:00,36.5,24.0,29.97,North,360,9.0,9.0,60,0.01,,SKC,0.03,VWS V14.00,2013-03-01 00:50:00,
2013-02-28 19:51:00,36.5,24.0,29.97,North,360,9.0,9.0,60,0.01,,SKC,0.03,VWS V14.00,2013-03-01 00:51:00,
2013-02-28 19:52:00,36.5,24.0,29.97,North,360,9.0,9.0,60,0.01,,SKC,0.03,VWS V14.00,2013-03-01 00:52:00,
2013-02-28 19:53:00,36.5,24.0,29.97,North,360,9.0,9.0,60,0.01,,SKC,0.03,VWS V14.00,2013-03-01 00:53:00,
2013-02-28 19:54:00,36.5,24.0,29.97,North,360,9.0,9.0,60,0.01,,SKC,0.03,VWS V14.00,2013-03-01 00:54:00,
2013-02-28 19:55:00,36.5,24.0,29.97,North,360,9.0,9.0,60,0.01,,SKC,0.03,VWS V14.00,2013-03-01 00:55:00,
2013-02-28 19:56:00,36.5,24.0,29.97,North,360,9.0,9.0,60,0.01,,SKC,0.03,VWS V14.00,2013-03-01 00:56:00,
2013-02-28 19:57:00,36.5,24.0,29.97,North,360,9.0,9.0,60,0.01,,SKC,0.03,VWS V14.00,2013-03-01 00:57:00,
2013-02-28 19:58:00,36.5,24.0,29.97,North,360,9.0,9.0,60,0.01,,SKC,0.03,VWS V14.00,2013-03-01 00:58:00,
2013-02-28 19:59:00,36.5,24.0,29.97,North,360,9.0,9.0,60,0.01,,SKC,0.03,VWS V14.00,2013-03-01 00:59:00,
2013-02-28 20:00:00,36.5,24.0,29.97,North,360,9.0,9.0,60,0.01,,SKC,0.03,VWS V14.00,2013-03-01 01:00:00,
2013-02-28 20:01:00,36.5,24.0,29.97,North,360,9.0,9.0,60,0.01,,SKC,0.03,VWS V14.00,2013-03-01 01:01:00,
2013-02-28 20:02:00,36.5,24.0,29.97,North,360,9.0,9.0,60,0.01,,SKC,0.03,VWS V14.00,2013-03-01 01:02:00,
2013-02-28 20:03:00,36.5,24.0,29.97,North,360,9.0,9.0,60,0.01,,SKC,0.03,VWS V14.00,2013-03-01 01:03:00,
2013-02-28 20:04:00,36.5,24.0,29.97,North,360,9.0,9.0,60,0.01,,SKC,0.03,VWS V14.00,2013-03-01 01:04:00,
2013-02-28 20:05:00,36.5,24.0,29.97,North,360,9.0,9.0,60,0.01,,SKC,0.03,VWS V14.00,2013-03-01 01:05:00,
2013-02-28 20:06:00,36.5,24.0,29.97,North,360,9.0,9.0,60,0.01,,SKC,0.03,VWS V14.00,2013-03-01 01:06:00,
2013-02-28 20:07:00,36.5,24.0,29.97,North,360,9.0,9.0,60,0.01,,SKC,0.03,VWS V14.00,2013-03-01 01:07:00,
2013-02-28 20:08:00,36.5,24.0,29.97,North,360,9.0,9.0,60,0.01,,SKC,0.03,VWS V14.00,2013-03-01 01:08:00,
2013-02-28 20:09:00,36.5,24.0,29.97,North,360,9.0,9.0,60,0.01,,SKC,0.03,VWS V14.00,2013-03-01 01:09:00,
2013-02-28 20:10:00,36.5,24.0,29.97,North,360,9.0,9.0,60,0.01,,SKC,0.03,VWS V14.00,2013-03-01 01:10:00,
2013-02-28 20:11:00,36.5,24.0,29.97,North,360,9.0,9.0,60,0.00,,SKC,0.03,VWS V14.00,2013-03-01 01:11:00,
2013-02-28 20:12:00,36.5,24.0,29.97,North,360,9.0,9.0,60,0.00,,SKC,0.03,VWS V14.00,2013-03-01 01:12:00,
2013-02-28 20:13:00,36.5,24.0,29.97,North,360,9.0,9.0,60,0.00,,SKC,0.03,VWS V14.00,2013-03-01 01:13:00,
2013-02-28 20:14:00,36.5,24.0,29.97,North,360,9.0,9.0,60,0.00,,SKC,0.03,VWS V14.00,2013-03-01 01:14:00,
2013-02-28 20:15:00,36.5,24.0,29.97,North,360,9.0,9.0,60,0.00,,SKC,0.03,VWS V14.00,2013-03-01 01:15:00,
2013-02-28 20:16:00,36.5,24.0,29.97,North,360,9.0,9.0,60,0.00,,SKC,0.03,VWS V14.00,2013-03-01 01:16:00,
2013-02-28 20:17:00,36.5,24.0,29.97,North,360,9.0,9.0,60,0.00,,SKC,0.03,VWS V14.00,2013-03-01 01:17:00,
2013-02-28 20:18:00,36.5,24.0,29.97,North,360,9.0,9.0,60,0.00,,SKC,0.03,VWS V14.00,2013-03-01 01:18:00,
2013-02-28 20:19:00,36.5,24.0,29.97,North,360,9.0,9.0,60,0.00,,SKC,0.03,VWS V14.00,2013-03-01 01:19:00,
2013-02-28 20:20:00,36.5,24.0,29.97,North,360,9.0,9.0,60,0.00,,SKC,0.03,VWS V14.00,2013-03-01 01:20:00,
2013-02-28 20:21:00,36.5,24.0,29.97,North,360,9.0,9.0,60,0.00,,SKC,0.03,VWS V14.00,2013-03-01 01:21:00,
2013-02-28 20:22:00,36.5,24.0,29.97,North,360,9.0,9.0,60,0.00,,SKC,0.03,VWS V14.00,2013-03-01 01:22:00,
2013-02-28 20:23:00,36.5,24.0,29.97,North,360,9.0,9.0,60,0.00,,SKC,0.03,VWS V14.00,2013-03-01 01:23:00,
2013-02-28 20:24:00,36.5,24.0,29.97,North,360,9.0,9.0,60,0.00,,SKC,0.03,VWS V14.00,2013-03-01 01:24:00,
2013-02-28 20:25:00,36.5,24.0,29.97,North,360,9.0,9.0,60,0.00,,SKC,0.03,VWS V14.00,2013-03-01 01:25:00,
2013-02-28 20:26:00,36.5,24.0,29.97,North,360,9.0,9.0,60,0.00,,SKC,0.03,VWS V14.00,2013-03-01 01:26:00,
2013-02-28 20:27:00,36.5,24.0,29.97,North,360,9.0,9.0,60,0.00,,SKC,0.03,VWS V14.00,2013-03-01 01:27:00,
2013-02-28 20:28:00,36.5,24.0,29.97,North,360,9.0,9.0,60,0.00,,SKC,0.03,VWS V14.00,2013-03-01 01:28:00,
2013-02-28 20:29:00,36.5,24.0,29.97,North,360,9.0,9.0,60,0.00,,SKC,0.03,VWS V14.00,2013-03-01 01:29:00,
2013-02-28 20:30:00,36.5,24.0,29.98,North,360,9.0,9.0,60,0.00,,SKC,0.03,VWS V14.00,2013-03-01 01:30:00,
2013-02-28 20:31:00,36.5,24.0,29.98,North,360,9.0,9.0,60,0.00,,SKC,0.03,VWS V14.00,2013-03-01 01:31:00,
2013-02-28 20:32:00,36.5,24.0,29.98,North,360,9.0,9.0,60,0.00,,SKC,0.03,VWS V14.00,2013-03-01 01:32:00,
2013-02-28 20:33:00,36.5,24.0,29.98,North,360,9.0,9.0,60,0.00,,SKC,0.03,VWS V14.00,2013-03-01 01:33:00,
2013-02-28 20:34:00,36.5,24.0,29.98,North,360,9.0,9.0,60,0.00,,SKC,0.03,VWS V14.00,2013-03-01 01:34:00,
2013-02-28 20:35:00,36.5,24.0,29.98,North,360,9.0,9.0,60,0.00,,SKC,0.03,VWS V14.00,2013-03-01 01:35:00,
2013-02-28 20:36:00,36.5,24.0,29.98,North,360,9.0,9.0,60,0.00,,SKC,0.03,VWS V14.00,2013-03-01 01:36:00,
2013-02-28 20:37:00,36.5,24.0,29.98,North,360,9.0,9.0,60,0.00,,SKC,0.03,VWS V14.00,2013-03-01 01:37:00,
2013-02-28 20:38:00,36.5,24.0,29.98,North,360,9.0,9.0,60,0.00,,SKC,0.03,VWS V14.00,2013-03-01 01:38:00,
2013-02-28 20:39:00,36.5,24.0,29.98,North,360,9.0,9.0,60,0.00,,SKC,0.03,VWS V14.00,2013-03-01 01:39:00,
2013-02-28 20:40:00,36.5,24.0,29.98,North,360,9.0,9.0,60,0.00,,SKC,0.03,VWS V14.00,2013-03-01 01:40:00,
2013-02-28 20:41:00,36.5,24.0,29.98,North,360,9.0,9.0,60,0.00,,SKC,0.03,VWS V14.00,2013-03-01 01:41:00,
2013-02-28 20:42:00,36.5,24.0,29.98,North,360,9.0,9.0,60,0.00,,SKC,0.03,VWS V14.00,2013-03-01 01:42:00,
2013-02-28 20:43:00,36.5,24.0,29.98,North,360,9.0,9.0,60,0.00,,SKC,0.03,VWS V14.00,2013-03-01 01:43:00,
2013-02-28 20:44:00,36.5,24.0,29.98,North,360,9.0,9.0,60,0.00,,SKC,0.03,VWS V14.00,2013-03-01 01:44:00,
2013-02-28 20:45:00,36.5,24.0,29.98,North,360,9.0,9.0,60,0.00,,SKC,0.03,VWS V14.00,2013-03-01 01:45:00,
2013-02-28 20:46:00,36.5,24.0,29.98,North,360,9.0,9.0,60,0.00,,SKC,0.03,VWS V14.00,2013-03-01 01:46:00,
2013-02-28 20:47:00,36.5,24.0,29.98,North,360,9.0,9.0,60,0.00,,SKC,0.03,VWS V14.00,2013-03-01 01:47:00,
2013-02-28 20:48:00,36.5,24.0,29.98,North,360,9.0,9.0,60,0.00,,SKC,0.03,VWS V14.00,2013-03-01 01:48:00,
2013-02-28 20:49:00,36.5,24.0,29.98,North,360,9.0,9.0,60,0.00,,SKC,0.03,VWS V14.00,2013-03-01 01:49:00,
2013-02-28 20:50:00,36.5,24.0,29.98,North,360,9.0,9.0,60,0.00,,SKC,0.03,VWS V14.00,2013-03-01 01:50:00,
2013-02-28 20:51:00,36.5,24.0,29.98,North,360,9.0,9.0,60,0.00,,SKC,0.03,VWS V14.00,2013-03-01 01:51:00,
2013-02-28 20:52:00,36.5,24.0,29.98,North,360,9.0,9.0,60,0.00,,SKC,0.03,VWS V14.00,2013-03-01 01:52:00,
2013-02-28 20:53:00,36.5,24.0,29.98,North,360,9.0,9.0,60,0.00,,SKC,0.03,VWS V14.00,2013-03-01 01:53:00,
2013-02-28 20:54:00,36.5,24.0,29.98,North,360,9.0,9.0,60,0.00,,SKC,0.03,VWS V14.00,2013-03-01 01:54:00,
2013-02-28 20:55:00,36.5,24.0,29.98,North,360,9.0,9.0,60,0.00,,SKC,0.03,VWS V14.00,2013-03-01 01:55:00,
2013-02-28 20:56:00,36.5,24.0,29.98,North,360,9.0,9.0,60,0.00,,SKC,0.03,VWS V14.00,2013-03-01 01:56:00,
2013-02-28 20:57:00,35.9,24.2,29.98,North,360,13.0,14.0,62,0.00,,SKC,0.03,VWS V14.00,2013-03-01 01:57:00,
2013-02-28 20:58:00,35.9,24.2,29.98,North,360,5.0,14.0,62,0.00,,SKC,0.03,VWS V14.00,2013-03-01 01:58:00,
2013-02-28 20:59:00,35.9,24.2,29.98,North,360,3.0,14.0,62,0.00,,SKC,0.03,VWS V14.00,2013-03-01 01:59:00,
2013-02-28 21:00:00,35.9,24.2,29.99,North,360,7.0,14.0,62,0.00,,SKC,0.03,VWS V14.00,2013-03-01 02:00:00,
2013-02-28 21:01:00,35.9,24.2,29.99,North,360,7.0,12.0,62,0.00,,SKC,0.03,VWS V14.00,2013-03-01 02:01:00,
2013-02-28 21:02:00,35.9,24.2,29.99,North,360,6.0,12.0,62,0.00,,SKC,0.03,VWS V14.00,2013-03-01 02:02:00,
2013-02-28 21:03:00,35.9,24.2,29.99,North,360,12.0,16.0,62,0.00,,SKC,0.03,VWS V14.00,2013-03-01 02:03:00,
2013-02-28 21:04:00,35.9,24.2,29.99,North,360,9.0,16.0,62,0.00,,SKC,0.03,VWS V14.00,2013-03-01 02:04:00,
2013-02-28 21:05:00,35.9,24.2,29.99,North,360,6.0,16.0,62,0.00,,SKC,0.03,VWS V14.00,2013-03-01 02:05:00,
2013-02-28 21:06:00,35.9,24.2,29.99,North,360,6.0,16.0,62,0.00,,SKC,0.03,VWS V14.00,2013-03-01 02:06:00,
2013-02-28 21:07:00,35.9,24.2,29.99,North,360,14.0,16.0,62,0.00,,SKC,0.03,VWS V14.00,2013-03-01 02:07:00,
2013-02-28 21:08:00,35.8,24.1,29.99,North,360,9.0,16.0,62,0.00,,SKC,0.03,VWS V14.00,2013-03-01 02:08:00,
2013-02-28 21:09:00,35.8,24.1,29.99,North,360,13.0,16.0,62,0.00,,SKC,0.03,VWS V14.00,2013-03-01 02:09:00,
2013-02-28 21:10:00,35.8,24.1,29.99,North,360,11.0,16.0,62,0.00,,SKC,0.03,VWS V14.00,2013-03-01 02:10:00,
2013-02-28 21:11:00,35.8,24.1,29.99,North,360,11.0,17.0,62,0.00,,SKC,0.03,VWS V14.00,2013-03-01 02:11:00,
2013-02-28 21:12:00,35.8,24.1,29.99,North,360,9.0,17.0,62,0.00,,SKC,0.03,VWS V14.00,2013-03-01 02:12:00,
2013-02-28 21:13:00,35.8,24.1,29.99,North,360,7.0,17.0,62,0.00,,SKC,0.03,VWS V14.00,2013-03-01 02:13:00,
2013-02-28 21:14:00,35.8,24.1,29.99,North,360,2.0,17.0,62,0.00,,SKC,0.03,VWS V14.00,2013-03-01 02:14:00,
2013-02-28 21:15:00,35.8,24.1,29.98,North,360,6.0,17.0,62,0.00,,SKC,0.03,VWS V14.00,2013-03-01 02:15:00,
2013-02-28 21:16:00,35.8,24.1,29.98,North,360,6.0,17.0,62,0.00,,SKC,0.03,VWS V14.00,2013-03-01 02:16:00,
2013-02-28 21:17:00,35.8,24.1,29.98,North,360,2.0,17.0,62,0.00,,SKC,0.03,VWS V14.00,2013-03-01 02:17:00,
2013-02-28 21:18:00,35.8,24.1,29.98,North,360,9.0,17.0,62,0.00,,SKC,0.03,VWS V14.00,2013-03-01 02:18:00,
2013-02-28 21:19:00,35.8,24.1,29.98,North,360,11.0,17.0,62,0.00,,SKC,0.03,VWS V14.00,2013-03-01 02:19:00,
2013-02-28 21:20:00,35.8,24.1,29.98,North,360,11.0,17.0,62,0.00,,SKC,0.03,VWS V14.00,2013-03-01 02:20:00,
2013-02-28 21:21:00,35.8,24.1,29.98,North,360,6.0,11.0,62,0.00,,SKC,0.03,VWS V14.00,2013-03-01 02:21:00,
2013-02-28 21:22:00,35.8,24.1,29.98,North,360,6.0,11.0,62,0.00,,SKC,0.03,VWS V14.00,2013-03-01 02:22:00,
2013-02-28 21:23:00,35.8,24.1,29.98,North,360,6.0,11.0,62,0.00,,SKC,0.03,VWS V14.00,2013-03-01 02:23:00,
2013-02-28 21:24:00,35.8,24.1,29.98,North,360,13.0,15.0,62,0.00,,SKC,0.03,VWS V14.00,2013-03-01 02:24:00,
2013-02-28 21:25:00,35.8,24.1,29.98,North,360,9.0,15.0,62,0.00,,SKC,0.03,VWS V14.00,2013-03-01 02:25:00,
2013-02-28 21:26:00,35.8,24.1,29.98,North,360,3.0,15.0,62,0.00,,SKC,0.03,VWS V14.00,2013-03-01 02:26:00,
2013-02-28 21:27:00,35.8,24.1,29.98,North,360,7.0,15.0,62,0.00,,SKC,0.03,VWS V14.00,2013-03-01 02:27:00,
2013-02-28 21:28:00,35.8,24.1,29.98,North,360,11.0,15.0,62,0.00,,SKC,0.03,VWS V14.00,2013-03-01 02:28:00,
2013-02-28 21:29:00,35.8,24.1,29.98,North,360,11.0,15.0,62,0.00,,SKC,0.03,VWS V14.00,2013-03-01 02:29:00,
2013-02-28 21:30:00,35.8,24.1,29.99,North,360,11.0,15.0,62,0.00,,SKC,0.03,VWS V14.00,2013-03-01 02:30:00,
2013-02-28 21:31:00,35.8,24.1,29.99,North,360,11.0,11.0,62,0.00,,SKC,0.03,VWS V14.00,2013-03-01 02:31:00,
2013-02-28 21:32:00,35.8,24.1,29.99,North,360,7.0,11.0,62,0.00,,SKC,0.03,VWS V14.00,2013-03-01 02:32:00,
2013-02-28 21:33:00,35.8,24.1,29.99,North,360,4.0,11.0,62,0.00,,SKC,0.03,VWS V14.00,2013-03-01 02:33:00,
2013-02-28 21:34:00,35.8,24.5,29.99,North,360,6.0,11.0,63,0.00,,SKC,0.03,VWS V14.00,2013-03-01 02:34:00,
2013-02-28 21:35:00,35.8,24.5,29.99,North,360,7.0,11.0,63,0.00,,SKC,0.03,VWS V14.00,2013-03-01 02:35:00,
2013-02-28 21:36:00,35.8,24.1,29.99,North,360,6.0,11.0,62,0.00,,SKC,0.03,VWS V14.00,2013-03-01 02:36:00,
2013-02-28 21:37:00,35.8,24.5,29.99,North,360,9.0,11.0,63,0.00,,SKC,0.03,VWS V14.00,2013-03-01 02:37:00,
2013-02-28 21:38:00,35.8,24.1,29.99,North,360,9.0,12.0,62,0.00,,SKC,0.03,VWS V14.00,2013-03-01 02:38:00,
2013-02-28 21:39:00,35.8,24.1,29.99,North,360,10.0,13.0,62,0.00,,SKC,0.03,VWS V14.00,2013-03-01 02:39:00,
2013-02-28 21:40:00,35.8,24.1,29.99,North,360,6.0,13.0,62,0.00,,SKC,0.03,VWS V14.00,2013-03-01 02:40:00,
2013-02-28 21:41:00,35.8,24.1,29.99,North,360,8.0,9.0,62,0.00,,SKC,0.03,VWS V14.00,2013-03-01 02:41:00,
2013-02-28 21:42:00,35.8,24.1,29.99,North,360,8.0,10.0,62,0.00,,SKC,0.03,VWS V14.00,2013-03-01 02:42:00,
2013-02-28 21:43:00,35.8,24.1,29.99,North,360,13.0,13.0,62,0.00,,SKC,0.03,VWS V14.00,2013-03-01 02:43:00,
2013-02-28 21:44:00,35.8,24.1,29.99,North,360,6.0,13.0,62,0.00,,SKC,0.03,VWS V14.00,2013-03-01 02:44:00,
2013-02-28 21:45:00,35.8,24.5,29.98,North,360,5.0,13.0,63,0.00,,SKC,0.03,VWS V14.00,2013-03-01 02:45:00,
2013-02-28 21:46:00,35.8,24.5,29.98,North,360,10.0,13.0,63,0.00,,SKC,0.03,VWS V14.00,2013-03-01 02:46:00,
2013-02-28 21:47:00,35.8,24.5,29.98,North,360,11.0,13.0,63,0.00,,SKC,0.03,VWS V14.00,2013-03-01 02:47:00,
2013-02-28 21:48:00,35.8,24.5,29.98,North,360,5.0,13.0,63,0.00,,SKC,0.03,VWS V14.00,2013-03-01 02:48:00,
2013-02-28 21:49:00,35.6,24.3,29.98,North,360,14.0,14.0,63,0.00,,SKC,0.03,VWS V14.00,2013-03-01 02:49:00,
2013-02-28 21:50:00,35.6,24.3,29.98,North,360,10.0,14.0,63,0.00,,SKC,0.03,VWS V14.00,2013-03-01 02:50:00,
2013-02-28 21:51:00,35.6,24.3,29.98,North,360,6.0,10.0,63,0.00,,SKC,0.03,VWS V14.00,2013-03-01 02:51:00,
2013-02-28 21:52:00,35.6,24.3,29.98,North,360,7.0,11.0,63,0.00,,SKC,0.03,VWS V14.00,2013-03-01 02:52:00,
2013-02-28 21:53:00,35.6,24.3,29.98,North,360,8.0,12.0,63,0.00,,SKC,0.03,VWS V14.00,2013-03-01 02:53:00,
2013-02-28 21:54:00,35.6,24.3,29.98,North,360,9.0,12.0,63,0.00,,SKC,0.03,VWS V14.00,2013-03-01 02:54:00,
2013-02-28 21:55:00,35.6,24.3,29.98,North,360,4.0,12.0,63,0.00,,SKC,0.03,VWS V14.00,2013-03-01 02:55:00,
2013-02-28 21:56:00,35.6,24.3,29.98,North,360,5.0,12.0,63,0.00,,SKC,0.03,VWS V14.00,2013-03-01 02:56:00,
2013-02-28 21:57:00,35.6,24.3,29.98,North,360,7.0,12.0,63,0.00,,SKC,0.03,VWS V14.00,2013-03-01 02:57:00,
2013-02-28 21:58:00,35.6,24.3,29.98,North,360,7.0,12.0,63,0.00,,SKC,0.03,VWS V14.00,2013-03-01 02:58:00,
2013-02-28 21:59:00,35.6,24.3,29.98,North,360,7.0,12.0,63,0.00,,SKC,0.03,VWS V14.00,2013-03-01 02:59:00,
2013-02-28 22:00:00,35.6,24.3,29.98,North,360,7.0,12.0,63,0.00,,SKC,0.03,VWS V14.00,2013-03-01 03:00:00,
2013-02-28 22:01:00,35.6,24.3,29.98,North,360,7.0,7.0,63,0.00,,SKC,0.03,VWS V14.00,2013-03-01 03:01:00,
2013-02-28 22:02:00,35.6,24.3,29.98,North,360,7.0,7.0,63,0.00,,SKC,0.03,VWS V14.00,2013-03-01 03:02:00,
2013-02-28 22:03:00,35.6,24.3,29.98,North,360,7.0,7.0,63,0.00,,SKC,0.03,VWS V14.00,2013-03-01 03:03:00,
2013-02-28 22:04:00,35.6,24.3,29.98,North,360,7.0,7.0,63,0.00,,SKC,0.03,VWS V14.00,2013-03-01 03:04:00,
2013-02-28 22:05:00,35.6,24.3,29.98,North,360,7.0,7.0,63,0.00,,SKC,0.03,VWS V14.00,2013-03-01 03:05:00,
2013-02-28 22:06:00,35.6,24.3,29.98,North,360,7.0,7.0,63,0.00,,SKC,0.03,VWS V14.00,2013-03-01 03:06:00,
2013-02-28 22:07:00,35.6,24.3,29.98,North,360,7.0,7.0,63,0.00,,SKC,0.03,VWS V14.00,2013-03-01 03:07:00,
2013-02-28 22:08:00,35.6,24.3,29.98,North,360,7.0,7.0,63,0.00,,SKC,0.03,VWS V14.00,2013-03-01 03:08:00,
2013-02-28 22:09:00,35.6,24.3,29.98,North,360,7.0,7.0,63,0.00,,SKC,0.03,VWS V14.00,2013-03-01 03:09:00,
2013-02-28 22:10:00,35.6,24.3,29.98,North,360,7.0,7.0,63,0.00,,SKC,0.03,VWS V14.00,2013-03-01 03:10:00,
2013-02-28 22:11:00,35.6,24.3,29.98,North,360,7.0,7.0,63,0.00,,SKC,0.03,VWS V14.00,2013-03-01 03:11:00,
2013-02-28 22:12:00,35.6,24.3,29.98,North,360,7.0,7.0,63,0.00,,SKC,0.03,VWS V14.00,2013-03-01 03:12:00,
2013-02-28 22:13:00,35.6,24.3,29.98,North,360,7.0,7.0,63,0.00,,SKC,0.03,VWS V14.00,2013-03-01 03:13:00,
2013-02-28 22:14:00,35.6,24.3,29.98,North,360,7.0,7.0,63,0.00,,SKC,0.03,VWS V14.00,2013-03-01 03:14:00,
2013-02-28 22:15:00,35.6,24.3,29.97,North,360,7.0,7.0,63,0.00,,SKC,0.03,VWS V14.00,2013-03-01 03:15:00,
2013-02-28 22:16:00,35.6,24.3,29.97,North,360,7.0,7.0,63,0.00,,SKC,0.03,VWS V14.00,2013-03-01 03:16:00,
2013-02-28 22:17:00,35.6,24.3,29.97,North,360,7.0,7.0,63,0.00,,SKC,0.03,VWS V14.00,2013-03-01 03:17:00,
2013-02-28 22:18:00,35.6,24.3,29.97,North,360,7.0,7.0,63,0.00,,SKC,0.03,VWS V14.00,2013-03-01 03:18:00,
2013-02-28 22:19:00,35.6,24.3,29.97,North,360,7.0,7.0,63,0.00,,SKC,0.03,VWS V14.00,2013-03-01 03:19:00,
2013-02-28 22:20:00,35.6,24.3,29.97,North,360,7.0,7.0,63,0.00,,SKC,0.03,VWS V14.00,2013-03-01 03:20:00,
2013-02-28 22:21:00,35.6,24.3,29.97,North,360,7.0,7.0,63,0.00,,SKC,0.03,VWS V14.00,2013-03-01 03:21:00,
2013-02-28 22:22:00,35.6,24.3,29.97,North,360,7.0,7.0,63,0.00,,SKC,0.03,VWS V14.00,2013-03-01 03:22:00,
2013-02-28 22:23:00,35.6,24.3,29.97,North,360,7.0,7.0,63,0.00,,SKC,0.03,VWS V14.00,2013-03-01 03:23:00,
2013-02-28 22:24:00,35.6,24.3,29.97,North,360,7.0,7.0,63,0.00,,SKC,0.03,VWS V14.00,2013-03-01 03:24:00,
2013-02-28 22:25:00,35.6,24.3,29.97,North,360,7.0,7.0,63,0.00,,SKC,0.03,VWS V14.00,2013-03-01 03:25:00,
2013-02-28 22:26:00,35.6,24.3,29.97,North,360,7.0,7.0,63,0.00,,SKC,0.03,VWS V14.00,2013-03-01 03:26:00,
2013-02-28 22:27:00,35.6,24.3,29.97,North,360,7.0,7.0,63,0.00,,SKC,0.03,VWS V14.00,2013-03-01 03:27:00,
2013-02-28 22:28:00,35.6,24.3,29.97,North,360,7.0,7.0,63,0.00,,SKC,0.03,VWS V14.00,2013-03-01 03:28:00,
2013-02-28 22:29:00,35.6,24.3,29.97,North,360,7.0,7.0,63,0.00,,SKC,0.03,VWS V14.00,2013-03-01 03:29:00,
2013-02-28 22:30:00,35.6,24.3,29.97,North,360,7.0,7.0,63,0.00,,SKC,0.03,VWS V14.00,2013-03-01 03:30:00,
2013-02-28 22:31:00,35.6,24.3,29.97,North,360,7.0,7.0,63,0.00,,SKC,0.03,VWS V14.00,2013-03-01 03:31:00,
2013-02-28 22:32:00,35.6,24.3,29.97,North,360,7.0,7.0,63,0.00,,SKC,0.03,VWS V14.00,2013-03-01 03:32:00,
2013-02-28 22:33:00,35.6,24.3,29.97,North,360,7.0,7.0,63,0.00,,SKC,0.03,VWS V14.00,2013-03-01 03:33:00,
2013-02-28 22:34:00,35.6,24.3,29.97,North,360,7.0,7.0,63,0.00,,SKC,0.03,VWS V14.00,2013-03-01 03:34:00,
2013-02-28 22:35:00,35.6,24.3,29.97,North,360,7.0,7.0,63,0.00,,SKC,0.03,VWS V14.00,2013-03-01 03:35:00,
2013-02-28 22:36:00,35.6,24.3,29.97,North,360,7.0,7.0,63,0.00,,SKC,0.03,VWS V14.00,2013-03-01 03:36:00,
2013-02-28 22:37:00,35.6,24.3,29.97,North,360,7.0,7.0,63,0.00,,SKC,0.03,VWS V14.00,2013-03-01 03:37:00,
2013-02-28 22:38:00,35.6,24.3,29.97,North,360,7.0,7.0,63,0.00,,SKC,0.03,VWS V14.00,2013-03-01 03:38:00,
2013-02-28 22:39:00,35.6,24.3,29.97,North,360,7.0,7.0,63,0.00,,SKC,0.03,VWS V14.00,2013-03-01 03:39:00,
2013-02-28 22:40:00,35.6,24.3,29.97,North,360,7.0,7.0,63,0.00,,SKC,0.03,VWS V14.00,2013-03-01 03:40:00,
2013-02-28 22:41:00,35.6,24.3,29.97,North,360,7.0,7.0,63,0.00,,SKC,0.03,VWS V14.00,2013-03-01 03:41:00,
2013-02-28 22:42:00,35.6,24.3,29.97,North,360,7.0,7.0,63,0.00,,SKC,0.03,VWS V14.00,2013-03-01 03:42:00,
2013-02-28 22:43:00,35.6,24.3,29.97,North,360,7.0,7.0,63,0.00,,SKC,0.03,VWS V14.00,2013-03-01 03:43:00,
2013-02-28 22:44:00,35.6,24.3,29.97,North,360,7.0,7.0,63,0.00,,SKC,0.03,VWS V14.00,2013-03-01 03:44:00,
2013-02-28 22:45:00,35.6,24.3,29.97,North,360,7.0,7.0,63,0.00,,SKC,0.03,VWS V14.00,2013-03-01 03:45:00,
2013-02-28 22:46:00,35.6,24.3,29.97,North,360,7.0,7.0,63,0.00,,SKC,0.03,VWS V14.00,2013-03-01 03:46:00,
2013-02-28 22:47:00,35.6,24.3,29.97,North,360,7.0,7.0,63,0.00,,SKC,0.03,VWS V14.00,2013-03-01 03:47:00,
2013-02-28 22:48:00,35.6,24.3,29.97,North,360,7.0,7.0,63,0.00,,SKC,0.03,VWS V14.00,2013-03-01 03:48:00,
2013-02-28 22:49:00,35.6,24.3,29.97,North,360,7.0,7.0,63,0.00,,SKC,0.03,VWS V14.00,2013-03-01 03:49:00,
2013-02-28 22:50:00,35.6,24.3,29.97,North,360,7.0,7.0,63,0.00,,SKC,0.03,VWS V14.00,2013-03-01 03:50:00,
2013-02-28 22:51:00,35.6,24.3,29.97,North,360,7.0,7.0,63,0.00,,SKC,0.03,VWS V14.00,2013-03-01 03:51:00,
2013-02-28 22:52:00,35.6,24.3,29.97,North,360,7.0,7.0,63,0.00,,SKC,0.03,VWS V14.00,2013-03-01 03:52:00,
2013-02-28 22:53:00,35.6,24.3,29.97,North,360,7.0,7.0,63,0.00,,SKC,0.03,VWS V14.00,2013-03-01 03:53:00,
2013-02-28 22:54:00,35.6,24.3,29.97,North,360,7.0,7.0,63,0.00,,SKC,0.03,VWS V14.00,2013-03-01 03:54:00,
2013-02-28 22:55:00,35.6,24.3,29.97,North,360,7.0,7.0,63,0.00,,SKC,0.03,VWS V14.00,2013-03-01 03:55:00,
2013-02-28 22:56:00,35.6,24.3,29.97,North,360,7.0,7.0,63,0.00,,SKC,0.03,VWS V14.00,2013-03-01 03:56:00,
2013-02-28 22:57:00,35.6,24.3,29.97,North,360,7.0,7.0,63,0.00,,SKC,0.03,VWS V14.00,2013-03-01 03:57:00,
2013-02-28 22:58:00,35.6,24.3,29.97,North,360,7.0,7.0,63,0.00,,SKC,0.03,VWS V14.00,2013-03-01 03:58:00,
2013-02-28 22:59:00,35.6,24.3,29.97,North,360,7.0,7.0,63,0.00,,SKC,0.03,VWS V14.00,2013-03-01 03:59:00,
2013-02-28 23:00:00,35.6,24.3,29.97,North,360,7.0,7.0,63,0.00,,SKC,0.03,VWS V14.00,2013-03-01 04:00:00,
2013-02-28 23:01:00,35.6,24.3,29.97,North,360,7.0,7.0,63,0.00,,SKC,0.03,VWS V14.00,2013-03-01 04:01:00,
2013-02-28 23:02:00,35.6,24.3,29.97,North,360,7.0,7.0,63,0.00,,SKC,0.03,VWS V14.00,2013-03-01 04:02:00,
2013-02-28 23:03:00,35.6,24.3,29.97,North,360,7.0,7.0,63,0.00,,SKC,0.03,VWS V14.00,2013-03-01 04:03:00,
2013-02-28 23:04:00,35.6,24.3,29.97,North,360,7.0,7.0,63,0.00,,SKC,0.03,VWS V14.00,2013-03-01 04:04:00,
2013-02-28 23:05:00,35.6,24.3,29.97,North,360,7.0,7.0,63,0.00,,SKC,0.03,VWS V14.00,2013-03-01 04:05:00,
2013-02-28 23:06:00,35.6,24.3,29.97,North,360,7.0,7.0,63,0.00,,SKC,0.03,VWS V14.00,2013-03-01 04:06:00,
2013-02-28 23:07:00,35.6,24.3,29.97,North,360,7.0,7.0,63,0.00,,SKC,0.03,VWS V14.00,2013-03-01 04:07:00,
2013-02-28 23:08:00,35.6,24.3,29.97,North,360,7.0,7.0,63,0.00,,SKC,0.03,VWS V14.00,2013-03-01 04:08:00,
2013-02-28 23:09:00,35.6,24.3,29.97,North,360,7.0,7.0,63,0.00,,SKC,0.03,VWS V14.00,2013-03-01 04:09:00,
2013-02-28 23:10:00,35.6,24.3,29.97,North,360,7.0,7.0,63,0.00,,SKC,0.03,VWS V14.00,2013-03-01 04:10:00,
2013-02-28 23:11:00,35.6,24.3,29.97,North,360,7.0,7.0,63,0.00,,SKC,0.03,VWS V14.00,2013-03-01 04:11:00,
2013-02-28 23:12:00,35.6,24.3,29.97,North,360,7.0,7.0,63,0.00,,SKC,0.03,VWS V14.00,2013-03-01 04:12:00,
2013-02-28 23:13:00,35.6,24.3,29.97,North,360,7.0,7.0,63,0.00,,SKC,0.03,VWS V14.00,2013-03-01 04:13:00,
2013-02-28 23:14:00,35.6,24.3,29.97,North,360,7.0,7.0,63,0.00,,SKC,0.03,VWS V14.00,2013-03-01 04:14:00,
2013-02-28 23:15:00,35.6,24.3,29.95,North,360,7.0,7.0,63,0.00,,SKC,0.03,VWS V14.00,2013-03-01 04:15:00,
2013-02-28 23:16:00,35.6,24.3,29.95,North,360,7.0,7.0,63,0.00,,SKC,0.03,VWS V14.00,2013-03-01 04:16:00,
2013-02-28 23:17:00,35.6,24.3,29.95,North,360,7.0,7.0,63,0.00,,SKC,0.03,VWS V14.00,2013-03-01 04:17:00,
2013-02-28 23:18:00,35.6,24.3,29.95,North,360,7.0,7.0,63,0.00,,SKC,0.03,VWS V14.00,2013-03-01 04:18:00,
2013-02-28 23:19:00,35.6,24.3,29.95,North,360,7.0,7.0,63,0.00,,SKC,0.03,VWS V14.00,2013-03-01 04:19:00,
2013-02-28 23:20:00,35.6,24.3,29.95,North,360,7.0,7.0,63,0.00,,SKC,0.03,VWS V14.00,2013-03-01 04:20:00,
2013-02-28 23:21:00,35.6,24.3,29.95,North,360,7.0,7.0,63,0.00,,SKC,0.03,VWS V14.00,2013-03-01 04:21:00,
2013-02-28 23:22:00,35.6,24.3,29.95,North,360,7.0,7.0,63,0.00,,SKC,0.03,VWS V14.00,2013-03-01 04:22:00,
2013-02-28 23:23:00,35.6,24.3,29.95,North,360,7.0,7.0,63,0.00,,SKC,0.03,VWS V14.00,2013-03-01 04:23:00,
2013-02-28 23:24:00,35.6,24.3,29.95,North,360,7.0,7.0,63,0.00,,SKC,0.03,VWS V14.00,2013-03-01 04:24:00,
2013-02-28 23:25:00,35.6,24.3,29.95,North,360,7.0,7.0,63,0.00,,SKC,0.03,VWS V14.00,2013-03-01 04:25:00,
2013-02-28 23:26:00,35.6,24.3,29.95,North,360,7.0,7.0,63,0.00,,SKC,0.03,VWS V14.00,2013-03-01 04:26:00,
2013-02-28 23:27:00,35.6,24.3,29.95,North,360,7.0,7.0,63,0.00,,SKC,0.03,VWS V14.00,2013-03-01 04:27:00,
2013-02-28 23:28:00,35.6,24.3,29.95,North,360,7.0,7.0,63,0.00,,SKC,0.03,VWS V14.00,2013-03-01 04:28:00,
2013-02-28 23:29:00,35.6,24.3,29.95,North,360,7.0,7.0,63,0.00,,SKC,0.03,VWS V14.00,2013-03-01 04:29:00,
2013-02-28 23:30:00,35.6,24.3,29.95,North,360,7.0,7.0,63,0.00,,SKC,0.03,VWS V14.00,2013-03-01 04:30:00,
2013-02-28 23:31:00,35.6,24.3,29.95,North,360,7.0,7.0,63,0.00,,SKC,0.03,VWS V14.00,2013-03-01 04:31:00,
2013-02-28 23:32:00,35.6,24.3,29.95,North,360,7.0,7.0,63,0.00,,SKC,0.03,VWS V14.00,2013-03-01 04:32:00,
2013-02-28 23:33:00,35.6,24.3,29.95,North,360,7.0,7.0,63,0.00,,SKC,0.03,VWS V14.00,2013-03-01 04:33:00,
2013-02-28 23:34:00,35.6,24.3,29.95,North,360,7.0,7.0,63,0.00,,SKC,0.03,VWS V14.00,2013-03-01 04:34:00,
2013-02-28 23:35:00,35.6,24.3,29.95,North,360,7.0,7.0,63,0.00,,SKC,0.03,VWS V14.00,2013-03-01 04:35:00,
2013-02-28 23:36:00,35.6,24.3,29.95,North,360,7.0,7.0,63,0.00,,SKC,0.03,VWS V14.00,2013-03-01 04:36:00,
2013-02-28 23:37:00,35.6,24.3,29.95,North,360,7.0,7.0,63,0.00,,SKC,0.03,VWS V14.00,2013-03-01 04:37:00,
2013-02-28 23:38:00,35.6,24.3,29.95,North,360,7.0,7.0,63,0.00,,SKC,0.03,VWS V14.00,2013-03-01 04:38:00,
2013-02-28 23:39:00,35.6,24.3,29.95,North,360,7.0,7.0,63,0.00,,SKC,0.03,VWS V14.00,2013-03-01 04:39:00,
2013-02-28 23:40:00,35.6,24.3,29.95,North,360,7.0,7.0,63,0.00,,SKC,0.03,VWS V14.00,2013-03-01 04:40:00,
2013-02-28 23:41:00,35.6,24.3,29.95,North,360,7.0,7.0,63,0.00,,SKC,0.03,VWS V14.00,2013-03-01 04:41:00,
2013-02-28 23:42:00,35.6,24.3,29.95,North,360,7.0,7.0,63,0.00,,SKC,0.03,VWS V14.00,2013-03-01 04:42:00,
2013-02-28 23:43:00,35.6,24.3,29.95,North,360,7.0,7.0,63,0.00,,SKC,0.03,VWS V14.00,2013-03-01 04:43:00,
2013-02-28 23:44:00,35.6,24.3,29.95,North,360,7.0,7.0,63,0.00,,SKC,0.03,VWS V14.00,2013-03-01 04:44:00,
2013-02-28 23:45:00,35.6,24.3,29.95,North,360,7.0,7.0,63,0.00,,SKC,0.03,VWS V14.00,2013-03-01 04:45:00,
2013-02-28 23:46:00,35.6,24.3,29.95,North,360,7.0,7.0,63,0.00,,SKC,0.03,VWS V14.00,2013-03-01 04:46:00,
2013-02-28 23:47:00,35.6,24.3,29.95,North,360,7.0,7.0,63,0.00,,SKC,0.03,VWS V14.00,2013-03-01 04:47:00,
2013-02-28 23:48:00,35.6,24.3,29.95,North,360,7.0,7.0,63,0.00,,SKC,0.03,VWS V14.00,2013-03-01 04:48:00,
2013-02-28 23:49:00,35.6,24.3,29.95,North,360,7.0,7.0,63,0.00,,SKC,0.03,VWS V14.00,2013-03-01 04:49:00,
2013-02-28 23:50:00,35.6,24.3,29.95,North,360,7.0,7.0,63,0.00,,SKC,0.03,VWS V14.00,2013-03-01 04:50:00,
2013-02-28 23:51:00,35.6,24.3,29.95,North,360,7.0,7.0,63,0.00,,SKC,0.03,VWS V14.00,2013-03-01 04:51:00,
2013-02-28 23:52:00,35.6,24.3,29.95,North,360,7.0,7.0,63,0.00,,SKC,0.03,VWS V14.00,2013-03-01 04:52:00,
2013-02-28 23:53:00,35.6,24.3,29.95,North,360,7.0,7.0,63,0.00,,SKC,0.03,VWS V14.00,2013-03-01 04:53:00,
2013-02-28 23:54:00,35.6,24.3,29.95,North,360,7.0,7.0,63,0.00,,SKC,0.03,VWS V14.00,2013-03-01 04:54:00,
2013-02-28 23:55:00,35.6,24.3,29.95,North,360,7.0,7.0,63,0.00,,SKC,0.03,VWS V14.00,2013-03-01 04:55:00,
2013-02-28 23:56:00,35.6,24.3,29.95,North,360,7.0,7.0,63,0.00,,SKC,0.03,VWS V14.00,2013-03-01 04:56:00,
2013-02-28 23:57:00,35.6,24.3,29.95,North,360,7.0,7.0,63,0.00,,SKC,0.03,VWS V14.00,2013-03-01 04:57:00,
2013-02-28 23:58:00,35.6,24.3,29.95,North,360,7.0,7.0,63,0.00,,SKC,0.03,VWS V14.00,2013-03-01 04:58:00,
2013-02-28 23:59:00,35.6,24.3,29.95,North,360,7.0,7.0,63,0.00,,SKC,0.03,VWS V14.00,2013-03-01 04:59:00,